[[{"header":{"parameterUnit":"m.s-1","parameterCategory":1,"la1":31.0,"la2":29.5877,"lo1":-88.7671,"lo2":-86.6584,"dy":0.0162,"dx":0.0185,"nx":115,"ny":88,"refTime":"2024-04-03T12:00:00:Z","depth":0,"parameterNumber":2,"parameterNumberName":"U-component_of_WINDS"},"data":[0.0,0.0,0.0,0.0,0.0,0.0,0.0,0.0,0.0,0.0,0.0,0.0,0.0,0.0,0.0,0.0,0.0,0.0,0.0,0.0,0.0,0.0,0.0,0.0,0.0,0.0,0.0,0.0,0.0,0.0,0.0,0.0,0.0,0.0,0.0,0.0,0.0,0.0,0.0,0.0,0.0,0.0,0.0,0.0,0.0,0.0,0.0,0.0,0.0,0.0,0.0,0.0,0.0,0.0,0.0,0.0,0.0,0.0,0.0,0.0,0.0,0.0,0.0,0.0,0.0,0.0,0.0,0.0,0.0,0.0,0.0,0.0,0.0,0.0,0.0,0.0,0.0,0.0,0.0,0.0,0.0,0.0,0.0,0.0,0.0,0.0,0.0,0.0,0.0,0.0,0.0,0.0,0.0,0.0,0.0,0.0,0.0,0.0,0.0,0.0,0.0,0.0,0.0,0.0,0.0,0.0,0.0,0.0,0.0,0.0,0.0,0.0,0.0,0.0,0.0,0.0,0.0,0.0,0.0,0.0,0.0,0.0,0.0,0.0,0.0,0.0,0.0,0.0,0.0,0.0,0.0,0.0,0.0,0.0,0.0,0.0,0.0,0.0,0.0,0.0,0.0,0.0,0.0,0.0,0.0,0.0,0.0,0.0,0.0,0.0,0.0,0.0,0.0,0.0,0.0,0.0,0.0,0.0,0.0,0.0,0.0,0.0,0.0,0.0,0.0,0.0,0.0,0.0,0.0,0.0,0.0,0.0,0.0,0.0,0.0,0.0,0.0,0.0,0.0,0.0,0.0,0.0,0.0,0.0,0.0,0.0,0.0,0.0,0.0,0.0,0.0,0.0,0.0,0.0,0.0,0.0,0.0,0.0,0.0,0.0,0.0,0.0,0.0,0.0,0.0,0.0,0.0,0.0,0.0,0.0,0.0,0.0,0.0,0.0,0.0,0.0,0.0,0.0,0.0,0.0,0.0,0.0,0.0,0.0,0.0,0.0,0.0,0.0,0.0,0.0,0.0,0.0,0.0,0.0,0.0,0.0,0.0,0.0,0.0,0.0,0.0,0.0,0.0,0.0,0.0,0.0,0.0,0.0,0.0,0.0,0.0,0.0,0.0,0.0,0.0,0.0,0.0,0.0,0.0,0.0,0.0,0.0,0.0,0.0,0.0,0.0,0.0,0.0,0.0,0.0,0.0,0.0,0.0,0.0,0.0,0.0,0.0,0.0,0.0,0.0,0.0,0.0,0.0,0.0,0.0,0.0,0.0,0.0,0.0,0.0,0.0,0.0,0.0,0.0,0.0,0.0,0.0,0.0,0.0,0.0,0.0,0.0,0.0,0.0,0.0,0.0,0.0,0.0,0.0,0.0,0.0,0.0,0.0,0.0,0.0,0.0,0.0,0.0,0.0,0.0,0.0,0.0,0.0,0.0,0.0,0.0,0.0,0.0,0.0,0.0,0.0,0.0,0.0,0.0,0.0,0.0,0.0,0.0,0.0,0.0,0.0,0.0,0.0,0.0,0.0,0.0,0.0,0.0,0.0,0.0,0.0,0.0,0.0,0.0,0.0,0.0,0.0,0.0,0.0,0.0,0.0,0.0,0.0,0.0,0.0,0.0,0.0,0.0,0.0,0.0,0.0,0.0,0.0,0.0,0.0,0.0,0.0,0.0,0.0,0.0,0.0,0.0,0.0,0.0,0.0,0.0,0.0,0.0,0.0,0.0,0.0,0.0,0.0,0.0,0.0,0.0,0.0,0.0,0.0,0.0,0.0,0.0,0.0,0.0,0.0,0.0,0.0,0.0,0.0,0.0,0.0,0.0,0.0,0.0,0.0,0.0,0.0,0.0,0.0,0.0,0.0,0.0,0.0,0.0,0.0,0.0,0.0,0.0,0.0,0.0,0.0,0.0,0.0,0.0,0.0,0.0,0.0,0.0,0.0,0.0,0.0,0.0,0.0,0.0,0.0,0.0,0.0,0.0,0.0,0.0,0.0,0.0,0.0,0.0,0.0,0.0,0.0,0.0,0.0,0.0,0.0,0.0,0.0,0.0,0.0,0.0,0.0,0.0,0.0,0.0,0.0,0.0,0.0,0.0,0.0,0.0,0.0,0.0,0.0,0.0,0.0,0.0,0.0,0.0,0.0,0.0,0.0,0.0,0.0,0.0,0.0,0.0,0.0,0.0,0.0,0.0,0.0,0.0,0.0,0.0,0.0,0.0,0.0,0.0,0.0,0.0,0.0,0.0,0.0,0.0,0.0,0.0,0.0,0.0,0.0,0.0,0.0,0.0,0.0,0.0,0.0,0.0,0.0,0.0,0.0,0.0,0.0,0.0,0.0,0.0,0.0,0.0,0.0,0.0,0.0,0.0,0.0,0.0,0.0,0.0,0.0,0.0,0.0,0.0,0.0,0.0,0.0,0.0,0.0,0.0,0.0,0.0,0.0,0.0,0.0,0.0,0.0,0.0,0.0,0.0,0.0,0.0,0.0,0.0,0.0,0.0,0.0,0.0,0.0,0.0,0.0,0.0,0.0,0.0,0.0,0.0,0.0,0.0,0.0,0.0,0.0,0.0,0.0,0.0,0.0,0.0,0.0,0.0,0.0,0.0,0.0,0.0,0.0,0.0,0.0,0.0,0.0,0.0,0.0,0.0,0.0,0.0,0.0,0.0,0.0,0.0,0.0,0.0,0.0,0.0,0.0,0.0,0.0,0.0,0.0,0.0,0.0,0.0,0.0,0.0,0.0,0.0,0.0,0.0,0.0,0.0,0.0,0.0,0.0,0.0,0.0,0.0,0.0,0.0,0.0,0.0,0.0,0.0,0.0,0.0,0.0,0.0,0.0,0.0,0.0,0.0,0.0,0.0,0.0,0.0,0.0,0.0,0.0,0.0,0.0,0.0,0.0,0.0,0.0,0.0,0.0,0.0,0.0,0.0,0.0,0.0,0.0,0.0,0.0,0.0,0.0,0.0,0.0,0.0,0.0,0.0,0.0,0.0,0.0,0.0,0.0,0.0,0.0,0.0,0.0,0.0,0.0,0.0,0.0,0.0,0.0,0.0,0.0,0.0,0.0,0.0,0.0,0.0,0.0,0.0,0.0,0.0,0.0,0.0,0.0,0.0,0.0,0.0,0.0,0.0,0.0,0.0,0.0,0.0,0.0,0.0,0.0,0.0,0.0,0.0,0.0,0.0,0.0,0.0,0.0,0.0,0.0,0.0,0.0,0.0,0.0,0.0,0.0,0.0,0.0,0.0,0.0,0.0,0.0,0.0,0.0,0.0,0.0,0.0,0.0,0.0,0.0,0.0,0.0,0.0,0.0,0.0,0.0,0.0,0.0,0.0,0.0,0.0,0.0,0.0,0.0,0.0,0.0,0.0,0.0,0.0,0.0,0.0,0.0,0.0,0.0,0.0,0.0,0.0,0.0,0.0,0.0,0.0,0.0,0.0,0.0,0.0,0.0,0.0,0.0,0.0,0.0,0.0,0.0,0.0,0.0,0.0,0.0,0.0,0.0,0.0,0.0,0.0,0.0,0.0,0.0,0.0,0.0,0.0,0.0,0.0,0.0,0.0,0.0,0.0,0.0,0.0,0.0,0.0,0.0,0.0,0.0,0.0,0.0,0.0,0.0,0.0,0.0,0.0,0.0,0.0,0.0,0.0,0.0,0.0,0.0,0.0,0.0,0.0,0.0,0.0,0.0,0.0,0.0,0.0,0.0,0.0,0.0,0.0,0.0,0.0,0.0,0.0,0.0,0.0,0.0,0.0,0.0,0.0,0.0,0.0,0.0,0.0,0.0,0.0,0.0,0.0,0.0,0.0,0.0,0.0,0.0,0.0,0.0,0.0,0.0,0.0,0.0,0.0,0.0,0.0,0.0,0.0,0.0,0.0,0.0,0.0,0.0,0.0,0.0,0.0,0.0,0.0,0.0,0.0,0.0,0.0,0.0,0.0,0.0,0.0,0.0,0.0,0.0,0.0,0.0,0.0,0.0,0.0,0.0,0.0,0.0,0.0,0.0,0.0,0.0,0.0,0.0,0.0,0.0,0.0,0.0,0.0,0.0,0.0,0.0,0.0,0.0,0.0,0.0,0.0,0.0,0.0,0.0,0.0,0.0,0.0,0.0,0.0,0.0,0.0,0.0,0.0,0.0,0.0,0.0,0.0,0.0,0.0,0.0,0.0,0.0,0.0,0.0,0.0,0.0,0.0,0.0,0.0,0.0,0.0,0.0,0.0,0.0,0.0,0.0,0.0,0.0,0.0,0.0,0.0,-1.1057,0.0,0.0,0.0,0.0,0.0,0.0,0.0,0.0,0.0,0.0,0.0,0.0,0.0,0.0,0.0,0.0,0.0,0.0,0.0,0.0,0.0,0.0,0.0,0.0,0.0,0.0,0.0,0.0,0.0,0.0,0.0,0.0,0.0,0.0,0.0,0.0,0.0,0.0,0.0,0.0,0.0,0.0,0.0,0.0,0.0,0.0,0.0,0.0,0.0,0.0,0.0,0.0,0.0,0.0,0.0,0.0,0.0,0.0,0.0,0.0,0.0,0.0,0.0,0.0,0.0,0.0,0.0,0.0,0.0,0.0,0.0,0.0,0.0,0.0,0.0,0.0,0.0,0.0,0.0,0.0,0.0,0.0,0.0,0.0,0.0,0.0,0.0,0.0,0.0,0.0,0.0,0.0,0.0,0.0,0.0,0.0,0.0,0.0,0.0,0.0,0.0,0.0,0.0,0.0,0.0,0.0,0.0,0.0,0.0,0.0,-1.1279,-1.1185,-1.1122,-1.1097,-1.1097,0.0,0.0,0.0,0.0,0.0,0.0,0.0,0.0,0.0,0.0,0.0,0.0,0.0,0.0,0.0,0.0,0.0,0.0,0.0,0.0,0.0,0.0,0.0,0.0,0.0,0.0,0.0,0.0,0.0,0.0,0.0,0.0,0.0,0.0,0.0,0.0,0.0,0.0,0.0,0.0,0.0,0.0,0.0,0.0,0.0,0.0,0.0,0.0,0.0,0.0,0.0,0.0,0.0,0.0,0.0,0.0,0.0,0.0,0.0,0.0,0.0,0.0,0.0,0.0,0.0,0.0,0.0,0.0,0.0,0.0,0.0,0.0,0.0,0.0,0.0,0.0,0.0,0.0,0.0,0.0,0.0,0.0,0.0,0.0,0.0,0.0,0.0,0.0,0.0,0.0,0.0,0.0,0.0,0.0,0.0,0.0,0.0,0.0,0.0,0.0,0.0,0.0,0.0,0.0,0.0,0.0,0.0,0.0,0.0,0.0,0.0,0.0,-1.1003,-1.0972,-1.0972,0.0,0.0,0.0,0.0,0.0,0.0,0.0,0.0,0.0,0.0,0.0,0.0,0.0,0.0,0.0,0.0,0.0,0.0,0.0,0.0,0.0,0.0,0.0,0.0,0.0,0.0,0.0,0.0,0.0,0.0,0.0,0.0,0.0,0.0,0.0,0.0,0.0,0.0,0.0,0.0,0.0,0.0,0.0,0.0,0.0,0.0,0.0,0.0,0.0,0.0,0.0,0.0,0.0,0.0,0.0,0.0,0.0,0.0,0.0,0.0,0.0,0.0,0.0,0.0,0.0,0.0,0.0,0.0,0.0,0.0,0.0,0.0,0.0,0.0,0.0,0.0,0.0,0.0,0.0,0.0,0.0,0.0,0.0,0.0,0.0,0.0,0.0,0.0,0.0,0.0,0.0,0.0,0.0,0.0,0.0,0.0,0.0,0.0,0.0,0.0,0.0,0.0,0.0,0.0,0.0,0.0,0.0,0.0,0.0,0.0,-1.0839,-1.0839,-1.0713,0.0,-1.0656,0.0,0.0,0.0,0.0,0.0,0.0,0.0,0.0,0.0,0.0,0.0,0.0,0.0,0.0,0.0,0.0,0.0,0.0,0.0,0.0,0.0,0.0,0.0,0.0,0.0,0.0,0.0,0.0,0.0,0.0,0.0,0.0,0.0,0.0,0.0,0.0,0.0,0.0,0.0,0.0,0.0,0.0,0.0,0.0,0.0,0.0,0.0,0.0,0.0,0.0,0.0,0.0,0.0,0.0,0.0,0.0,0.0,0.0,0.0,0.0,0.0,0.0,0.0,0.0,0.0,0.0,0.0,0.0,0.0,0.0,0.0,0.0,0.0,0.0,0.0,0.0,0.0,0.0,0.0,0.0,0.0,0.0,0.0,0.0,0.0,0.0,0.0,0.0,0.0,0.0,0.0,0.0,0.0,0.0,0.0,0.0,0.0,0.0,0.0,0.0,0.0,0.0,0.0,0.0,0.0,0.0,0.0,0.0,0.0,0.0,-1.0688,-1.0681,-1.0624,-1.0586,0.0,0.0,0.0,0.0,0.0,0.0,0.0,0.0,0.0,0.0,0.0,0.0,0.0,0.0,0.0,0.0,0.0,0.0,0.0,0.0,0.0,0.0,0.0,0.0,0.0,0.0,0.0,0.0,0.0,0.0,0.0,0.0,0.0,0.0,0.0,0.0,0.0,0.0,0.0,0.0,0.0,0.0,0.0,0.0,0.0,0.0,0.0,0.0,0.0,0.0,0.0,0.0,0.0,0.0,0.0,0.0,0.0,0.0,0.0,0.0,0.0,0.0,0.0,0.0,0.0,0.0,0.0,0.0,0.0,0.0,0.0,0.0,0.0,0.0,0.0,0.0,0.0,0.0,0.0,0.0,0.0,0.0,0.0,0.0,0.0,0.0,0.0,0.0,0.0,0.0,0.0,0.0,0.0,0.0,0.0,0.0,0.0,0.0,0.0,0.0,0.0,0.0,0.0,0.0,0.0,0.0,0.0,0.0,0.0,0.0,-1.0586,-1.0586,-1.0586,-1.0586,-1.0586,-1.0586,0.0,0.0,0.0,0.0,0.0,0.0,0.0,0.0,0.0,0.0,0.0,0.0,0.0,0.0,0.0,0.0,0.0,0.0,0.0,0.0,0.0,0.0,0.0,0.0,0.0,0.0,0.0,0.0,0.0,0.0,0.0,0.0,0.0,0.0,0.0,0.0,0.0,0.0,0.0,0.0,0.0,0.0,0.0,0.0,0.0,0.0,0.0,0.0,0.0,0.0,0.0,0.0,0.0,0.0,0.0,0.0,0.0,0.0,0.0,0.0,0.0,0.0,0.0,0.0,0.0,0.0,0.0,0.0,0.0,0.0,0.0,0.0,0.0,0.0,0.0,0.0,0.0,0.0,0.0,0.0,0.0,0.0,0.0,0.0,0.0,0.0,0.0,0.0,0.0,0.0,0.0,0.0,0.0,0.0,0.0,0.0,0.0,0.0,0.0,0.0,0.0,0.0,0.0,0.0,0.0,0.0,0.0,0.0,-1.0586,-1.0586,-1.0586,-1.0586,-1.0586,-1.0586,0.0,0.0,0.0,0.0,0.0,0.0,0.0,0.0,0.0,0.0,0.0,0.0,0.0,0.0,0.0,0.0,0.0,0.0,0.0,0.0,0.0,0.0,0.0,0.0,0.0,0.0,0.0,0.0,0.0,0.0,0.0,0.0,0.0,0.0,0.0,0.0,0.0,0.0,0.0,0.0,0.0,0.0,0.0,0.0,0.0,0.0,0.0,0.0,0.0,0.0,0.0,0.0,0.0,0.0,0.0,0.0,0.0,0.0,0.0,0.0,0.0,0.0,0.0,0.0,0.0,0.0,0.0,0.0,0.0,0.0,0.0,0.0,0.0,0.0,0.0,0.0,0.0,0.0,0.0,0.0,0.0,0.0,0.0,0.0,0.0,0.0,0.0,0.0,0.0,0.0,0.0,0.0,0.0,0.0,0.0,0.0,0.0,0.0,0.0,0.0,0.0,0.0,0.0,0.0,0.0,0.0,0.0,0.0,0.0,-1.0586,-1.0586,-1.0586,-1.0586,-1.0586,-1.0586,0.0,0.0,0.0,0.0,0.0,0.0,0.0,0.0,0.0,0.0,0.0,0.0,0.0,0.0,0.0,0.0,0.0,0.0,0.0,0.0,0.0,0.0,0.0,0.0,0.0,0.0,0.0,0.0,0.0,0.0,0.0,0.0,0.0,0.0,0.0,0.0,0.0,0.0,0.0,0.0,0.0,0.0,0.0,0.0,0.0,0.0,0.0,0.0,0.0,0.0,0.0,0.0,0.0,0.0,0.0,0.0,0.0,0.0,0.0,0.0,0.0,0.0,0.0,0.0,0.0,0.0,0.0,0.0,0.0,0.0,0.0,0.0,0.0,0.0,0.0,0.0,0.0,0.0,0.0,0.0,0.0,0.0,0.0,0.0,0.0,0.0,0.0,0.0,0.0,0.0,0.0,0.0,0.0,0.0,0.0,0.0,0.0,0.0,0.0,0.0,0.0,0.0,0.0,0.0,0.0,0.0,0.0,0.0,0.0,-1.0586,0.0,-1.0586,-1.0586,-1.0586,-1.0586,0.0,0.0,0.0,0.0,0.0,0.0,0.0,0.0,0.0,0.0,0.0,0.0,0.0,0.0,0.0,0.0,0.0,0.0,0.0,0.0,0.0,0.0,0.0,0.0,0.0,0.0,0.0,0.0,0.0,0.0,0.0,0.0,0.0,0.0,0.0,0.0,0.0,0.0,0.0,0.0,0.0,0.0,0.0,0.0,0.0,0.0,0.0,0.0,0.0,0.0,0.0,0.0,0.0,0.0,0.0,0.0,0.0,0.0,0.0,0.0,0.0,0.0,0.0,0.0,0.0,0.0,0.0,0.0,0.0,0.0,0.0,0.0,0.0,0.0,0.0,0.0,0.0,0.0,0.0,0.0,0.0,0.0,0.0,0.0,0.0,0.0,0.0,0.0,0.0,0.0,0.0,0.0,0.0,0.0,0.0,0.0,0.0,0.0,0.0,0.0,0.0,0.0,0.0,0.0,0.0,0.0,0.0,0.0,-1.0586,-1.0586,-1.0586,-1.0586,-1.0586,-1.0586,-1.0586,0.0,0.0,0.0,0.0,0.0,0.0,0.0,0.0,0.0,0.0,0.0,0.0,0.0,0.0,0.0,0.0,0.0,0.0,0.0,0.0,0.0,0.0,0.0,0.0,0.0,0.0,0.0,0.0,0.0,0.0,0.0,0.0,0.0,0.0,0.0,0.0,0.0,0.0,0.0,0.0,0.0,0.0,0.0,0.0,0.0,0.0,0.0,0.0,0.0,0.0,0.0,0.0,0.0,0.0,0.0,0.0,0.0,0.0,0.0,0.0,0.0,0.0,0.0,0.0,0.0,0.0,0.0,0.0,0.0,0.0,0.0,0.0,0.0,0.0,0.0,0.0,0.0,0.0,0.0,0.0,0.0,0.0,0.0,0.0,0.0,0.0,0.0,0.0,0.0,0.0,0.0,0.0,0.0,0.0,0.0,0.0,0.0,0.0,0.0,0.0,0.0,0.0,0.0,0.0,0.0,0.0,0.0,0.0,0.0,-1.0586,-1.0586,-1.0586,-1.0586,-1.0586,-1.0586,0.0,0.0,0.0,0.0,0.0,0.0,0.0,0.0,0.0,0.0,0.0,0.0,0.0,0.0,0.0,0.0,0.0,0.0,0.0,0.0,0.0,0.0,0.0,0.0,0.0,0.0,0.0,0.0,0.0,0.0,0.0,0.0,0.0,0.0,0.0,0.0,0.0,0.0,0.0,0.0,0.0,0.0,0.0,0.0,0.0,0.0,0.0,0.0,0.0,0.0,0.0,0.0,0.0,0.0,0.0,0.0,0.0,0.0,0.0,0.0,0.0,0.0,0.0,0.0,0.0,0.0,0.0,0.0,0.0,0.0,0.0,0.0,0.0,0.0,0.0,0.0,0.0,0.0,0.0,0.0,0.0,0.0,0.0,0.0,0.0,0.0,0.0,0.0,0.0,0.0,0.0,0.0,0.0,0.0,0.0,0.0,0.0,0.0,0.0,0.0,0.0,0.0,0.0,0.0,0.0,0.0,0.0,0.0,0.0,-1.0681,-1.0624,-1.0586,-1.0586,-1.0586,-1.0586,-1.0586,0.0,0.0,0.0,0.0,0.0,0.0,0.0,0.0,0.0,0.0,0.0,0.0,0.0,0.0,0.0,0.0,0.0,0.0,0.0,0.0,0.0,0.0,0.0,0.0,0.0,0.0,0.0,0.0,0.0,0.0,0.0,0.0,0.0,0.0,0.0,0.0,0.0,0.0,0.0,0.0,0.0,0.0,0.0,0.0,0.0,0.0,0.0,0.0,0.0,0.0,0.0,0.0,0.0,0.0,0.0,0.0,0.0,0.0,0.0,0.0,0.0,0.0,0.0,0.0,0.0,0.0,0.0,0.0,0.0,0.0,0.0,0.0,0.0,0.0,0.0,0.0,0.0,0.0,0.0,0.0,0.0,0.0,0.0,0.0,0.0,0.0,0.0,0.0,0.0,0.0,0.0,0.0,0.0,0.0,0.0,0.0,0.0,0.0,0.0,0.0,0.0,0.0,0.0,0.0,0.0,0.0,0.0,0.0,-1.0807,-1.0681,-1.0624,-1.0586,-1.0586,-1.0586,0.0,0.0,0.0,0.0,0.0,0.0,0.0,0.0,0.0,0.0,0.0,0.0,0.0,0.0,0.0,0.0,0.0,0.0,0.0,0.0,0.0,0.0,0.0,0.0,0.0,0.0,0.0,0.0,0.0,0.0,0.0,0.0,0.0,0.0,0.0,0.0,0.0,0.0,0.0,0.0,0.0,0.0,0.0,0.0,0.0,0.0,0.0,0.0,0.0,0.0,0.0,0.0,0.0,0.0,0.0,0.0,0.0,0.0,0.0,0.0,0.0,0.0,0.0,0.0,0.0,0.0,0.0,0.0,0.0,0.0,0.0,0.0,0.0,0.0,0.0,0.0,0.0,0.0,0.0,0.0,0.0,0.0,0.0,0.0,0.0,0.0,0.0,0.0,0.0,0.0,0.0,0.0,0.0,0.0,0.0,0.0,0.0,0.0,0.0,0.0,0.0,0.0,0.0,0.0,0.0,0.0,0.0,0.0,0.0,-1.0996,-1.0839,-1.0719,-1.0593,-1.0586,-1.0586,0.0,0.0,0.0,0.0,0.0,0.0,0.0,0.0,0.0,0.0,0.0,0.0,0.0,0.0,0.0,0.0,0.0,0.0,0.0,0.0,0.0,0.0,0.0,0.0,0.0,0.0,0.0,0.0,0.0,0.0,0.0,0.0,0.0,0.0,0.0,0.0,0.0,0.0,0.0,0.0,0.0,0.0,0.0,0.0,0.0,0.0,0.0,0.0,0.0,0.0,0.0,0.0,0.0,0.0,0.0,0.0,0.0,0.0,0.0,0.0,0.0,0.0,0.0,0.0,0.0,0.0,0.0,0.0,0.0,0.0,0.0,0.0,0.0,0.0,0.0,0.0,0.0,0.0,0.0,0.0,0.0,0.0,0.0,0.0,0.0,0.0,0.0,0.0,0.0,0.0,0.0,0.0,0.0,0.0,0.0,0.0,0.0,0.0,0.0,0.0,0.0,0.0,0.0,0.0,0.0,0.0,0.0,0.0,-1.1435,-1.131,-1.1216,-1.0996,-1.0681,-1.0624,-1.0586,0.0,0.0,0.0,0.0,0.0,0.0,0.0,0.0,0.0,0.0,0.0,0.0,0.0,0.0,0.0,0.0,0.0,0.0,0.0,0.0,0.0,0.0,0.0,0.0,0.0,0.0,0.0,0.0,0.0,0.0,0.0,0.0,0.0,0.0,0.0,0.0,0.0,0.0,0.0,0.0,0.0,0.0,0.0,0.0,0.0,0.0,0.0,0.0,0.0,0.0,0.0,0.0,0.0,0.0,0.0,0.0,0.0,0.0,0.0,0.0,0.0,0.0,0.0,0.0,0.0,0.0,0.0,0.0,0.0,0.0,0.0,0.0,0.0,0.0,0.0,0.0,0.0,0.0,0.0,0.0,0.0,0.0,0.0,0.0,0.0,0.0,0.0,0.0,0.0,0.0,0.0,0.0,0.0,0.0,0.0,0.0,0.0,0.0,0.0,0.0,0.0,0.0,0.0,0.0,0.0,0.0,0.0,0.0,-1.1925,-1.1643,-1.1643,-1.1406,-1.0928,-1.0746,-1.0624,0.0,0.0,0.0,0.0,0.0,0.0,0.0,0.0,0.0,0.0,0.0,0.0,0.0,0.0,0.0,0.0,0.0,0.0,0.0,0.0,0.0,0.0,0.0,0.0,0.0,0.0,0.0,0.0,0.0,0.0,0.0,0.0,0.0,0.0,0.0,0.0,0.0,0.0,0.0,0.0,0.0,0.0,0.0,0.0,0.0,0.0,0.0,0.0,0.0,0.0,0.0,0.0,0.0,0.0,0.0,0.0,0.0,0.0,0.0,0.0,0.0,0.0,0.0,0.0,0.0,0.0,0.0,0.0,0.0,0.0,0.0,0.0,0.0,0.0,0.0,0.0,0.0,0.0,0.0,0.0,0.0,0.0,0.0,0.0,0.0,0.0,0.0,0.0,0.0,0.0,0.0,0.0,0.0,0.0,0.0,0.0,0.0,0.0,0.0,0.0,0.0,0.0,0.0,0.0,0.0,0.0,0.0,0.0,-1.1779,-1.1926,-1.1804,-1.1771,-1.1746,-1.1086,-1.0713,0.0,0.0,0.0,0.0,0.0,0.0,0.0,0.0,0.0,0.0,0.0,0.0,0.0,0.0,0.0,0.0,0.0,0.0,0.0,0.0,0.0,0.0,0.0,0.0,0.0,0.0,0.0,0.0,0.0,0.0,0.0,0.0,0.0,0.0,0.0,0.0,0.0,0.0,0.0,0.0,0.0,0.0,0.0,0.0,0.0,0.0,0.0,0.0,-0.4528,0.0,0.0,0.0,0.0,0.0,0.0,0.0,0.0,0.0,0.0,0.0,0.0,0.0,0.0,0.0,0.0,0.0,0.0,0.0,0.0,0.0,0.0,0.0,0.0,0.0,0.0,0.0,0.0,0.0,0.0,0.0,0.0,0.0,0.0,0.0,0.0,0.0,0.0,0.0,0.0,0.0,0.0,0.0,0.0,0.0,0.0,0.0,0.0,0.0,0.0,0.0,0.0,0.0,0.0,0.0,0.0,0.0,0.0,0.0,-1.242,-1.2494,-1.2237,-1.2083,-1.1996,-1.1488,-1.1098,0.0,0.0,0.0,0.0,0.0,0.0,0.0,0.0,0.0,0.0,0.0,0.0,0.0,0.0,0.0,0.0,0.0,0.0,0.0,0.0,0.0,0.0,0.0,0.0,0.0,0.0,0.0,0.0,0.0,0.0,0.0,0.0,0.0,0.0,0.0,0.0,0.0,0.0,0.0,0.0,0.0,0.0,0.0,0.0,0.0,0.0,0.0,0.0,0.0,0.0,0.0,0.0,0.0,0.0,0.0,0.0,0.0,0.0,0.0,0.0,0.0,0.0,0.0,0.0,0.0,0.0,0.0,0.0,0.0,0.0,0.0,0.0,0.0,0.0,0.0,0.0,0.0,0.0,0.0,0.0,0.0,0.0,0.0,0.0,0.0,0.0,0.0,0.0,0.0,0.0,0.0,0.0,0.0,0.0,0.0,0.0,0.0,0.0,0.0,0.0,0.0,0.0,0.0,0.0,0.0,0.0,0.0,-1.3444,-1.3238,-1.319,-1.2803,-1.2485,-1.2185,-1.1937,-1.1587,-1.1102,0.0,0.0,0.0,0.0,0.0,0.0,0.0,0.0,0.0,0.0,0.0,0.0,0.0,0.0,0.0,0.0,0.0,0.0,0.0,0.0,0.0,0.0,0.0,0.0,0.0,0.0,0.0,0.0,0.0,0.0,0.0,0.0,0.0,0.0,0.0,0.0,0.0,0.0,-0.5395,-0.5395,0.0,0.0,0.0,0.0,0.0,0.0,0.0,0.0,-0.4625,0.0,0.0,0.0,0.0,0.0,0.0,0.0,0.0,0.0,0.0,0.0,0.0,0.0,0.0,0.0,0.0,0.0,0.0,0.0,0.0,0.0,0.0,0.0,0.0,0.0,0.0,0.0,0.0,0.0,0.0,0.0,0.0,0.0,0.0,0.0,0.0,0.0,0.0,0.0,0.0,0.0,0.0,0.0,0.0,0.0,0.0,0.0,0.0,0.0,0.0,0.0,0.0,0.0,0.0,0.0,0.0,-1.3646,-1.3316,-1.3252,-1.35,-1.3292,-1.3095,-1.2985,-1.243,-1.1918,-1.1506,0.0,0.0,0.0,0.0,0.0,0.0,0.0,0.0,0.0,0.0,0.0,0.0,0.0,0.0,0.0,0.0,0.0,0.0,0.0,0.0,0.0,0.0,0.0,0.0,0.0,0.0,0.0,0.0,0.0,0.0,0.0,0.0,0.0,0.0,0.0,0.0,0.0,0.0,0.0,-0.5395,-0.5395,0.0,0.0,0.0,0.0,0.0,0.0,0.0,0.0,-0.4264,0.0,0.0,0.0,0.0,0.0,0.0,0.0,0.0,0.0,0.0,0.0,0.0,0.0,0.0,0.0,0.0,0.0,0.0,0.0,0.0,0.0,0.0,0.0,0.0,0.0,0.0,0.0,0.0,0.0,0.0,0.0,0.0,0.0,0.0,0.0,0.0,0.0,0.0,0.0,0.0,0.0,0.0,0.0,0.0,0.0,0.0,0.0,0.0,0.0,0.0,0.0,0.0,0.0,0.0,0.0,-1.4112,-1.3878,-1.3851,-1.4006,-1.3622,-1.341,-1.3331,-1.2753,-1.2315,0.0,0.0,0.0,0.0,0.0,0.0,0.0,0.0,0.0,0.0,0.0,0.0,0.0,0.0,0.0,0.0,0.0,0.0,0.0,0.0,0.0,0.0,0.0,0.0,0.0,0.0,0.0,0.0,0.0,0.0,0.0,0.0,0.0,0.0,0.0,0.0,0.0,0.0,0.0,0.0,-0.5326,-0.5292,-0.5395,0.0,0.0,0.0,0.0,0.0,0.0,-0.49,-0.4583,0.0,0.0,0.0,0.0,0.0,0.0,0.0,0.0,0.0,0.0,0.0,0.0,0.0,0.0,0.0,0.0,0.0,0.0,0.0,0.0,0.0,0.0,0.0,0.0,0.0,0.0,0.0,0.0,0.0,0.0,0.0,0.0,0.0,0.0,0.0,0.0,0.0,0.0,0.0,0.0,0.0,0.0,0.0,0.0,0.0,0.0,0.0,0.0,0.0,0.0,0.0,0.0,0.0,0.0,0.0,-1.4641,-1.4569,-1.4569,-1.4533,-1.3992,-1.3674,-1.3601,-1.3039,-1.2673,0.0,0.0,0.0,0.0,0.0,0.0,0.0,0.0,0.0,0.0,0.0,0.0,0.0,0.0,0.0,0.0,0.0,0.0,0.0,0.0,0.0,0.0,0.0,0.0,0.0,0.0,0.0,0.0,0.0,0.0,0.0,0.0,0.0,0.0,0.0,0.0,0.0,0.0,0.0,0.0,0.0,-0.51,-0.5302,-0.5169,0.0,0.0,0.0,0.0,-0.5297,-0.5107,0.0,0.0,0.0,0.0,0.0,0.0,0.0,0.0,0.0,0.0,0.0,0.0,0.0,0.0,0.0,0.0,0.0,0.0,0.0,0.0,0.0,0.0,0.0,0.0,0.0,0.0,0.0,0.0,0.0,0.0,0.0,0.0,0.0,0.0,0.0,0.0,0.0,0.0,0.0,0.0,0.0,0.0,0.0,0.0,0.0,0.0,0.0,0.0,0.0,0.0,0.0,0.0,0.0,0.0,0.0,0.0,-1.4864,-1.5026,-1.5098,-1.5098,-1.4713,-1.4353,-1.4021,-1.3448,-1.29,0.0,0.0,0.0,0.0,0.0,0.0,0.0,0.0,0.0,0.0,0.0,0.0,0.0,0.0,0.0,0.0,0.0,0.0,0.0,0.0,0.0,0.0,0.0,0.0,0.0,0.0,0.0,0.0,0.0,0.0,0.0,0.0,0.0,0.0,0.0,0.0,0.0,0.0,0.0,0.0,0.0,-0.4873,-0.503,-0.5011,-0.505,0.0,0.0,-0.5221,-0.5236,-0.503,0.0,0.0,0.0,0.0,0.0,0.0,0.0,0.0,0.0,0.0,0.0,0.0,0.0,0.0,0.0,0.0,0.0,0.0,0.0,0.0,0.0,0.0,0.0,0.0,0.0,0.0,0.0,0.0,0.0,0.0,0.0,0.0,0.0,0.0,0.0,0.0,0.0,0.0,0.0,0.0,0.0,0.0,0.0,0.0,0.0,0.0,0.0,0.0,0.0,0.0,0.0,0.0,0.0,0.0,0.0,-1.5284,-1.507,-1.5169,-1.5196,-1.5169,-1.4812,-1.4533,-1.4389,-1.3746,-1.3236,0.0,0.0,0.0,0.0,0.0,0.0,0.0,0.0,0.0,0.0,0.0,0.0,0.0,0.0,0.0,0.0,0.0,0.0,0.0,0.0,0.0,0.0,0.0,0.0,0.0,0.0,0.0,0.0,0.0,0.0,0.0,0.0,0.0,0.0,0.0,0.0,0.0,0.0,0.0,0.0,0.0,0.0,-0.5098,-0.5006,0.0,0.0,0.0,-0.5216,-0.5295,0.0,0.0,0.0,0.0,0.0,0.0,0.0,0.0,0.0,0.0,0.0,0.0,0.0,0.0,0.0,0.0,0.0,0.0,0.0,0.0,0.0,0.0,0.0,0.0,0.0,0.0,0.0,0.0,0.0,0.0,0.0,0.0,0.0,0.0,0.0,0.0,0.0,0.0,0.0,0.0,0.0,0.0,0.0,0.0,0.0,0.0,0.0,0.0,0.0,0.0,0.0,0.0,0.0,0.0,0.0,0.0,0.0,-1.5275,-1.5319,-1.5346,-1.5355,-1.4999,-1.4792,-1.4677,-1.4101,0.0,0.0,0.0,0.0,0.0,0.0,0.0,0.0,0.0,0.0,0.0,0.0,0.0,0.0,0.0,0.0,0.0,0.0,0.0,0.0,0.0,0.0,0.0,0.0,0.0,0.0,0.0,-0.5458,0.0,0.0,0.0,0.0,0.0,0.0,0.0,0.0,0.0,0.0,0.0,0.0,0.0,0.0,-0.5168,-0.5165,-0.5025,-0.4927,0.0,0.0,-0.518,-0.5281,-0.5176,-0.5094,0.0,0.0,0.0,0.0,0.0,0.0,0.0,0.0,0.0,0.0,0.0,0.0,0.0,0.0,0.0,0.0,0.0,0.0,0.0,0.0,0.0,0.0,0.0,0.0,0.0,0.0,0.0,0.0,0.0,0.0,0.0,0.0,0.0,0.0,0.0,0.0,0.0,0.0,0.0,0.0,0.0,0.0,0.0,0.0,0.0,0.0,0.0,0.0,0.0,0.0,0.0,0.0,0.0,0.0,0.0,-1.5505,-1.5655,-1.577,-1.5761,-1.5541,-1.5256,-1.4908,-1.4649,-1.4209,0.0,0.0,0.0,0.0,0.0,0.0,0.0,0.0,0.0,0.0,0.0,0.0,0.0,0.0,0.0,0.0,0.0,0.0,0.0,0.0,0.0,0.0,0.0,0.0,0.0,0.0,0.0,0.0,0.0,0.0,0.0,0.0,0.0,0.0,0.0,0.0,0.0,0.0,0.0,0.0,0.0,-0.5028,-0.5098,-0.4932,-0.4863,0.0,0.0,-0.5032,-0.5004,-0.5046,-0.4927,-0.4779,0.0,0.0,0.0,0.0,0.0,0.0,0.0,0.0,0.0,0.0,0.0,0.0,0.0,0.0,0.0,0.0,0.0,0.0,0.0,0.0,0.0,0.0,0.0,0.0,0.0,0.0,0.0,0.0,0.0,0.0,0.0,0.0,0.0,0.0,0.0,0.0,0.0,0.0,0.0,0.0,0.0,0.0,0.0,0.0,0.0,0.0,0.0,0.0,0.0,0.0,0.0,0.0,0.0,-1.5894,-1.5691,-1.5761,-1.5805,-1.5805,-1.562,-1.5426,-1.5256,-1.4927,-1.4605,0.0,0.0,0.0,0.0,0.0,0.0,0.0,0.0,0.0,0.0,0.0,0.0,0.0,0.0,0.0,0.0,0.0,0.0,0.0,0.0,0.0,0.0,0.0,0.0,0.0,0.0,0.0,0.0,-0.5428,-0.5463,-0.5688,0.0,0.0,0.0,0.0,0.0,0.0,0.0,0.0,0.0,0.0,-0.5759,-0.5617,-0.552,0.0,0.0,-0.5679,-0.5682,-0.5682,-0.556,-0.5401,-0.5317,-0.5111,0.0,0.0,0.0,0.0,0.0,0.0,0.0,0.0,0.0,0.0,0.0,0.0,0.0,0.0,0.0,0.0,0.0,0.0,0.0,0.0,0.0,0.0,0.0,0.0,0.0,0.0,0.0,0.0,0.0,0.0,0.0,0.0,0.0,0.0,0.0,0.0,0.0,0.0,0.0,0.0,0.0,0.0,0.0,0.0,0.0,0.0,0.0,0.0,0.0,0.0,0.0,0.0,-1.614,-1.5903,-1.5894,-1.5867,-1.5805,-1.5655,-1.5576,-1.5505,-1.5221,-1.4935,0.0,0.0,0.0,0.0,0.0,0.0,0.0,0.0,0.0,0.0,0.0,0.0,0.0,0.0,0.0,0.0,0.0,0.0,0.0,0.0,0.0,0.0,0.0,0.0,0.0,0.0,0.0,0.0,-0.5633,-0.5741,-0.5955,0.0,0.0,0.0,0.0,0.0,0.0,0.0,0.0,0.0,0.0,-0.628,-0.6021,-0.5991,-0.5968,-0.6105,-0.6117,-0.6117,-0.6117,-0.5954,-0.5832,-0.5832,0.0,0.0,0.0,0.0,0.0,0.0,0.0,0.0,0.0,0.0,0.0,0.0,0.0,0.0,0.0,0.0,0.0,0.0,0.0,0.0,0.0,0.0,0.0,0.0,0.0,0.0,0.0,0.0,0.0,0.0,-2.0107,0.0,0.0,0.0,0.0,0.0,0.0,0.0,0.0,0.0,0.0,0.0,0.0,0.0,0.0,0.0,0.0,0.0,0.0,0.0,0.0,0.0,0.0,-1.6456,-1.6105,-1.614,-1.6017,-1.5822,-1.5814,-1.5716,-1.5522,-1.5513,-1.53,-1.4916,0.0,0.0,0.0,0.0,0.0,0.0,0.0,0.0,0.0,0.0,0.0,0.0,0.0,0.0,0.0,0.0,0.0,0.0,0.0,0.0,0.0,0.0,0.0,0.0,0.0,0.0,-0.618,-0.6173,-0.618,0.0,0.0,0.0,0.0,0.0,0.0,0.0,0.0,0.0,0.0,-0.6534,-0.6431,-0.6244,-0.6157,-0.6121,-0.6127,-0.6124,-0.6124,-0.6127,-0.6127,-0.6079,0.0,0.0,0.0,0.0,0.0,0.0,0.0,0.0,0.0,0.0,0.0,0.0,0.0,0.0,0.0,0.0,0.0,0.0,0.0,0.0,0.0,0.0,0.0,0.0,0.0,0.0,0.0,-2.1545,-2.142,0.0,0.0,0.0,0.0,0.0,0.0,0.0,0.0,0.0,0.0,0.0,-2.0031,-1.9901,0.0,0.0,0.0,0.0,0.0,0.0,0.0,0.0,0.0,0.0,0.0,0.0,-1.736,-1.6856,-1.682,-1.6755,-1.6542,-1.655,-1.6505,-1.6431,-1.6431,-1.6127,-1.5527,0.0,0.0,0.0,0.0,0.0,0.0,0.0,0.0,0.0,0.0,0.0,0.0,0.0,0.0,0.0,0.0,0.0,0.0,0.0,0.0,0.0,0.0,0.0,0.0,0.0,-0.6632,0.0,0.0,0.0,0.0,0.0,0.0,0.0,0.0,0.0,0.0,0.0,-0.7649,-0.7415,-0.7402,-0.7317,-0.7159,-0.7109,-0.7133,0.0,0.0,0.0,0.0,0.0,0.0,0.0,0.0,0.0,0.0,0.0,0.0,0.0,0.0,-0.5431,-0.4838,-0.4659,-0.4576,-0.4576,0.0,0.0,0.0,0.0,0.0,0.0,0.0,0.0,0.0,0.0,0.0,0.0,0.0,0.0,-2.2889,0.0,-2.2638,0.0,0.0,0.0,0.0,0.0,0.0,0.0,0.0,-2.2041,-2.1696,-2.1402,-2.1205,-2.104,0.0,-2.0764,-2.0363,0.0,0.0,0.0,0.0,0.0,0.0,0.0,0.0,-1.8249,-1.7662,-1.7578,-1.7391,-1.7128,-1.7023,-1.6994,-1.6918,-1.6918,-1.6648,-1.6105,-1.5381,-1.4787,0.0,0.0,0.0,0.0,0.0,0.0,0.0,0.0,0.0,0.0,0.0,0.0,0.0,0.0,0.0,0.0,0.0,0.0,0.0,0.0,0.0,0.0,0.0,-0.7095,0.0,0.0,0.0,0.0,0.0,0.0,0.0,0.0,0.0,-0.8217,-0.8274,-0.8247,-0.8018,-0.8063,-0.8024,-0.787,0.0,0.0,0.0,0.0,0.0,0.0,0.0,-0.7656,-0.7566,-0.724,-0.6891,-0.6574,-0.6456,-0.6369,-0.6275,0.0,0.0,-0.5323,-0.5182,-0.5182,-0.5182,-0.5092,-0.5049,-0.5049,-0.5063,-0.5069,0.0,0.0,0.0,0.0,0.0,0.0,0.0,0.0,-2.462,-2.4424,0.0,-2.4327,0.0,0.0,0.0,0.0,0.0,-2.4333,0.0,0.0,-2.4087,-2.3824,-2.3313,-2.309,-2.2821,-2.2526,-2.2263,-2.1998,-2.1581,-2.0642,0.0,0.0,0.0,0.0,0.0,0.0,-1.908,-1.8555,-1.8313,-1.7988,-1.7568,-1.736,-1.7142,-1.697,-1.6915,-1.683,-1.6607,-1.6121,-1.5626,-1.5231,-1.4564,0.0,0.0,0.0,0.0,0.0,0.0,0.0,0.0,0.0,0.0,0.0,0.0,0.0,0.0,0.0,0.0,0.0,0.0,0.0,0.0,-0.7834,0.0,0.0,0.0,0.0,0.0,0.0,0.0,0.0,0.0,0.0,-0.8516,-0.862,-0.866,-0.848,0.0,0.0,0.0,0.0,-0.8709,-0.8943,-0.8968,-0.9026,-0.9237,-0.9033,-0.8753,-0.8477,0.0,0.0,-0.7042,-0.6951,-0.6815,-0.657,-0.6531,-0.6422,-0.6186,-0.6064,-0.6062,-0.6064,-0.5863,-0.5693,-0.5695,-0.5568,-0.5492,-2.7416,0.0,0.0,0.0,0.0,-2.518,-2.509,-2.4937,-2.5103,-2.5078,-2.483,-2.4912,0.0,0.0,0.0,0.0,0.0,0.0,-2.524,-2.5137,-2.4665,-2.4284,-2.4022,-2.3725,-2.3382,-2.299,-2.2685,-2.2524,-2.2428,-2.2072,-2.1611,-2.1053,0.0,0.0,0.0,0.0,-2.0185,-1.9736,-1.9505,-1.9263,-1.9012,-1.8542,-1.8079,-1.7675,-1.7458,-1.7312,-1.7226,-1.6678,-1.625,-1.597,-1.5503,0.0,0.0,0.0,0.0,0.0,0.0,0.0,0.0,0.0,0.0,0.0,0.0,0.0,0.0,0.0,0.0,0.0,0.0,0.0,-0.8802,-0.8374,-0.8155,0.0,0.0,0.0,0.0,0.0,0.0,0.0,0.0,0.0,-0.9732,-0.9548,-0.9448,0.0,0.0,-0.962,-0.9728,-0.9771,-0.988,-1.0141,-1.0214,0.0,-1.0241,-0.9879,-0.9554,-0.9465,-0.8808,-0.8161,-0.7746,-0.7517,-0.7315,-0.7073,-0.6975,-0.6975,-0.6868,-0.6438,-0.6147,-0.6086,-0.6039,-0.5989,-0.5989,-0.5944,-0.59,-2.9944,-2.8298,-2.7696,-2.7209,-2.6886,-2.6886,-2.6743,-2.655,-2.6782,-2.6756,-2.655,-2.6683,-2.6786,-2.6753,-2.6686,0.0,0.0,0.0,-2.7037,-2.6909,-2.6523,-2.619,-2.5906,-2.5564,-2.5208,-2.4824,-2.4437,-2.416,-2.3948,-2.3875,-2.342,-2.2622,0.0,0.0,-2.1425,-2.129,-2.1021,-2.0605,-2.0411,-2.0216,-2.0001,-1.9311,-1.8683,-1.8193,-1.7977,-1.7816,-1.7689,-1.7213,-1.6864,-1.6663,-1.6253,-1.5827,0.0,0.0,0.0,0.0,0.0,0.0,0.0,0.0,0.0,0.0,0.0,-1.0962,-1.0743,0.0,0.0,0.0,-0.9997,-0.9695,-0.9273,-0.9008,0.0,0.0,0.0,0.0,0.0,0.0,0.0,-0.9875,-1.0065,-1.0229,-1.0536,-1.0449,-1.0357,-1.0376,-1.0401,-1.0493,-1.07,0.0,-1.0822,-1.1047,-1.1081,-1.1106,-1.1189,-1.0939,-1.0635,-1.0431,-0.9887,-0.9295,-0.895,-0.8671,-0.8414,-0.8157,-0.8004,-0.7855,-0.7601,-0.7163,-0.6773,-0.644,-0.6372,-0.6372,-0.6225,-0.6225,-0.6225,-3.2586,-3.1466,-3.0259,-2.9574,-2.9358,-2.9345,-2.8983,-2.8538,-2.9074,-2.9009,-2.8525,-2.9074,-2.931,-2.9274,-2.931,0.0,-2.9035,-2.919,-2.9177,-2.9035,-2.9035,-2.8808,-2.8448,-2.8035,-2.7656,-2.7335,-2.6923,-2.637,-2.5762,-2.5685,-2.5333,-2.4539,-2.3406,-2.2547,-2.1959,-2.1959,-2.173,-2.1354,-2.1141,-2.0917,-2.0654,-1.9861,-1.9149,-1.8482,-1.8442,-1.8273,-1.8063,-1.7706,-1.7439,-1.7243,-1.6914,-1.6415,-1.5877,0.0,0.0,0.0,0.0,0.0,0.0,0.0,0.0,0.0,0.0,0.0,0.0,0.0,0.0,0.0,-1.0481,0.0,-0.9733,-0.9678,0.0,0.0,0.0,-0.953,-0.9773,-0.9833,-1.0005,-1.0395,0.0,0.0,-1.1093,-1.1278,-1.131,-1.1168,-1.1115,-1.1181,-1.1451,-1.1477,-1.1559,-1.1794,-1.1798,-1.1879,-1.2052,-1.2004,-1.1791,-1.1303,-1.0984,-1.069,-1.0339,-1.0088,-0.9835,-0.9503,-0.9313,-0.8996,-0.8377,-0.8243,-0.7985,-0.7211,-0.6974,-0.6821,-0.6598,-0.6492,-0.6487,-3.4312,-3.3997,-3.3527,-3.2019,-2.9907,-2.9614,-2.943,-2.9324,-2.9315,-2.9231,-2.9078,-2.9222,-2.931,-2.931,-2.931,-2.9274,-2.9239,-2.9274,-2.9274,-2.9226,-2.9239,-2.9119,-2.8856,-2.8448,-2.8048,-2.7656,-2.7124,-2.6612,-2.6206,-2.5862,-2.5438,-2.4943,-2.432,-2.3702,-2.3131,-2.3092,-2.2983,-2.2743,-2.2533,-2.196,-2.1104,-2.0726,-2.0054,-1.9112,-1.8763,-1.8523,-1.8322,-1.8035,-1.7863,-1.7783,-1.7569,-1.7391,-1.7231,-1.6678,0.0,0.0,0.0,0.0,0.0,0.0,0.0,0.0,0.0,-1.2531,-1.1986,0.0,-1.1689,0.0,-1.0887,-1.0625,-1.0513,-1.0417,0.0,0.0,-1.0471,-1.0612,-1.0667,-1.0992,-1.133,-1.157,-1.177,-1.2033,-1.2354,-1.2245,-1.2204,-1.2332,-1.2048,-1.1916,-1.2145,-1.2188,-1.2273,-1.2491,-1.2618,-1.2761,-1.283,-1.2819,-1.2643,-1.2122,-1.1982,-1.1761,-1.1291,-1.1131,-1.0923,-1.0508,-1.0352,-1.0152,-0.9803,-0.9537,-0.9253,-0.8802,-0.8118,-0.7416,-0.7265,-0.7091,-0.6859,-3.6056,-3.5815,-3.5531,-3.4283,-3.2453,-3.1857,-3.1492,-3.1396,-3.1088,-3.0939,-3.0939,-3.0878,-3.0803,-3.0803,-3.0828,-3.0841,-3.0841,-3.0803,-3.079,-3.0803,-3.0803,-3.0753,-3.0641,-3.0327,-2.9884,-2.9303,-2.8795,-2.8212,-2.7621,-2.7183,-2.6623,-2.6041,-2.5579,-2.4984,-2.4259,-2.3747,-2.3386,-2.3194,-2.3062,-2.2646,-2.1859,-2.1687,-2.1078,-1.9925,-1.9586,-1.9173,-1.8692,-1.8451,-1.8241,-1.8193,-1.8072,-1.7902,-1.7691,-1.7343,-1.7009,0.0,0.0,0.0,0.0,0.0,0.0,0.0,0.0,0.0,0.0,0.0,-1.2879,-1.2407,-1.2082,-1.1813,-1.1615,-1.145,-1.1298,-1.1213,-1.134,-1.152,-1.1723,-1.1985,-1.2328,-1.2796,-1.2972,-1.3133,-1.3325,-1.3174,-1.3072,-1.3128,-1.2905,-1.2698,-1.2581,-1.2571,-1.2619,-1.2802,-1.2958,-1.3195,-1.3378,-1.3437,-1.3304,-1.3031,-1.2893,-1.2783,-1.2351,-1.2192,-1.2034,-1.1716,-1.1557,-1.1345,-1.1088,-1.0769,-1.0502,-1.0178,-0.959,-0.8764,-0.7939,-0.7489,-0.7217,-3.7719,-3.7191,-3.6857,-3.6408,-3.5784,-3.4889,-3.4235,-3.3792,-3.3314,-3.3066,-3.3001,-3.2804,-3.2672,-3.2672,-3.2672,-3.2672,-3.2672,-3.2672,-3.2672,-3.2672,-3.2672,-3.2672,-3.2685,-3.25,-3.2002,-3.1316,-3.0909,-3.0184,-2.9214,-2.8818,-2.8118,-2.7226,-2.6723,-2.6113,-2.5295,-2.4238,-2.3604,-2.336,-2.336,-2.3166,-2.2767,-2.2716,-2.2097,-2.0914,-2.0633,-2.0139,-1.9325,-1.907,-1.8803,-1.8633,-1.85,-1.8273,-1.7861,-1.7781,-1.7578,0.0,-1.6935,0.0,0.0,0.0,0.0,0.0,0.0,0.0,0.0,-1.4418,-1.4123,-1.3784,-1.3548,-1.3186,-1.2824,-1.259,-1.2409,-1.2237,-1.2228,-1.2438,-1.2876,-1.2962,-1.329,-1.3986,-1.4132,-1.4153,-1.4244,-1.413,-1.3999,-1.3831,-1.3713,-1.3494,-1.3087,-1.2937,-1.2845,-1.2813,-1.2985,-1.333,-1.3733,-1.3857,-1.3827,-1.375,-1.3717,-1.3699,-1.3452,-1.3192,-1.3029,-1.2975,-1.2738,-1.2476,-1.2219,-1.1937,-1.1655,-1.1326,-1.0933,-1.0185,-0.8804,-0.8076,-0.7721,-3.8561,-3.8458,-3.8385,-3.8164,-3.7891,-3.739,-3.6127,-3.4389,-3.3971,-3.3508,-3.3001,-3.2804,-3.2672,-3.2672,-3.2672,-3.2672,-3.2672,-3.2672,-3.2672,-3.2672,-3.2672,-3.2672,-3.2685,-3.25,-3.2262,-3.1919,-3.1451,-3.0757,-2.9819,-2.9363,-2.8554,-2.7441,-2.6816,-2.6249,-2.5759,0.0,0.0,0.0,-2.4239,-2.4063,-2.368,-2.3442,-2.2959,-2.2239,-2.1801,0.0,-2.0872,-2.0298,-1.9918,-1.9706,-1.9164,0.0,0.0,0.0,0.0,0.0,0.0,0.0,0.0,0.0,0.0,0.0,-1.6936,-1.6372,-1.5253,-1.4919,-1.4723,-1.4645,-1.4145,-1.3752,-1.3666,-1.3527,-1.3419,-1.3385,-1.3583,-1.384,-1.4153,-1.4329,-1.4656,-1.5076,-1.527,-1.538,-1.5433,-1.5265,-1.5066,-1.4829,-1.4603,-1.4352,-1.4058,-1.348,-1.3001,-1.284,-1.3175,-1.3566,-1.4051,-1.411,-1.4116,-1.4137,-1.4137,-1.4083,-1.3975,-1.3975,-1.3807,-1.3581,-1.3483,-1.3359,-1.3083,-1.2827,-1.2528,-1.2268,-1.1799,-1.1039,-0.9733,-0.9246,-0.8832,-3.8943,0.0,-3.887,-3.8745,0.0,-3.8412,-3.7601,-3.6339,-3.5502,-3.4722,-3.402,-3.3831,-3.367,-3.3535,-3.3535,-3.3535,-3.3535,-3.3535,-3.3548,-3.3522,-3.3535,-3.3535,-3.3535,-3.3344,-3.3038,-3.2618,-3.2184,-3.1619,-3.0832,-3.0266,-2.9453,-2.8414,-2.7624,-2.6858,-2.6063,-2.5285,-2.4786,-2.4507,-2.4507,-2.4383,-2.4219,-2.4061,-2.3677,-2.3082,-2.27,0.0,0.0,0.0,0.0,0.0,0.0,0.0,0.0,-1.8789,0.0,-1.8193,-1.7878,-1.7716,-1.7676,-1.7514,-1.7392,-1.7392,-1.7465,-1.7228,-1.6395,-1.6101,-1.5927,-1.5808,-1.5295,-1.4885,-1.465,-1.4634,-1.4608,-1.4496,-1.4701,-1.4998,-1.5216,-1.5339,-1.5641,-1.605,-1.6197,-1.6325,-1.6362,-1.6171,-1.5892,-1.5643,-1.5439,-1.5159,-1.4819,-1.4052,-1.3417,-1.3161,-1.3333,-1.3599,-1.3938,-1.4132,-1.4191,-1.4196,-1.4196,-1.4196,-1.4196,-1.4196,-1.4105,-1.3826,-1.3736,-1.3656,-1.343,-1.3145,-1.2888,-1.2735,-1.2387,-1.1846,-1.0948,-1.0279,-0.9611,-3.9319,-3.9304,-3.9039,-3.8892,-3.8907,-3.8855,-3.8612,-3.8127,0.0,0.0,0.0,-3.4962,-3.4701,-3.4481,-3.4439,-3.4397,-3.4397,-3.4397,-3.4397,-3.4397,-3.4397,-3.4397,-3.4356,-3.4202,-3.3788,-3.3225,-3.2867,-3.2393,-3.1738,-3.1245,-3.0465,-2.9436,-2.8615,-2.7512,-2.6218,-2.5401,-2.4861,-2.4583,-2.454,-2.4507,-2.4507,-2.4507,-2.4226,-2.3687,-2.3498,-2.3148,-2.2589,-2.2324,-2.2087,-2.188,-2.1236,-2.0721,-2.0335,-1.9681,-1.919,-1.899,-1.8518,-1.8201,-1.8161,-1.7878,-1.7661,-1.7646,-1.7801,-1.7735,-1.7481,-1.7319,-1.7155,-1.6867,-1.6557,-1.6179,-1.5738,-1.5776,-1.5691,-1.546,-1.5643,-1.5901,-1.6143,-1.6158,-1.6362,-1.6872,-1.6938,-1.6994,-1.7016,-1.6857,-1.6629,-1.6386,-1.6157,-1.5879,-1.548,-1.4621,-1.385,-1.3606,-1.3517,-1.3599,-1.3776,-1.3976,-1.4132,-1.4186,-1.4196,-1.418,-1.4143,-1.4126,-1.4029,-1.3745,-1.376,-1.369,-1.3529,-1.3302,-1.309,-1.3002,-1.2843,-1.2567,-1.2073,-1.1248,-1.0482,-4.021,-4.0165,-3.9576,-3.9301,-3.9301,-3.9141,-3.8723,-3.8127,-3.7081,-3.6336,-3.5831,-3.5277,-3.4962,-3.4701,-3.4494,-3.4397,-3.4397,-3.4397,-3.4397,-3.4397,-3.4397,-3.4314,-3.416,-3.4118,-3.3814,-3.3411,-3.3327,-3.2781,-3.1955,-3.1791,-3.1171,-3.0061,-2.9219,-2.798,-2.6313,-2.5695,-2.5242,-2.4861,-2.4625,-2.4507,-2.4507,-2.4507,-2.4466,-2.4361,-2.4308,-2.4202,-2.3917,-2.3498,-2.318,-2.296,-2.2324,-2.1871,-2.1615,-2.0821,-2.0279,-2.0049,-1.9454,-1.9024,-1.8891,-1.8803,-1.8744,-1.8692,-1.8552,-1.825,-1.7701,-1.7722,-1.7695,-1.7493,-1.736,-1.721,-1.6891,-1.671,-1.6492,-1.6257,-1.6257,-1.6432,-1.671,-1.6739,-1.6856,-1.7147,-1.726,-1.726,-1.7225,-1.7192,-1.7099,-1.6925,-1.6784,-1.6636,-1.6055,-1.501,-1.4219,-1.3891,-1.3635,-1.3599,-1.3767,-1.383,-1.3943,-1.4164,-1.4159,-1.4073,-1.39,-1.3873,-1.3787,-1.3566,-1.3523,-1.3502,-1.3448,-1.3475,-1.3311,-1.3105,-1.3007,-1.2833,-1.2392,-1.2095,-1.1742,-4.0412,-4.0322,-3.9694,-3.9388,-3.9373,-3.9192,-3.887,-3.8486,-3.781,-3.7003,-3.6137,-3.5629,-3.5195,-3.4797,-3.4535,-3.4397,-3.4397,-3.4397,-3.4397,-3.4397,-3.4285,-3.4202,-3.4076,-3.3823,-3.3611,-3.3398,-3.3283,-3.3028,-3.2577,-3.2424,-3.1895,-3.1045,-2.9689,-2.8368,-2.7194,-2.6287,-2.5653,-2.5242,-2.4743,-2.4507,-2.4507,-2.4507,-2.4507,-2.4507,-2.4507,-2.4454,-2.4368,-2.4183,-2.3975,-2.3932,-2.3274,-2.2823,-2.2595,-2.1869,-2.138,-2.1166,-2.079,-2.0492,-2.0411,-2.0157,-1.9902,-1.9635,-1.9393,-1.908,-1.8573,-1.8338,-1.8148,-1.7892,-1.7743,-1.7473,-1.7167,-1.7158,-1.7086,-1.672,-1.6777,-1.6945,-1.7077,-1.7113,-1.7172,-1.7304,-1.7286,-1.7286,-1.7286,-1.7286,-1.7286,-1.72,-1.7153,-1.7005,-1.6676,-1.6015,-1.5287,-1.4704,-1.4299,-1.4023,-1.3914,-1.3865,-1.383,-1.3845,-1.3803,-1.376,-1.3647,-1.3636,-1.3534,-1.3335,-1.3281,-1.3222,-1.313,-1.3093,-1.3083,-1.2974,-1.292,-1.2812,-1.264,-1.2619,-1.2273,-4.0756,-4.0561,-3.9903,-3.9559,-3.9388,-3.9213,-3.9068,-3.8819,-3.8501,-3.7682,-3.6624,-3.6057,-3.5507,-3.4921,-3.4618,-3.4452,-3.4397,-3.4397,-3.4397,-3.4356,-3.4202,-3.4076,-3.3979,-3.3611,-3.3356,-3.3313,-3.3154,-3.3124,-3.3081,-3.2896,-3.248,-3.1782,-3.0217,-2.9035,-2.8205,-2.7107,-2.6265,-2.5664,-2.4999,-2.4625,-2.4507,-2.4507,-2.4507,-2.4507,-2.4507,-2.4507,-2.4507,-2.4507,-2.4507,-2.4476,-2.3987,-2.3676,-2.3456,-2.2843,-2.2396,-2.2231,-2.1987,-2.1824,-2.1722,-2.1297,-2.0908,-2.0589,-2.0343,-2.0004,-1.954,-1.9157,-1.8723,-1.8324,-1.8117,-1.7856,-1.754,-1.7582,-1.7553,-1.7165,-1.7226,-1.725,-1.7279,-1.7286,-1.7286,-1.7286,-1.7286,-1.7286,-1.7286,-1.7286,-1.7286,-1.7286,-1.7286,-1.7239,-1.7059,-1.6871,-1.6386,-1.5716,-1.5145,-1.4667,-1.4234,-1.4121,-1.3971,-1.3704,-1.3645,-1.3577,-1.3483,-1.3389,-1.3292,-1.3098,-1.3028,-1.2974,-1.2856,-1.2829,-1.2835,-1.2835,-1.284,-1.2775,-1.277,-1.2764,-1.2619,-4.1856,-4.122,-4.0561,-3.9948,-3.9403,-3.9388,-3.9265,-3.9053,-3.8833,-3.8277,-3.7404,-3.6638,-3.5924,-3.5318,-3.4921,-3.4618,-3.4397,-3.4397,-3.4397,-3.4356,-3.4202,-3.3992,-3.3725,-3.3513,-3.3313,-3.3154,-3.3124,-3.3124,-3.3124,-3.3081,-3.2664,-3.1923,-3.1114,-3.0103,-2.8947,-2.7992,-2.7124,-2.6166,-2.5496,-2.4946,-2.454,-2.4507,-2.4507,-2.4507,-2.4507,-2.4507,-2.4507,-2.4507,-2.4507,-2.4507,-2.4456,-2.4382,-2.4288,-2.3748,-2.3378,-2.3316,-2.2806,-2.241,-2.2185,-2.1753,-2.1623,-2.1598,-2.1321,-2.0904,-2.0498,-2.0245,-1.9676,-1.893,-1.8731,-1.8577,-1.838,-1.8149,-1.791,-1.7585,-1.7397,-1.7286,-1.7286,-1.7286,-1.7286,-1.7286,-1.7286,-1.7286,-1.7286,-1.7286,-1.7286,-1.7286,-1.7286,-1.7286,-1.7239,-1.7192,-1.7099,-1.6676,-1.6008,-1.5306,-1.4955,-1.4696,-1.4451,-1.4185,-1.3959,-1.3706,-1.3401,-1.318,-1.3066,-1.292,-1.2824,-1.2851,-1.2835,-1.2807,-1.2807,-1.2807,-1.2807,-1.2807,-1.2807,-1.2807,-1.2667,-4.2006,-4.1309,-4.0666,-4.0023,-3.9418,-3.9388,-3.9286,-3.9068,-3.8855,-3.8412,-3.7749,-3.7042,-3.623,-3.5399,-3.4962,-3.4673,-3.4397,-3.4397,-3.4356,-3.4202,-3.3992,-3.3725,-3.3513,-3.3326,-3.3167,-3.3124,-3.3124,-3.3124,-3.3124,-3.3124,-3.2827,-3.2363,-3.1779,-3.1034,-3.0121,-2.9022,-2.8018,-2.7102,-2.6225,-2.5485,-2.4946,-2.4668,-2.4507,-2.4507,-2.4507,-2.4507,-2.4507,-2.4507,-2.4507,-2.4507,-2.4507,-2.4507,-2.4507,-2.4236,-2.4091,-2.408,-2.3894,-2.3613,-2.3382,-2.3213,-2.3037,-2.2828,-2.2404,-2.1998,-2.165,-2.1087,-2.0477,-2.0067,-1.9472,-1.8966,-1.8697,-1.8365,-1.7994,-1.7721,-1.7481,-1.7286,-1.7286,-1.7286,-1.7286,-1.7286,-1.7286,-1.7286,-1.7286,-1.7286,-1.7286,-1.7286,-1.7286,-1.7286,-1.7286,-1.7286,-1.7286,-1.7145,-1.677,-1.6238,-1.5656,-1.5277,-1.4953,-1.4588,-1.428,-1.3964,-1.3499,-1.3193,-1.3003,-1.2818,-1.2813,-1.2813,-1.2813,-1.2807,-1.2807,-1.2807,-1.2807,-1.2807,-1.2807,-1.2807,-1.2807,-4.2276,-4.1617,-4.0756,-4.0023,-3.9403,-3.9388,-3.9316,-3.9141,-3.8907,-3.8486,-3.7924,-3.7289,-3.6429,-3.5521,-3.5086,-3.4714,-3.4452,-3.4397,-3.4285,-3.4076,-3.3852,-3.3598,-3.3386,-3.3197,-3.3124,-3.3124,-3.3124,-3.3124,-3.3124,-3.3124,-3.2982,-3.2747,-3.2356,-3.1797,-3.1095,-3.0062,-2.9029,-2.8068,-2.7118,-2.6245,-2.5517,-2.4956,-2.4615,-2.4497,-2.4507,-2.4507,-2.4507,-2.4507,-2.4507,-2.4507,-2.4507,-2.4507,-2.4507,-2.4507,-2.4507,-2.4507,-2.4507,-2.4421,-2.4292,-2.4282,-2.412,-2.3721,-2.3276,-2.2925,-2.252,-2.1935,-2.149,-2.1212,-2.0411,-1.9683,-1.9096,-1.8596,-1.8179,-1.7955,-1.7613,-1.738,-1.7286,-1.7286,-1.7286,-1.7286,-1.7286,-1.7286,-1.7286,-1.7286,-1.7286,-1.7286,-1.7286,-1.7286,-1.7286,-1.7286,-1.7286,-1.7286,-1.7286,-1.6965,-1.6258,-1.594,-1.554,-1.5118,-1.4773,-1.4346,-1.3823,-1.3485,-1.3147,-1.3007,-1.291,-1.2813,-1.2807,-1.2807,-1.2807,-1.2807,-1.2807,-1.2807,-1.2807,-1.2807,-1.2807,-4.291,-4.2186,-4.0935,-4.0023,-3.9388,-3.9388,-3.9388,-3.9352,-3.898,-3.8575,-3.8089,-3.7327,-3.6508,-3.5683,-3.5236,-3.4812,-3.4439,-3.4397,-3.4272,-3.4076,-3.381,-3.3598,-3.3398,-3.3197,-3.3124,-3.3124,-3.3124,-3.3124,-3.3124,-3.3124,-3.3068,-3.3068,-3.2791,-3.2357,-3.1821,-3.1114,-3.0193,-2.9029,-2.8068,-2.7147,-2.6221,-2.5506,-2.4956,-2.4583,-2.4507,-2.4507,-2.4507,-2.4507,-2.4507,-2.4507,-2.4507,-2.4507,-2.4507,-2.4507,-2.4507,-2.4507,-2.4507,-2.4507,-2.4464,-2.4454,-2.4368,-2.4163,-2.3894,-2.358,-2.3144,-2.2794,-2.2476,-2.2104,-2.1526,-2.0862,-2.0056,-1.9234,-1.8689,-1.8458,-1.7994,-1.7621,-1.7333,-1.7333,-1.7333,-1.7286,-1.7286,-1.7286,-1.7286,-1.7286,-1.7286,-1.7286,-1.7286,-1.7286,-1.7286,-1.7286,-1.7286,-1.7286,-1.7286,-1.7192,-1.6979,-1.6636,-1.6298,-1.5879,-1.5445,-1.4956,-1.4394,-1.3871,-1.3534,-1.3195,-1.3055,-1.291,-1.2813,-1.2807,-1.2807,-1.2807,-1.2807,-1.2807,-1.2807,-1.2807,-1.2807,-4.2701,-4.1707,-4.0786,-4.0023,-3.9418,-3.9388,-3.9388,-3.9388,-3.898,-3.8575,-3.8089,-3.7366,-3.6508,-3.5669,-3.5277,-3.4825,-3.4397,-3.4397,-3.4176,-3.3907,-3.3768,-3.3513,-3.3227,-3.3111,-3.3124,-3.3124,-3.3124,-3.3124,-3.3124,-3.3124,-3.3124,-3.3081,-3.2982,-3.2784,-3.2345,-3.1809,-3.1089,-3.0193,-2.8998,-2.7881,-2.6881,-2.5889,-2.52,-2.4775,-2.4583,-2.4507,-2.4507,-2.4507,-2.4507,-2.4507,-2.4507,-2.4507,-2.4507,-2.4507,-2.4507,-2.4507,-2.4507,-2.4507,-2.4507,-2.4507,-2.4454,-2.4421,-2.4196,-2.398,-2.3764,-2.345,-2.3144,-2.2916,-2.2388,-2.1856,-2.1365,-2.0184,-1.9142,-1.8727,-1.8411,-1.8032,-1.7667,-1.7574,-1.7473,-1.7333,-1.7286,-1.7286,-1.7286,-1.7286,-1.7286,-1.7286,-1.7286,-1.7286,-1.7286,-1.7286,-1.7286,-1.7286,-1.7286,-1.7286,-1.7192,-1.7099,-1.6911,-1.6636,-1.6251,-1.5818,-1.5302,-1.4819,-1.4436,-1.3913,-1.3582,-1.3152,-1.3098,-1.2807,-1.2807,-1.2807,-1.2807,-1.2807,-1.2807,-1.2807,-1.2807,-4.2581,-4.1437,-4.0905,-4.0202,-3.9433,-3.9388,-3.9388,-3.9352,-3.898,-3.856,-3.8089,-3.7289,-3.6482,-3.571,-3.5195,-3.4784,-3.4439,-3.4397,-3.4147,-3.37,-3.3713,-3.3471,-3.3167,-3.3124,-3.3124,-3.3124,-3.3124,-3.3124,-3.3124,-3.3124,-3.3124,-3.3124,-3.3124,-3.3025,-3.2791,-3.2381,-3.1834,-3.1028,-2.9977,-2.8806,-2.7575,-2.651,-2.5636,-2.5052,-2.4668,-2.4507,-2.4507,-2.4507,-2.4507,-2.4507,-2.4507,-2.4507,-2.4507,-2.4507,-2.4507,-2.4507,-2.4507,-2.4507,-2.4507,-2.4507,-2.4507,-2.4507,-2.4368,-2.4292,-2.4282,-2.4024,-2.3807,-2.3624,-2.3232,-2.2838,-2.2388,-2.1356,-2.0229,-1.95,-1.9096,-1.8635,-1.8141,-1.7908,-1.7667,-1.738,-1.7286,-1.7286,-1.7286,-1.7286,-1.7286,-1.7286,-1.7286,-1.7286,-1.7286,-1.7286,-1.7286,-1.7286,-1.7286,-1.7286,-1.7286,-1.7239,-1.7192,-1.6958,-1.6784,-1.6447,-1.6157,-1.5676,-1.5201,-1.4675,-1.4154,-1.363,-1.3244,-1.2953,-1.2856,-1.2807,-1.2807,-1.2807,-1.2807,-1.2807,-1.2807,-4.2581,-4.1459,-4.1422,-4.0576,-3.9463,-3.9388,-3.9388,-3.9352,-3.898,-3.8575,-3.8089,-3.7134,-3.631,-3.5642,-3.5031,-3.4632,-3.4397,-3.4314,-3.4092,-3.3713,-3.3713,-3.3471,-3.3111,-3.3124,-3.3124,-3.3124,-3.3124,-3.3124,-3.3124,-3.3124,-3.3124,-3.3124,-3.3124,-3.3081,-3.3068,-3.2778,-3.2308,-3.1626,-3.101,-2.9877,-2.8165,-2.7245,-2.6321,-2.5296,-2.4764,-2.4507,-2.4507,-2.4507,-2.4507,-2.4507,-2.4507,-2.4507,-2.4507,-2.4507,-2.4507,-2.4507,-2.4507,-2.4507,-2.4507,-2.4507,-2.4507,-2.4507,-2.4497,-2.4464,-2.4464,-2.4411,-2.4325,-2.4153,-2.3884,-2.358,-2.3144,-2.2564,-2.1767,-2.0772,-1.9957,-1.9371,-1.8819,-1.8365,-1.7893,-1.7419,-1.7326,-1.7286,-1.7286,-1.7286,-1.7286,-1.7286,-1.7286,-1.7286,-1.7286,-1.7286,-1.7286,-1.7286,-1.7286,-1.7286,-1.7286,-1.7286,-1.7286,-1.7239,-1.7066,-1.6831,-1.6581,-1.6197,-1.5818,-1.535,-1.4586,-1.4064,-1.3346,-1.3055,-1.2861,-1.2813,-1.2813,-1.2818,-1.2807,-1.2807,-1.2807,-4.2581,-4.1467,-4.1422,-4.0621,-3.9463,-3.9388,-3.9388,-3.9352,-3.898,-3.8523,-3.7886,-3.7081,-3.6191,-3.5345,-3.4743,-3.441,-3.4202,-3.4021,-3.3839,-3.3713,-3.3713,-3.3484,-3.3154,-3.3124,-3.3124,-3.3124,-3.3124,-3.3124,-3.3124,-3.3124,-3.3124,-3.3124,-3.3124,-3.3124,-3.3124,-3.3025,-3.2667,-3.213,-3.1319,-3.0245,-2.8994,-2.7528,-2.6389,-2.5668,-2.4921,-2.4507,-2.4507,-2.4507,-2.4507,-2.4507,-2.4507,-2.4507,-2.4507,-2.4507,-2.4507,-2.4507,-2.4507,-2.4507,-2.4507,-2.4507,-2.4507,-2.4507,-2.4507,-2.4507,-2.4507,-2.4507,-2.4454,-2.4421,-2.4196,-2.398,-2.3807,-2.346,-2.2608,-2.1311,-2.0637,-1.9957,-1.9188,-1.8411,-1.7815,-1.7621,-1.7426,-1.7326,-1.7333,-1.7326,-1.7333,-1.7333,-1.7333,-1.7286,-1.7286,-1.7286,-1.7286,-1.7286,-1.7286,-1.7286,-1.7286,-1.7286,-1.7286,-1.7286,-1.72,-1.7113,-1.6911,-1.677,-1.6393,-1.5872,-1.5159,-1.4418,-1.3696,-1.3234,-1.3056,-1.2905,-1.2878,-1.2862,-1.2824,-1.2856,-1.2877,-4.2566,-4.1467,-4.1422,-4.0621,-3.9448,-3.9388,-3.9388,-3.9337,-3.8885,-3.8412,-3.7886,-3.6886,-3.5991,-3.5195,-3.4577,-3.416,-3.3949,-3.3755,-3.3683,-3.3598,-3.3586,-3.3398,-3.3124,-3.3124,-3.3124,-3.3124,-3.3124,-3.3124,-3.3124,-3.3124,-3.3124,-3.3124,-3.3124,-3.3124,-3.3124,-3.3081,-3.2853,-3.2382,-3.1753,-3.0842,-2.9498,-2.813,-2.7042,-2.6191,-2.5244,-2.4809,-2.4745,-2.46,-2.4507,-2.4507,-2.4507,-2.4507,-2.4507,-2.4507,-2.4507,-2.4507,-2.4507,-2.4507,-2.4507,-2.4507,-2.4507,-2.4507,-2.4507,-2.4507,-2.4507,-2.4507,-2.4507,-2.4464,-2.4378,-2.4325,-2.4239,-2.398,-2.3309,-2.2422,-2.1713,-2.0817,-1.9774,-1.8819,-1.8226,-1.804,-1.78,-1.7613,-1.7613,-1.7473,-1.7473,-1.7426,-1.7333,-1.7286,-1.7286,-1.7286,-1.7333,-1.7333,-1.7286,-1.7286,-1.7286,-1.7286,-1.7286,-1.7286,-1.7286,-1.7239,-1.7145,-1.7099,-1.6871,-1.6251,-1.554,-1.4841,-1.4085,-1.3552,-1.3237,-1.3122,-1.3029,-1.3071,-1.313,-1.3104,-1.3147,-4.2581,-4.1482,-4.1422,-4.0621,-3.9463,-3.9388,-3.9388,-3.928,-3.8789,-3.8366,-3.7863,-3.6691,-3.579,-3.5223,-3.4452,-3.3979,-3.3725,-3.3641,-3.3556,-3.3441,-3.3398,-3.3283,-3.3111,-3.3124,-3.3124,-3.3124,-3.3124,-3.3124,-3.3124,-3.3124,-3.3124,-3.3124,-3.3124,-3.3124,-3.3124,-3.3124,-3.2865,-3.2419,-3.2307,-3.1328,-2.9683,-2.9013,-2.8088,-2.6736,-2.5779,-2.5233,-2.5065,-2.4724,-2.4507,-2.4507,-2.4507,-2.4507,-2.4507,-2.4507,-2.4507,-2.4507,-2.4507,-2.4507,-2.4507,-2.4507,-2.4507,-2.4507,-2.4507,-2.4507,-2.4507,-2.4507,-2.4507,-2.4507,-2.4507,-2.4497,-2.4464,-2.4282,-2.4013,-2.3711,-2.2731,-2.1624,-2.0518,-1.9691,-1.9096,-1.8635,-1.8357,-1.8133,-1.8125,-1.7908,-1.7815,-1.7675,-1.7527,-1.7473,-1.738,-1.738,-1.7333,-1.7333,-1.7286,-1.7286,-1.7286,-1.7286,-1.7286,-1.7286,-1.7286,-1.7286,-1.7286,-1.7246,-1.724,-1.6658,-1.6068,-1.5309,-1.4692,-1.4185,-1.3679,-1.3495,-1.3487,-1.3505,-1.3437,-1.3357,-1.334,-4.2566,-4.1414,-4.1422,-4.0621,-3.9478,-3.9388,-3.9301,-3.9141,-3.8701,-3.8142,-3.7429,-3.6598,-3.5723,-3.4895,-3.4369,-3.3949,-3.3683,-3.3398,-3.3313,-3.3356,-3.324,-3.3167,-3.3124,-3.3124,-3.3124,-3.3124,-3.3124,-3.3124,-3.3124,-3.3124,-3.3124,-3.3124,-3.3124,-3.3124,-3.3124,-3.3124,-3.2865,-3.2431,-3.2189,-3.1557,-3.0378,-2.9318,-2.8376,-2.7433,-2.6499,-2.5743,-2.5244,-2.4745,-2.4507,-2.4507,-2.4507,-2.4507,-2.4507,-2.4507,-2.4507,-2.4507,-2.4507,-2.4507,-2.4507,-2.4507,-2.4507,-2.4507,-2.4549,-2.4507,-2.4507,-2.4507,-2.4507,-2.4507,-2.4507,-2.4538,-2.4518,-2.4475,-2.4303,-2.398,-2.3057,-2.2024,-2.1221,-2.0464,-1.9828,-1.9409,-1.9096,-1.8819,-1.8496,-1.8311,-1.8172,-1.8032,-1.7893,-1.78,-1.766,-1.7567,-1.7574,-1.738,-1.7286,-1.7286,-1.7286,-1.7286,-1.7286,-1.7286,-1.7286,-1.7286,-1.7293,-1.7308,-1.7312,-1.7101,-1.6691,-1.6015,-1.55,-1.4986,-1.453,-1.4105,-1.3808,-1.3743,-1.3575,-1.3505,-1.3532,-4.2566,-4.1437,-4.1422,-4.0621,-3.9448,-3.9301,-3.9228,-3.9031,-3.8575,-3.8089,-3.7429,-3.6624,-3.583,-3.4964,-3.4356,-3.3907,-3.3569,-3.324,-3.3154,-3.324,-3.3167,-3.3124,-3.3124,-3.3124,-3.3124,-3.3124,-3.3124,-3.3124,-3.3124,-3.3124,-3.3124,-3.3124,-3.3124,-3.3124,-3.3124,-3.3081,-3.2896,-3.2562,-3.2276,-3.1749,-3.0902,-2.994,-2.9093,-2.8244,-2.7273,-2.6267,-2.535,-2.4921,-2.4714,-2.4559,-2.4507,-2.4507,-2.4507,-2.4507,-2.4507,-2.4507,-2.4507,-2.4507,-2.4507,-2.4507,-2.46,-2.4745,-2.4797,-2.49,-2.5034,-2.5065,-2.5109,-2.514,-2.5099,-2.5099,-2.5024,-2.491,-2.4753,-2.4525,-2.3646,-2.274,-2.2157,-2.1535,-2.0907,-2.0411,-1.992,-1.9463,-1.9004,-1.8819,-1.855,-1.8326,-1.8133,-1.804,-1.79,-1.7854,-1.7807,-1.7613,-1.7473,-1.7481,-1.7426,-1.7426,-1.7333,-1.7333,-1.7352,-1.7337,-1.7359,-1.7435,-1.753,-1.7471,-1.7155,-1.6823,-1.6389,-1.5902,-1.5424,-1.4954,-1.4463,-1.4115,-1.4047,-1.383,-1.3846,-4.2506,-4.1369,-4.1309,-4.0524,-3.9427,-3.9156,-3.9031,-3.8907,-3.8464,-3.8052,-3.7634,-3.678,-3.6004,-3.5358,-3.4522,-3.3907,-3.3441,-3.324,-3.3124,-3.3124,-3.3124,-3.3124,-3.3124,-3.3124,-3.3124,-3.3124,-3.3124,-3.3124,-3.3124,-3.3124,-3.3124,-3.3124,-3.3124,-3.3124,-3.3124,-3.3124,-3.2982,-3.2723,-3.2506,-3.2069,-3.135,-3.0609,-2.9897,-2.9054,-2.7812,-2.6732,-2.5816,-2.5326,-2.5065,-2.46,-2.4528,-2.4507,-2.4507,-2.4507,-2.4507,-2.4507,-2.4507,-2.4518,-2.459,-2.4652,-2.4797,-2.5148,-2.5251,-2.5451,-2.5678,-2.573,-2.573,-2.5709,-2.592,-2.5761,-2.5709,-2.5482,-2.5282,-2.5145,-2.4607,-2.4005,-2.3378,-2.2671,-2.2059,-2.1526,-2.0871,-2.0283,-1.9737,-1.9242,-1.8789,-1.8558,-1.8419,-1.8272,-1.8187,-1.8141,-1.8094,-1.7994,-1.7854,-1.7768,-1.7667,-1.752,-1.7426,-1.7333,-1.741,-1.7454,-1.7498,-1.7611,-1.7794,-1.779,-1.7697,-1.7637,-1.7459,-1.6983,-1.6417,-1.5937,-1.5446,-1.5117,-1.4818,-1.4439,-1.43,-4.2141,-4.1339,-4.0666,-3.9906,-3.9215,-3.8958,-3.876,-3.8627,-3.8329,-3.7901,-3.7404,-3.6861,-3.6137,-3.5358,-3.4647,-3.4063,-3.3598,-3.3283,-3.3124,-3.3124,-3.3124,-3.3124,-3.3124,-3.3124,-3.3124,-3.3124,-3.3124,-3.3124,-3.3124,-3.3124,-3.3124,-3.3124,-3.3124,-3.3124,-3.3124,-3.3081,-3.2995,-3.2766,-3.2636,-3.2276,-3.1749,-3.1261,-3.0589,-2.9658,-2.8161,-2.7162,-2.6599,-2.6073,-2.5533,-2.5086,-2.4745,-2.46,-2.4518,-2.4528,-2.4549,-2.4569,-2.4569,-2.4683,-2.4952,-2.5065,-2.522,-2.5668,-2.5751,-2.5771,-2.5889,-2.5993,-2.5962,-2.593,-2.593,-2.6024,-2.5978,-2.5834,-2.5751,-2.5658,-2.5269,-2.4903,-2.4622,-2.3789,-2.2935,-2.229,-2.1713,-2.1078,-2.0229,-1.9754,-1.9296,-1.8881,-1.8651,-1.8604,-1.852,-1.8442,-1.845,-1.8388,-1.834,-1.8291,-1.8197,-1.8055,-1.7819,-1.7724,-1.775,-1.7794,-1.783,-1.7874,-1.8086,-1.8251,-1.8383,-1.83,-1.8198,-1.7852,-1.7206,-1.685,-1.6411,-1.5986,-1.5565,-1.5196,-1.4719,-4.1841,-4.0891,-4.033,-3.9735,-3.9127,-3.8811,-3.8575,-3.8441,-3.8179,-3.7763,-3.7303,-3.6861,-3.6191,-3.5358,-3.4688,-3.4147,-3.3683,-3.3283,-3.3124,-3.3124,-3.3124,-3.3124,-3.3124,-3.3124,-3.3124,-3.3124,-3.3124,-3.3124,-3.3124,-3.3124,-3.3124,-3.3124,-3.3124,-3.3124,-3.3124,-3.3124,-3.3038,-3.2896,-3.2766,-3.2494,-3.2189,-3.1705,-3.0847,-2.9852,-2.8565,-2.769,-2.6963,-2.6545,-2.6024,-2.5606,-2.5295,-2.49,-2.4621,-2.4704,-2.4807,-2.4838,-2.5088,-2.5233,-2.5482,-2.5564,-2.573,-2.621,-2.6241,-2.6397,-2.6501,-2.6573,-2.6573,-2.6573,-2.6594,-2.6584,-2.6563,-2.6279,-2.6273,-2.6169,-2.5802,-2.5554,-2.5351,-2.4527,-2.3634,-2.2969,-2.2388,-2.1579,-2.0862,-2.0246,-1.9716,-1.9296,-1.9036,-1.8944,-1.8969,-1.8916,-1.8918,-1.8902,-1.8838,-1.8812,-1.8772,-1.8644,-1.8393,-1.8271,-1.8241,-1.8321,-1.8363,-1.835,-1.8408,-1.8549,-1.8724,-1.8883,-1.8769,-1.8363,-1.8055,-1.7733,-1.7312,-1.6836,-1.6305,-1.5832,-1.5303,-4.1564,-4.0457,-4.01,-3.9572,-3.9003,-3.859,-3.8441,-3.8404,-3.8043,-3.7701,-3.7264,-3.6822,-3.6137,-3.5345,-3.4647,-3.4105,-3.3611,-3.3326,-3.3124,-3.3124,-3.3124,-3.3124,-3.3124,-3.3124,-3.3124,-3.3124,-3.3124,-3.3124,-3.3124,-3.3124,-3.3124,-3.3124,-3.3124,-3.3124,-3.3124,-3.3124,-3.3081,-3.3038,-3.2896,-3.2711,-3.2581,-3.2101,-3.1205,-3.0011,-2.9154,-2.8296,-2.7515,-2.6997,-2.6557,-2.6076,-2.6034,-2.5533,-2.5044,-2.5024,-2.5292,-2.5292,-2.5606,-2.5802,-2.5937,-2.602,-2.6175,-2.6667,-2.6718,-2.6874,-2.7143,-2.7185,-2.7164,-2.7206,-2.7185,-2.7185,-2.7278,-2.6957,-2.675,-2.6635,-2.6304,-2.602,-2.5834,-2.5067,-2.4368,-2.3676,-2.2905,-2.2033,-2.1266,-2.0591,-2.0155,-1.9779,-1.9528,-1.9385,-1.9374,-1.9434,-1.9541,-1.9495,-1.947,-1.9221,-1.918,-1.9123,-1.8918,-1.8765,-1.8735,-1.8773,-1.8787,-1.881,-1.884,-1.8877,-1.906,-1.9139,-1.9205,-1.89,-1.8646,-1.8482,-1.816,-1.7687,-1.7107,-1.6524,-1.5992,-4.1338,-4.088,-3.9565,-3.8848,-3.859,-3.8352,-3.824,-3.8217,-3.7967,-3.7677,-3.7226,-3.6638,-3.5897,-3.5154,-3.4452,-3.3823,-3.3368,-3.3124,-3.3124,-3.3124,-3.3124,-3.3124,-3.3124,-3.3124,-3.3124,-3.3124,-3.3124,-3.3124,-3.3124,-3.3124,-3.3124,-3.3124,-3.3124,-3.3124,-3.3124,-3.3124,-3.3124,-3.3124,-3.3038,-3.2896,-3.2711,-3.245,-3.1837,-3.0611,-2.9749,-2.8912,-2.824,-2.7672,-2.7165,-2.6553,-2.6501,-2.6154,-2.5813,-2.5771,-2.5802,-2.5813,-2.5927,-2.6175,-2.6438,-2.6511,-2.6739,-2.7061,-2.7154,-2.7154,-2.7289,-2.732,-2.732,-2.732,-2.732,-2.732,-2.7309,-2.7175,-2.7195,-2.7071,-2.6801,-2.6511,-2.6397,-2.5923,-2.5214,-2.4535,-2.3496,-2.2587,-2.1913,-2.1329,-2.09,-2.06,-2.0332,-2.0132,-2.0096,-2.0178,-2.0288,-2.024,-2.0168,-1.9836,-1.9488,-1.9486,-1.9385,-1.9254,-1.9196,-1.9182,-1.9189,-1.917,-1.9214,-1.9192,-1.9155,-1.9235,-1.922,-1.9227,-1.9123,-1.89,-1.8698,-1.8541,-1.7957,-1.7371,-1.7001,-4.1062,-4.0471,-3.9306,-3.8671,-3.8478,-3.8277,-3.8127,-3.7991,-3.7687,-3.738,-3.69,-3.6296,-3.5575,-3.4895,-3.4369,-3.3751,-3.3253,-3.3124,-3.3124,-3.3124,-3.3124,-3.3124,-3.3124,-3.3124,-3.3124,-3.3124,-3.3124,-3.3124,-3.3124,-3.3124,-3.3124,-3.3124,-3.3124,-3.3124,-3.3124,-3.3124,-3.3124,-3.3124,-3.3081,-3.3038,-3.2896,-3.2723,-3.2013,-3.116,-3.0204,-2.9336,-2.8606,-2.7914,-2.7395,-2.7056,-2.6967,-2.6843,-2.6687,-2.6584,-2.6511,-2.6366,-2.648,-2.6698,-2.6926,-2.6978,-2.7092,-2.7247,-2.732,-2.732,-2.732,-2.732,-2.732,-2.732,-2.732,-2.732,-2.732,-2.732,-2.732,-2.7278,-2.7081,-2.6988,-2.6864,-2.6521,-2.5971,-2.5305,-2.4466,-2.3588,-2.2792,-2.2252,-2.1724,-2.1406,-2.116,-2.1002,-2.0855,-2.0933,-2.1031,-2.0868,-2.0753,-2.0571,-2.0257,-2.01,-1.9993,-1.983,-1.9648,-1.9633,-1.9528,-1.9538,-1.9398,-1.9294,-1.9324,-1.9324,-1.9272,-1.9279,-1.9279,-1.9272,-1.9063,-1.8855,-1.8646,-1.8279,-1.7799,-4.0882,-3.9951,-3.9151,-3.8686,-3.8427,-3.8217,-3.8028,-3.7792,-3.7419,-3.6978,-3.6508,-3.5884,-3.5223,-3.4605,-3.4063,-3.3569,-3.3124,-3.3124,-3.3124,-3.3124,-3.3124,-3.3124,-3.3124,-3.3124,-3.3124,-3.3124,-3.3124,-3.3124,-3.3124,-3.3124,-3.3124,-3.3124,-3.3124,-3.3124,-3.3124,-3.3124,-3.3124,-3.3124,-3.3124,-3.3124,-3.2995,-3.2692,-3.2157,-3.1439,-3.0509,-2.9692,-2.8921,-2.8186,-2.7678,-2.741,-2.7268,-2.7289,-2.7309,-2.7309,-2.7133,-2.6895,-2.7123,-2.7268,-2.7299,-2.7278,-2.7258,-2.732,-2.732,-2.732,-2.732,-2.732,-2.732,-2.732,-2.732,-2.732,-2.732,-2.732,-2.732,-2.7309,-2.7309,-2.7278,-2.7175,-2.69,-2.6605,-2.5982,-2.534,-2.4646,-2.3894,-2.3262,-2.2787,-2.2574,-2.2333,-2.197,-2.1856,-2.1712,-2.1752,-2.1503,-2.1328,-2.1299,-2.1105,-2.0905,-2.0729,-2.0569,-2.0296,-2.011,-1.9958,-1.982,-1.9635,-1.948,-1.9428,-1.948,-1.9376,-1.9272,-1.9272,-1.9272,-1.9272,-1.9168,-1.8959,-1.8803,-1.8482,-4.0807,-3.9778,-3.9099,-3.856,-3.824,-3.8028,-3.7815,-3.7572,-3.7173,-3.6665,-3.6031,-3.544,-3.4784,-3.416,-3.3539,-3.321,-3.3124,-3.3124,-3.3124,-3.3124,-3.3124,-3.3124,-3.3124,-3.3124,-3.3124,-3.3124,-3.3124,-3.3124,-3.3124,-3.3124,-3.3124,-3.3124,-3.3124,-3.3124,-3.3124,-3.3124,-3.3124,-3.3124,-3.3124,-3.3124,-3.3081,-3.281,-3.2351,-3.1869,-3.1149,-3.0295,-2.9428,-2.8699,-2.8113,-2.7594,-2.7404,-2.7309,-2.732,-2.732,-2.7299,-2.7247,-2.7278,-2.732,-2.732,-2.732,-2.732,-2.732,-2.732,-2.732,-2.732,-2.732,-2.732,-2.732,-2.732,-2.732,-2.732,-2.732,-2.732,-2.732,-2.732,-2.732,-2.7268,-2.7216,-2.6931,-2.6739,-2.611,-2.563,-2.4963,-2.4414,-2.3903,-2.3692,-2.3484,-2.3114,-2.2753,-2.2557,-2.2297,-2.1963,-2.172,-2.1684,-2.1573,-2.142,-2.1224,-2.1121,-2.0865,-2.0565,-2.0308,-2.0101,-1.9939,-1.9783,-1.968,-1.9583,-1.9428,-1.9376,-1.9324,-1.9272,-1.9272,-1.9272,-1.9272,-1.9116,-1.8959,-4.0656,-3.974,-3.8965,-3.8464,-3.8165,-3.7991,-3.7701,-3.7341,-3.6847,-3.6256,-3.5629,-3.499,-3.4314,-3.3696,-3.324,-3.3124,-3.3124,-3.3124,-3.3124,-3.3124,-3.3124,-3.3124,-3.3124,-3.3124,-3.3124,-3.3124,-3.3124,-3.3124,-3.3124,-3.3124,-3.3124,-3.3124,-3.3124,-3.3124,-3.3124,-3.3124,-3.3124,-3.3124,-3.3124,-3.3124,-3.3025,-3.284,-3.2537,-3.2189,-3.1528,-3.0713,-2.9943,-2.9174,-2.8477,-2.7951,-2.7584,-2.7404,-2.7367,-2.732,-2.7309,-2.7309,-2.7309,-2.732,-2.732,-2.732,-2.732,-2.732,-2.732,-2.732,-2.732,-2.732,-2.732,-2.732,-2.732,-2.732,-2.732,-2.732,-2.732,-2.732,-2.732,-2.732,-2.7309,-2.7299,-2.7195,-2.7081,-2.6967,-2.6412,-2.5985,-2.5585,-2.5154,-2.4983,-2.4612,-2.4177,-2.3644,-2.3138,-2.2776,-2.24,-2.2148,-2.192,-2.1818,-2.1717,-2.1471,-2.1326,-2.1224,-2.0917,-2.0565,-2.0308,-2.0197,-1.9983,-1.9835,-1.968,-1.9524,-1.9376,-1.9324,-1.9272,-1.9272,-1.9272,-1.9272,-1.9272,-1.9063,-4.029,-3.9467,-3.8795,-3.8404,-3.8165,-3.7929,-3.7572,-3.7187,-3.6533,-3.5857,-3.5182,-3.4481,-3.381,-3.3398,-3.3197,-3.3124,-3.3124,-3.3124,-3.3124,-3.3124,-3.3124,-3.3124,-3.3124,-3.3124,-3.3124,-3.3124,-3.3124,-3.3124,-3.3124,-3.3124,-3.3124,-3.3124,-3.3124,-3.3124,-3.3124,-3.3124,-3.3124,-3.3124,-3.3124,-3.3124,-3.3081,-3.2896,-3.268,-3.2332,-3.1837,-3.1172,-3.0487,-2.9726,-2.8989,-2.842,-2.7904,-2.7631,-2.7452,-2.7357,-2.732,-2.732,-2.732,-2.732,-2.732,-2.732,-2.732,-2.732,-2.732,-2.732,-2.732,-2.732,-2.732,-2.732,-2.732,-2.732,-2.732,-2.732,-2.732,-2.732,-2.732,-2.732,-2.732,-2.7309,-2.7299,-2.7226,-2.7175,-2.7216,-2.6851,-2.6623,-2.6401,-2.6242,-2.5849,-2.5255,-2.447,-2.3637,-2.3088,-2.2636,-2.2443,-2.2232,-2.2131,-2.1979,-2.1725,-2.1522,-2.1471,-2.1275,-2.0925,-2.0719,-2.0609,-2.0344,-2.0042,-1.9835,-1.968,-1.948,-1.9272,-1.9272,-1.9272,-1.9272,-1.9272,-1.9272,-1.922,-3.9475,-3.8856,-3.8604,-3.8366,-3.8165,-3.7763,-3.738,-3.6993,-3.6296,-3.5535,-3.4688,-3.3937,-3.3398,-3.3154,-3.3111,-3.3124,-3.3124,-3.3124,-3.3124,-3.3124,-3.3124,-3.3124,-3.3124,-3.3124,-3.3124,-3.3124,-3.3124,-3.3124,-3.3124,-3.3124,-3.3124,-3.3124,-3.3124,-3.3124,-3.3124,-3.3124,-3.3124,-3.3124,-3.3124,-3.3124,-3.3124,-3.3038,-3.2896,-3.2624,-3.222,-3.1725,-3.1205,-3.0318,-2.9554,-2.8978,-2.8326,-2.7809,-2.7584,-2.7394,-2.7309,-2.732,-2.732,-2.732,-2.732,-2.732,-2.732,-2.732,-2.732,-2.732,-2.732,-2.732,-2.732,-2.732,-2.732,-2.732,-2.732,-2.732,-2.732,-2.732,-2.732,-2.732,-2.732,-2.732,-2.7309,-2.732,-2.732,-2.732,-2.7309,-2.6991,-2.6892,-2.6706,-2.6197,-2.5606,-2.4569,-2.3786,-2.3188,-2.2787,-2.2644,-2.2493,-2.2485,-2.2283,-2.203,-2.1878,-2.1717,-2.1522,-2.1275,-2.1113,-2.0909,-2.066,-2.0351,-2.0094,-1.9835,-1.9628,-1.9428,-1.9324,-1.9272,-1.9272,-1.9272,-1.9272,-1.9272,-3.9401,-3.8775,-3.8464,-3.8277,-3.8165,-3.7763,-3.738,-3.694,-3.627,-3.5332,-3.4314,-3.3683,-3.327,-3.3154,-3.3124,-3.3124,-3.3124,-3.3124,-3.3124,-3.3124,-3.3124,-3.3124,-3.3124,-3.3124,-3.3124,-3.3124,-3.3124,-3.3124,-3.3124,-3.3124,-3.3124,-3.3124,-3.3124,-3.3124,-3.3124,-3.3124,-3.3124,-3.3124,-3.3124,-3.3124,-3.3124,-3.3081,-3.2982,-3.2723,-3.2581,-3.2089,-3.1572,-3.0904,-3.0125,-2.9405,-2.8664,-2.8102,-2.7631,-2.7394,-2.7309,-2.732,-2.732,-2.732,-2.732,-2.732,-2.732,-2.732,-2.732,-2.732,-2.732,-2.732,-2.732,-2.732,-2.732,-2.732,-2.732,-2.732,-2.732,-2.732,-2.732,-2.732,-2.732,-2.732,-2.732,-2.732,-2.732,-2.732,-2.732,-2.7299,-2.7194,-2.7071,-2.6534,-2.5907,-2.4864,-2.3985,-2.3438,-2.2887,-2.2695,-2.2603,-2.2594,-2.2443,-2.2342,-2.2182,-2.2021,-2.1827,-2.1573,-2.1318,-2.1113,-2.0917,-2.0719,-2.0411,-2.0153,-1.9783,-1.9576,-1.9428,-1.9324,-1.9272,-1.9272,-1.9272,-1.9272,-3.9224,-3.876,-3.8352,-3.8202,-3.8179,-3.7839,-3.7457,-3.7017,-3.6375,-3.5332,-3.4076,-3.3611,-3.327,-3.3154,-3.3124,-3.3124,-3.3124,-3.3124,-3.3124,-3.3124,-3.3124,-3.3124,-3.3124,-3.3124,-3.3124,-3.3124,-3.3124,-3.3124,-3.3124,-3.3124,-3.3124,-3.3124,-3.3124,-3.3124,-3.3124,-3.3124,-3.3124,-3.3124,-3.3124,-3.3124,-3.3124,-3.3124,-3.3038,-3.281,-3.2636,-3.2376,-3.1849,-3.1229,-3.0499,-2.9726,-2.8978,-2.8279,-2.7809,-2.7489,-2.7357,-2.732,-2.732,-2.732,-2.732,-2.732,-2.732,-2.732,-2.732,-2.732,-2.732,-2.732,-2.732,-2.732,-2.732,-2.732,-2.732,-2.732,-2.732,-2.732,-2.732,-2.732,-2.732,-2.732,-2.732,-2.732,-2.732,-2.732,-2.732,-2.732,-2.7272,-2.7225,-2.6842,-2.6149,-2.5206,-2.4372,-2.3687,-2.3197,-2.2745,-2.2703,-2.2603,-2.2493,-2.2443,-2.2434,-2.2283,-2.2131,-2.1886,-2.1623,-2.1369,-2.1173,-2.0925,-2.0727,-2.0411,-2.0094,-1.9791,-1.948,-1.9376,-1.9279,-1.9272,-1.9272,-1.9272,-3.8811,-3.8745,-3.8375,-3.8202,-3.8165,-3.7991,-3.7663,-3.7187,-3.648,-3.544,-3.416,-3.3641,-3.3313,-3.3167,-3.3124,-3.3124,-3.3124,-3.3124,-3.3124,-3.3124,-3.3124,-3.3124,-3.3124,-3.3124,-3.3124,-3.3124,-3.3124,-3.3124,-3.3124,-3.3124,-3.3124,-3.3124,-3.3124,-3.3124,-3.3124,-3.3124,-3.3124,-3.3124,-3.3124,-3.3124,-3.3124,-3.3124,-3.3068,-3.2896,-3.268,-3.2419,-3.1994,-3.1362,-3.0634,-3.0,-2.9071,-2.8409,-2.794,-2.7489,-2.7309,-2.732,-2.732,-2.732,-2.732,-2.732,-2.732,-2.732,-2.732,-2.732,-2.732,-2.732,-2.732,-2.732,-2.732,-2.732,-2.732,-2.732,-2.732,-2.732,-2.732,-2.732,-2.732,-2.732,-2.732,-2.732,-2.732,-2.732,-2.732,-2.732,-2.732,-2.7225,-2.7044,-2.64,-2.5509,-2.4775,-2.4084,-2.3447,-2.2946,-2.2695,-2.2653,-2.2603,-2.2594,-2.2594,-2.2493,-2.2342,-2.219,-2.1979,-2.1725,-2.1428,-2.1173,-2.0976,-2.0719,-2.0462,-2.005,-1.9687,-1.9435,-1.9331,-1.9279,-1.9272,-1.9272,-3.8782,-3.8745,-3.8352,-3.8202,-3.8165,-3.7991,-3.7663,-3.7134,-3.6177,-3.5182,-3.4356,-3.381,-3.3398,-3.321,-3.3124,-3.3124,-3.3124,-3.3124,-3.3124,-3.3124,-3.3124,-3.3124,-3.3124,-3.3124,-3.3124,-3.3124,-3.3124,-3.3124,-3.3124,-3.3124,-3.3124,-3.3124,-3.3124,-3.3124,-3.3124,-3.3124,-3.3124,-3.3124,-3.3124,-3.3124,-3.3124,-3.3081,-3.3025,-3.2853,-3.2636,-3.2332,-3.1937,-3.1217,-3.0601,-2.9966,-2.9035,-2.8373,-2.7998,-2.7547,-2.732,-2.732,-2.732,-2.732,-2.732,-2.732,-2.732,-2.732,-2.732,-2.732,-2.732,-2.732,-2.732,-2.732,-2.732,-2.732,-2.732,-2.732,-2.732,-2.732,-2.732,-2.732,-2.732,-2.732,-2.732,-2.732,-2.732,-2.732,-2.732,-2.732,-2.732,-2.7272,-2.7081,-2.6688,-2.5897,-2.5167,-2.444,-2.3737,-2.3197,-2.2896,-2.2695,-2.2695,-2.2653,-2.2594,-2.2594,-2.2544,-2.2392,-2.2232,-2.208,-2.1776,-2.1522,-2.1224,-2.0917,-2.0617,-2.0205,-1.9843,-1.9583,-1.9383,-1.9272,-1.9272,-1.9272,-3.8855,-3.8745,-3.8464,-3.824,-3.8165,-3.8005,-3.7625,-3.6978,-3.5951,-3.51,-3.4426,-3.3894,-3.3471,-3.3197,-3.3124,-3.3124,-3.3124,-3.3124,-3.3124,-3.3124,-3.3124,-3.3124,-3.3124,-3.3124,-3.3124,-3.3124,-3.3124,-3.3124,-3.3124,-3.3124,-3.3124,-3.3124,-3.3124,-3.3124,-3.3124,-3.3124,-3.3124,-3.3124,-3.3124,-3.3124,-3.3081,-3.2995,-3.284,-3.2667,-3.2407,-3.2057,-3.156,-3.0994,-3.0375,-2.96,-2.8907,-2.8243,-2.7867,-2.7584,-2.7309,-2.732,-2.732,-2.732,-2.732,-2.732,-2.732,-2.732,-2.732,-2.732,-2.732,-2.732,-2.732,-2.732,-2.732,-2.732,-2.732,-2.732,-2.732,-2.732,-2.732,-2.732,-2.732,-2.732,-2.732,-2.732,-2.732,-2.732,-2.732,-2.732,-2.732,-2.7225,-2.7129,-2.6767,-2.6382,-2.5664,-2.4981,-2.4282,-2.3687,-2.3338,-2.3038,-2.2846,-2.2745,-2.2653,-2.2603,-2.2603,-2.2544,-2.2384,-2.2283,-2.2072,-2.1725,-2.142,-2.1121,-2.0763,-2.0359,-1.9998,-1.9687,-1.948,-1.9324,-1.9272,-1.9272,-3.898,-3.8797,-3.859,-3.8381,-3.826,-3.814,-3.7546,-3.6679,-3.5965,-3.5182,-3.4356,-3.3894,-3.3471,-3.3154,-3.3124,-3.3124,-3.3124,-3.3124,-3.3124,-3.3124,-3.3124,-3.3124,-3.3124,-3.3124,-3.3124,-3.3124,-3.3124,-3.3124,-3.3124,-3.3124,-3.3124,-3.3124,-3.3124,-3.3124,-3.3124,-3.3124,-3.3124,-3.3124,-3.3124,-3.3124,-3.3081,-3.2909,-3.2766,-3.255,-3.2189,-3.1705,-3.116,-3.0623,-2.9897,-2.9266,-2.8617,-2.8102,-2.7726,-2.7441,-2.7357,-2.732,-2.732,-2.732,-2.732,-2.732,-2.732,-2.732,-2.732,-2.732,-2.732,-2.732,-2.732,-2.732,-2.732,-2.732,-2.732,-2.732,-2.732,-2.732,-2.732,-2.732,-2.732,-2.732,-2.732,-2.732,-2.732,-2.732,-2.734,-2.734,-2.7537,-2.7521,-2.7486,-2.7434,-2.7033,-2.6334,-2.5635,-2.4971,-2.4372,-2.3877,-2.3538,-2.3214,-2.2846,-2.2695,-2.2603,-2.2603,-2.2594,-2.2552,-2.2434,-2.2232,-2.1878,-2.1522,-2.1121,-2.0771,-2.0462,-2.0145,-1.9835,-1.9583,-1.9376,-1.9324,-1.9272,-3.9068,-3.8995,-3.8664,-3.8741,-3.908,-3.8857,-3.7873,-3.6417,-3.5736,-3.4977,-3.4147,-3.3852,-3.3471,-3.3111,-3.3124,-3.3124,-3.3124,-3.3124,-3.3124,-3.3124,-3.3124,-3.3124,-3.3124,-3.3124,-3.3124,-3.3124,-3.3124,-3.3124,-3.3124,-3.3124,-3.3124,-3.3124,-3.3124,-3.3124,-3.3124,-3.3124,-3.3124,-3.3124,-3.3124,-3.3124,-3.3038,-3.2853,-3.268,-3.2431,-3.2113,-3.1572,-3.0892,-3.0442,-2.976,-2.8989,-2.8373,-2.7904,-2.7631,-2.7404,-2.732,-2.732,-2.732,-2.732,-2.732,-2.732,-2.732,-2.732,-2.732,-2.732,-2.732,-2.732,-2.732,-2.732,-2.732,-2.732,-2.732,-2.732,-2.732,-2.732,-2.732,-2.732,-2.732,-2.732,-2.732,-2.733,-2.733,-2.7434,-2.7434,-2.7655,-2.7841,-2.7862,-2.7865,-2.7881,-2.7703,-2.7045,-2.6543,-2.5888,-2.5328,-2.4889,-2.3995,-2.3536,-2.3073,-2.2745,-2.2748,-2.2748,-2.2731,-2.2672,-2.2586,-2.2291,-2.1878,-2.1479,-2.1027,-2.0771,-2.0565,-2.03,-1.9983,-1.9732,-1.948,-1.9376,-1.9272,-3.9177,-3.9098,-3.9069,-3.9238,-3.9435,-3.915,-3.8098,-3.677,-3.5966,-3.5169,-3.4386,-3.3828,-3.3398,-3.3167,-3.3124,-3.3124,-3.3124,-3.3124,-3.3124,-3.3124,-3.3124,-3.3124,-3.3124,-3.3124,-3.3124,-3.3124,-3.3124,-3.3124,-3.3124,-3.3124,-3.3124,-3.3124,-3.3124,-3.3124,-3.3124,-3.3124,-3.3124,-3.3124,-3.3124,-3.3124,-3.2982,-3.284,-3.2605,-3.24,-3.2081,-3.1439,-3.0713,-3.0306,-2.9634,-2.8803,-2.8186,-2.7809,-2.7584,-2.7357,-2.732,-2.732,-2.732,-2.732,-2.732,-2.732,-2.732,-2.732,-2.732,-2.732,-2.732,-2.732,-2.732,-2.732,-2.732,-2.732,-2.732,-2.732,-2.732,-2.732,-2.732,-2.732,-2.732,-2.732,-2.733,-2.7351,-2.7434,-2.751,-2.7696,-2.7997,-2.8204,-2.8245,-2.8286,-2.8309,-2.826,-2.7947,-2.7518,-2.7082,-2.6526,-2.5998,-2.5026,-2.4189,-2.3814,-2.3477,-2.3221,-2.3177,-2.3014,-2.2784,-2.2698,-2.2265,-2.1827,-2.1393,-2.1032,-2.0881,-2.0719,-2.0395,-2.0034,-1.9783,-1.9532,-1.9324,-1.9272,-3.9301,-3.9164,-3.9668,-3.978,-3.9565,-3.9206,-3.8519,-3.7555,-3.6534,-3.5594,-3.4783,-3.3917,-3.3401,-3.3149,-3.3124,-3.3124,-3.3124,-3.3124,-3.3124,-3.3124,-3.3124,-3.3124,-3.3124,-3.3124,-3.3124,-3.3124,-3.3124,-3.3124,-3.3124,-3.3124,-3.3124,-3.3124,-3.3124,-3.3124,-3.3124,-3.3124,-3.3124,-3.3124,-3.3124,-3.3124,-3.3038,-3.2853,-3.2593,-3.2388,-3.1994,-3.1439,-3.0769,-3.0136,-2.9508,-2.8757,-2.8149,-2.7867,-2.7489,-2.7309,-2.7309,-2.732,-2.732,-2.732,-2.732,-2.732,-2.732,-2.732,-2.732,-2.732,-2.732,-2.732,-2.732,-2.732,-2.732,-2.732,-2.732,-2.732,-2.732,-2.732,-2.732,-2.732,-2.732,-2.734,-2.7403,-2.7417,-2.7614,-2.7759,-2.8069,-2.8369,-2.8659,-2.868,-2.8825,-2.8887,-2.8785,-2.8652,-2.8376,-2.8065,-2.7502,-2.6881,-2.6184,-2.5372,-2.4832,-2.4445,-2.3948,-2.3572,-2.3392,-2.3073,-2.2774,-2.238,-2.1995,-2.1488,-2.1103,-2.0945,-2.0692,-2.0292,-1.9983,-1.9776,-1.9576,-1.9324,-1.9272,-3.9373,-3.942,-4.0178,-4.046,-4.0388,-4.0308,-3.9698,-3.8759,-3.7378,-3.6027,-3.4773,-3.4214,-3.3674,-3.3212,-3.3136,-3.3124,-3.3124,-3.3124,-3.3124,-3.3124,-3.3124,-3.3124,-3.3124,-3.3124,-3.3124,-3.3124,-3.3124,-3.3124,-3.3124,-3.3124,-3.3124,-3.3124,-3.3124,-3.3124,-3.3124,-3.3124,-3.3124,-3.3124,-3.3124,-3.3124,-3.3081,-3.2853,-3.2624,-3.2463,-3.2145,-3.1705,-3.1128,-3.0623,-2.9852,-2.9071,-2.8524,-2.7961,-2.7357,-2.7309,-2.732,-2.732,-2.732,-2.732,-2.732,-2.732,-2.732,-2.732,-2.732,-2.732,-2.732,-2.732,-2.732,-2.732,-2.732,-2.732,-2.732,-2.732,-2.732,-2.732,-2.732,-2.732,-2.732,-2.7403,-2.7427,-2.7624,-2.7831,-2.8152,-2.8462,-2.8752,-2.9032,-2.9301,-2.957,-2.9673,-2.9611,-2.9446,-2.9022,-2.8675,-2.8298,-2.7673,-2.706,-2.6498,-2.5915,-2.5073,-2.4501,-2.4131,-2.3761,-2.3421,-2.3083,-2.2623,-2.2217,-2.1707,-2.1247,-2.0837,-2.0532,-2.0212,-1.9931,-1.9732,-1.9524,-1.9324,-1.9272,-3.9388,-3.9516,-4.0469,-4.0852,-4.0891,-4.0984,-4.0473,-3.9489,-3.826,-3.6867,-3.5434,-3.4577,-3.384,-3.3413,-3.3262,-3.3124,-3.3124,-3.3124,-3.3124,-3.3124,-3.3124,-3.3124,-3.3124,-3.3124,-3.3124,-3.3124,-3.3124,-3.3124,-3.3124,-3.3124,-3.3124,-3.3124,-3.3124,-3.3124,-3.3124,-3.3124,-3.3124,-3.3124,-3.3124,-3.3124,-3.3124,-3.2939,-3.2797,-3.2624,-3.2419,-3.1969,-3.1484,-3.0982,-3.0216,-2.9255,-2.8477,-2.7867,-2.7404,-2.732,-2.732,-2.732,-2.732,-2.732,-2.732,-2.732,-2.732,-2.732,-2.732,-2.732,-2.732,-2.732,-2.732,-2.732,-2.732,-2.732,-2.732,-2.732,-2.732,-2.732,-2.732,-2.732,-2.7434,-2.7521,-2.7634,-2.779,-2.8162,-2.8731,-2.9042,-2.9321,-2.9549,-2.9622,-2.9942,-2.9963,-2.9984,-2.9994,-2.9632,-2.9322,-2.8911,-2.8625,-2.8217,-2.7577,-2.6945,-2.6037,-2.5103,-2.456,-2.4175,-2.3767,-2.3352,-2.2926,-2.2425,-2.1949,-2.1494,-2.1005,-2.0527,-2.022,-1.9894,-1.9635,-1.9428,-1.9272,-1.9272,-3.9433,-3.9687,-4.065,-4.1116,-4.1149,-4.1347,-4.083,-3.9908,-3.9011,-3.7949,-3.667,-3.5022,-3.4256,-3.3734,-3.3458,-3.3232,-3.3093,-3.3124,-3.3124,-3.3124,-3.3124,-3.3124,-3.3124,-3.3124,-3.3124,-3.3124,-3.3124,-3.3124,-3.3124,-3.3124,-3.3124,-3.3124,-3.3124,-3.3124,-3.3124,-3.3124,-3.3124,-3.3124,-3.3124,-3.3124,-3.3124,-3.3124,-3.2939,-3.2853,-3.268,-3.2363,-3.1793,-3.1205,-3.0532,-2.9623,-2.8606,-2.7914,-2.7489,-2.7404,-2.7309,-2.7309,-2.732,-2.732,-2.732,-2.732,-2.732,-2.732,-2.732,-2.732,-2.732,-2.732,-2.732,-2.732,-2.732,-2.732,-2.732,-2.733,-2.733,-2.7351,-2.7351,-2.7413,-2.7541,-2.7728,-2.7872,-2.8028,-2.8607,-2.9218,-2.9528,-2.9808,-2.9901,-2.9973,-2.9994,-2.9994,-2.9994,-2.9994,-2.9829,-2.9735,-2.9591,-2.9339,-2.9104,-2.8443,-2.7699,-2.6854,-2.5928,-2.5216,-2.46,-2.4141,-2.3679,-2.3199,-2.2686,-2.2264,-2.1719,-2.1204,-2.0707,-2.026,-1.9806,-1.9487,-1.9428,-1.9272,-1.9272,-3.9738,-4.0292,-4.0859,-4.1194,-4.135,-4.1374,-4.0873,-3.9952,-3.9189,-3.8392,-3.7508,-3.6431,-3.5264,-3.3922,-3.3834,-3.3596,-3.3206,-3.3187,-3.3124,-3.3124,-3.3124,-3.3124,-3.3124,-3.3124,-3.3124,-3.3124,-3.3124,-3.3124,-3.3124,-3.3124,-3.3124,-3.3124,-3.3124,-3.3124,-3.3124,-3.3124,-3.3124,-3.3124,-3.3124,-3.3124,-3.3124,-3.3124,-3.3068,-3.2939,-3.281,-3.255,-3.2201,-3.1793,-3.116,-3.0306,-2.9209,-2.8279,-2.7773,-2.7489,-2.7452,-2.7309,-2.732,-2.732,-2.732,-2.732,-2.732,-2.732,-2.732,-2.732,-2.732,-2.732,-2.732,-2.733,-2.733,-2.734,-2.7351,-2.7382,-2.7392,-2.7455,-2.7486,-2.7624,-2.7821,-2.8038,-2.8235,-2.8597,-2.9083,-2.9508,-2.9798,-2.9953,-2.9953,-2.9994,-2.9994,-2.9994,-2.9994,-2.9994,-2.9994,-2.9994,-2.9994,-2.9827,-2.9533,-2.8933,-2.8184,-2.7447,-2.6545,-2.5555,-2.4815,-2.4505,-2.4038,-2.353,-2.3124,-2.2729,-2.21,-2.1455,-2.0901,-2.04,-1.9747,-1.9338,-1.9331,-1.9272,-1.9272]},{"header":{"parameterUnit":"m.s-1","parameterCategory":1,"la1":31.0,"la2":29.5877,"lo1":-88.7671,"lo2":-86.6584,"dy":0.0162,"dx":0.0185,"nx":115,"ny":88,"refTime":"2024-04-03T12:00:00:Z","depth":0,"parameterNumber":3,"parameterNumberName":"V-component_of_WINDS"},"data":[0.0,0.0,0.0,0.0,0.0,0.0,0.0,0.0,0.0,0.0,0.0,0.0,0.0,0.0,0.0,0.0,0.0,0.0,0.0,0.0,0.0,0.0,0.0,0.0,0.0,0.0,0.0,0.0,0.0,0.0,0.0,0.0,0.0,0.0,0.0,0.0,0.0,0.0,0.0,0.0,0.0,0.0,0.0,0.0,0.0,0.0,0.0,0.0,0.0,0.0,0.0,0.0,0.0,0.0,0.0,0.0,0.0,0.0,0.0,0.0,0.0,0.0,0.0,0.0,0.0,0.0,0.0,0.0,0.0,0.0,0.0,0.0,0.0,0.0,0.0,0.0,0.0,0.0,0.0,0.0,0.0,0.0,0.0,0.0,0.0,0.0,0.0,0.0,0.0,0.0,0.0,0.0,0.0,0.0,0.0,0.0,0.0,0.0,0.0,0.0,0.0,0.0,0.0,0.0,0.0,0.0,0.0,0.0,0.0,0.0,0.0,0.0,0.0,0.0,0.0,0.0,0.0,0.0,0.0,0.0,0.0,0.0,0.0,0.0,0.0,0.0,0.0,0.0,0.0,0.0,0.0,0.0,0.0,0.0,0.0,0.0,0.0,0.0,0.0,0.0,0.0,0.0,0.0,0.0,0.0,0.0,0.0,0.0,0.0,0.0,0.0,0.0,0.0,0.0,0.0,0.0,0.0,0.0,0.0,0.0,0.0,0.0,0.0,0.0,0.0,0.0,0.0,0.0,0.0,0.0,0.0,0.0,0.0,0.0,0.0,0.0,0.0,0.0,0.0,0.0,0.0,0.0,0.0,0.0,0.0,0.0,0.0,0.0,0.0,0.0,0.0,0.0,0.0,0.0,0.0,0.0,0.0,0.0,0.0,0.0,0.0,0.0,0.0,0.0,0.0,0.0,0.0,0.0,0.0,0.0,0.0,0.0,0.0,0.0,0.0,0.0,0.0,0.0,0.0,0.0,0.0,0.0,0.0,0.0,0.0,0.0,0.0,0.0,0.0,0.0,0.0,0.0,0.0,0.0,0.0,0.0,0.0,0.0,0.0,0.0,0.0,0.0,0.0,0.0,0.0,0.0,0.0,0.0,0.0,0.0,0.0,0.0,0.0,0.0,0.0,0.0,0.0,0.0,0.0,0.0,0.0,0.0,0.0,0.0,0.0,0.0,0.0,0.0,0.0,0.0,0.0,0.0,0.0,0.0,0.0,0.0,0.0,0.0,0.0,0.0,0.0,0.0,0.0,0.0,0.0,0.0,0.0,0.0,0.0,0.0,0.0,0.0,0.0,0.0,0.0,0.0,0.0,0.0,0.0,0.0,0.0,0.0,0.0,0.0,0.0,0.0,0.0,0.0,0.0,0.0,0.0,0.0,0.0,0.0,0.0,0.0,0.0,0.0,0.0,0.0,0.0,0.0,0.0,0.0,0.0,0.0,0.0,0.0,0.0,0.0,0.0,0.0,0.0,0.0,0.0,0.0,0.0,0.0,0.0,0.0,0.0,0.0,0.0,0.0,0.0,0.0,0.0,0.0,0.0,0.0,0.0,0.0,0.0,0.0,0.0,0.0,0.0,0.0,0.0,0.0,0.0,0.0,0.0,0.0,0.0,0.0,0.0,0.0,0.0,0.0,0.0,0.0,0.0,0.0,0.0,0.0,0.0,0.0,0.0,0.0,0.0,0.0,0.0,0.0,0.0,0.0,0.0,0.0,0.0,0.0,0.0,0.0,0.0,0.0,0.0,0.0,0.0,0.0,0.0,0.0,0.0,0.0,0.0,0.0,0.0,0.0,0.0,0.0,0.0,0.0,0.0,0.0,0.0,0.0,0.0,0.0,0.0,0.0,0.0,0.0,0.0,0.0,0.0,0.0,0.0,0.0,0.0,0.0,0.0,0.0,0.0,0.0,0.0,0.0,0.0,0.0,0.0,0.0,0.0,0.0,0.0,0.0,0.0,0.0,0.0,0.0,0.0,0.0,0.0,0.0,0.0,0.0,0.0,0.0,0.0,0.0,0.0,0.0,0.0,0.0,0.0,0.0,0.0,0.0,0.0,0.0,0.0,0.0,0.0,0.0,0.0,0.0,0.0,0.0,0.0,0.0,0.0,0.0,0.0,0.0,0.0,0.0,0.0,0.0,0.0,0.0,0.0,0.0,0.0,0.0,0.0,0.0,0.0,0.0,0.0,0.0,0.0,0.0,0.0,0.0,0.0,0.0,0.0,0.0,0.0,0.0,0.0,0.0,0.0,0.0,0.0,0.0,0.0,0.0,0.0,0.0,0.0,0.0,0.0,0.0,0.0,0.0,0.0,0.0,0.0,0.0,0.0,0.0,0.0,0.0,0.0,0.0,0.0,0.0,0.0,0.0,0.0,0.0,0.0,0.0,0.0,0.0,0.0,0.0,0.0,0.0,0.0,0.0,0.0,0.0,0.0,0.0,0.0,0.0,0.0,0.0,0.0,0.0,0.0,0.0,0.0,0.0,0.0,0.0,0.0,0.0,0.0,0.0,0.0,0.0,0.0,0.0,0.0,0.0,0.0,0.0,0.0,0.0,0.0,0.0,0.0,0.0,0.0,0.0,0.0,0.0,0.0,0.0,0.0,0.0,0.0,0.0,0.0,0.0,0.0,0.0,0.0,0.0,0.0,0.0,0.0,0.0,0.0,0.0,0.0,0.0,0.0,0.0,0.0,0.0,0.0,0.0,0.0,0.0,0.0,0.0,0.0,0.0,0.0,0.0,0.0,0.0,0.0,0.0,0.0,0.0,0.0,0.0,0.0,0.0,0.0,0.0,0.0,0.0,0.0,0.0,0.0,0.0,0.0,0.0,0.0,0.0,0.0,0.0,0.0,0.0,0.0,0.0,0.0,0.0,0.0,0.0,0.0,0.0,0.0,0.0,0.0,0.0,0.0,0.0,0.0,0.0,0.0,0.0,0.0,0.0,0.0,0.0,0.0,0.0,0.0,0.0,0.0,0.0,0.0,0.0,0.0,0.0,0.0,0.0,0.0,0.0,0.0,0.0,0.0,0.0,0.0,0.0,0.0,0.0,0.0,0.0,0.0,0.0,0.0,0.0,0.0,0.0,0.0,0.0,0.0,0.0,0.0,0.0,0.0,0.0,0.0,0.0,0.0,0.0,0.0,0.0,0.0,0.0,0.0,0.0,0.0,0.0,0.0,0.0,0.0,0.0,0.0,0.0,0.0,0.0,0.0,0.0,0.0,0.0,0.0,0.0,0.0,0.0,0.0,0.0,0.0,0.0,0.0,0.0,0.0,0.0,0.0,0.0,0.0,0.0,0.0,0.0,0.0,0.0,0.0,0.0,0.0,0.0,0.0,0.0,0.0,0.0,0.0,0.0,0.0,0.0,0.0,0.0,0.0,0.0,0.0,0.0,0.0,0.0,0.0,0.0,0.0,0.0,0.0,0.0,0.0,0.0,0.0,0.0,0.0,0.0,0.0,0.0,0.0,0.0,0.0,0.0,0.0,0.0,0.0,0.0,0.0,0.0,0.0,0.0,0.0,0.0,0.0,0.0,0.0,0.0,0.0,0.0,0.0,0.0,0.0,0.0,0.0,0.0,0.0,0.0,0.0,0.0,0.0,0.0,0.0,0.0,0.0,0.0,0.0,0.0,0.0,0.0,0.0,0.0,0.0,0.0,0.0,0.0,0.0,0.0,0.0,0.0,0.0,0.0,0.0,0.0,0.0,0.0,0.0,0.0,0.0,0.0,0.0,0.0,0.0,0.0,0.0,0.0,0.0,0.0,0.0,0.0,0.0,0.0,0.0,0.0,0.0,0.0,0.0,0.0,0.0,0.0,0.0,0.0,0.0,0.0,0.0,0.0,0.0,0.0,0.0,0.0,0.0,0.0,0.0,0.0,0.0,0.0,0.0,0.0,0.0,0.0,0.0,0.0,0.0,0.0,0.0,0.0,0.0,0.0,0.0,0.0,0.0,0.0,0.0,0.0,0.0,0.0,0.0,0.0,0.0,0.0,0.0,0.0,0.0,0.0,0.0,0.0,0.0,0.0,0.0,0.0,0.0,0.0,0.0,0.0,0.0,0.0,0.0,0.0,0.0,0.0,0.0,0.0,0.0,0.0,0.0,0.0,0.0,0.0,0.0,0.0,0.0,0.0,0.0,0.0,0.0,0.0,0.0,0.0,0.0,0.0,0.0,0.0,0.0,0.0,0.0,0.0,0.0,0.0,0.0,0.0,0.0,0.0,0.0,0.0,0.0,0.0,0.0,0.0,0.0,0.0,0.0,0.0,2.8433,0.0,0.0,0.0,0.0,0.0,0.0,0.0,0.0,0.0,0.0,0.0,0.0,0.0,0.0,0.0,0.0,0.0,0.0,0.0,0.0,0.0,0.0,0.0,0.0,0.0,0.0,0.0,0.0,0.0,0.0,0.0,0.0,0.0,0.0,0.0,0.0,0.0,0.0,0.0,0.0,0.0,0.0,0.0,0.0,0.0,0.0,0.0,0.0,0.0,0.0,0.0,0.0,0.0,0.0,0.0,0.0,0.0,0.0,0.0,0.0,0.0,0.0,0.0,0.0,0.0,0.0,0.0,0.0,0.0,0.0,0.0,0.0,0.0,0.0,0.0,0.0,0.0,0.0,0.0,0.0,0.0,0.0,0.0,0.0,0.0,0.0,0.0,0.0,0.0,0.0,0.0,0.0,0.0,0.0,0.0,0.0,0.0,0.0,0.0,0.0,0.0,0.0,0.0,0.0,0.0,0.0,0.0,0.0,0.0,0.0,2.8724,2.8761,2.8785,2.8816,2.8816,0.0,0.0,0.0,0.0,0.0,0.0,0.0,0.0,0.0,0.0,0.0,0.0,0.0,0.0,0.0,0.0,0.0,0.0,0.0,0.0,0.0,0.0,0.0,0.0,0.0,0.0,0.0,0.0,0.0,0.0,0.0,0.0,0.0,0.0,0.0,0.0,0.0,0.0,0.0,0.0,0.0,0.0,0.0,0.0,0.0,0.0,0.0,0.0,0.0,0.0,0.0,0.0,0.0,0.0,0.0,0.0,0.0,0.0,0.0,0.0,0.0,0.0,0.0,0.0,0.0,0.0,0.0,0.0,0.0,0.0,0.0,0.0,0.0,0.0,0.0,0.0,0.0,0.0,0.0,0.0,0.0,0.0,0.0,0.0,0.0,0.0,0.0,0.0,0.0,0.0,0.0,0.0,0.0,0.0,0.0,0.0,0.0,0.0,0.0,0.0,0.0,0.0,0.0,0.0,0.0,0.0,0.0,0.0,0.0,0.0,0.0,0.0,2.8852,2.8864,2.8864,0.0,0.0,0.0,0.0,0.0,0.0,0.0,0.0,0.0,0.0,0.0,0.0,0.0,0.0,0.0,0.0,0.0,0.0,0.0,0.0,0.0,0.0,0.0,0.0,0.0,0.0,0.0,0.0,0.0,0.0,0.0,0.0,0.0,0.0,0.0,0.0,0.0,0.0,0.0,0.0,0.0,0.0,0.0,0.0,0.0,0.0,0.0,0.0,0.0,0.0,0.0,0.0,0.0,0.0,0.0,0.0,0.0,0.0,0.0,0.0,0.0,0.0,0.0,0.0,0.0,0.0,0.0,0.0,0.0,0.0,0.0,0.0,0.0,0.0,0.0,0.0,0.0,0.0,0.0,0.0,0.0,0.0,0.0,0.0,0.0,0.0,0.0,0.0,0.0,0.0,0.0,0.0,0.0,0.0,0.0,0.0,0.0,0.0,0.0,0.0,0.0,0.0,0.0,0.0,0.0,0.0,0.0,0.0,0.0,0.0,2.8893,2.8893,2.894,0.0,2.8982,0.0,0.0,0.0,0.0,0.0,0.0,0.0,0.0,0.0,0.0,0.0,0.0,0.0,0.0,0.0,0.0,0.0,0.0,0.0,0.0,0.0,0.0,0.0,0.0,0.0,0.0,0.0,0.0,0.0,0.0,0.0,0.0,0.0,0.0,0.0,0.0,0.0,0.0,0.0,0.0,0.0,0.0,0.0,0.0,0.0,0.0,0.0,0.0,0.0,0.0,0.0,0.0,0.0,0.0,0.0,0.0,0.0,0.0,0.0,0.0,0.0,0.0,0.0,0.0,0.0,0.0,0.0,0.0,0.0,0.0,0.0,0.0,0.0,0.0,0.0,0.0,0.0,0.0,0.0,0.0,0.0,0.0,0.0,0.0,0.0,0.0,0.0,0.0,0.0,0.0,0.0,0.0,0.0,0.0,0.0,0.0,0.0,0.0,0.0,0.0,0.0,0.0,0.0,0.0,0.0,0.0,0.0,0.0,0.0,0.0,2.897,2.8952,2.8994,2.8987,0.0,0.0,0.0,0.0,0.0,0.0,0.0,0.0,0.0,0.0,0.0,0.0,0.0,0.0,0.0,0.0,0.0,0.0,0.0,0.0,0.0,0.0,0.0,0.0,0.0,0.0,0.0,0.0,0.0,0.0,0.0,0.0,0.0,0.0,0.0,0.0,0.0,0.0,0.0,0.0,0.0,0.0,0.0,0.0,0.0,0.0,0.0,0.0,0.0,0.0,0.0,0.0,0.0,0.0,0.0,0.0,0.0,0.0,0.0,0.0,0.0,0.0,0.0,0.0,0.0,0.0,0.0,0.0,0.0,0.0,0.0,0.0,0.0,0.0,0.0,0.0,0.0,0.0,0.0,0.0,0.0,0.0,0.0,0.0,0.0,0.0,0.0,0.0,0.0,0.0,0.0,0.0,0.0,0.0,0.0,0.0,0.0,0.0,0.0,0.0,0.0,0.0,0.0,0.0,0.0,0.0,0.0,0.0,0.0,0.0,2.8987,2.8987,2.8987,2.8987,2.8987,2.8987,0.0,0.0,0.0,0.0,0.0,0.0,0.0,0.0,0.0,0.0,0.0,0.0,0.0,0.0,0.0,0.0,0.0,0.0,0.0,0.0,0.0,0.0,0.0,0.0,0.0,0.0,0.0,0.0,0.0,0.0,0.0,0.0,0.0,0.0,0.0,0.0,0.0,0.0,0.0,0.0,0.0,0.0,0.0,0.0,0.0,0.0,0.0,0.0,0.0,0.0,0.0,0.0,0.0,0.0,0.0,0.0,0.0,0.0,0.0,0.0,0.0,0.0,0.0,0.0,0.0,0.0,0.0,0.0,0.0,0.0,0.0,0.0,0.0,0.0,0.0,0.0,0.0,0.0,0.0,0.0,0.0,0.0,0.0,0.0,0.0,0.0,0.0,0.0,0.0,0.0,0.0,0.0,0.0,0.0,0.0,0.0,0.0,0.0,0.0,0.0,0.0,0.0,0.0,0.0,0.0,0.0,0.0,0.0,2.8987,2.8987,2.8987,2.8987,2.8987,2.8987,0.0,0.0,0.0,0.0,0.0,0.0,0.0,0.0,0.0,0.0,0.0,0.0,0.0,0.0,0.0,0.0,0.0,0.0,0.0,0.0,0.0,0.0,0.0,0.0,0.0,0.0,0.0,0.0,0.0,0.0,0.0,0.0,0.0,0.0,0.0,0.0,0.0,0.0,0.0,0.0,0.0,0.0,0.0,0.0,0.0,0.0,0.0,0.0,0.0,0.0,0.0,0.0,0.0,0.0,0.0,0.0,0.0,0.0,0.0,0.0,0.0,0.0,0.0,0.0,0.0,0.0,0.0,0.0,0.0,0.0,0.0,0.0,0.0,0.0,0.0,0.0,0.0,0.0,0.0,0.0,0.0,0.0,0.0,0.0,0.0,0.0,0.0,0.0,0.0,0.0,0.0,0.0,0.0,0.0,0.0,0.0,0.0,0.0,0.0,0.0,0.0,0.0,0.0,0.0,0.0,0.0,0.0,0.0,0.0,2.8987,2.8987,2.8987,2.8987,2.8987,2.8987,0.0,0.0,0.0,0.0,0.0,0.0,0.0,0.0,0.0,0.0,0.0,0.0,0.0,0.0,0.0,0.0,0.0,0.0,0.0,0.0,0.0,0.0,0.0,0.0,0.0,0.0,0.0,0.0,0.0,0.0,0.0,0.0,0.0,0.0,0.0,0.0,0.0,0.0,0.0,0.0,0.0,0.0,0.0,0.0,0.0,0.0,0.0,0.0,0.0,0.0,0.0,0.0,0.0,0.0,0.0,0.0,0.0,0.0,0.0,0.0,0.0,0.0,0.0,0.0,0.0,0.0,0.0,0.0,0.0,0.0,0.0,0.0,0.0,0.0,0.0,0.0,0.0,0.0,0.0,0.0,0.0,0.0,0.0,0.0,0.0,0.0,0.0,0.0,0.0,0.0,0.0,0.0,0.0,0.0,0.0,0.0,0.0,0.0,0.0,0.0,0.0,0.0,0.0,0.0,0.0,0.0,0.0,0.0,0.0,2.8987,0.0,2.8987,2.8987,2.8987,2.8987,0.0,0.0,0.0,0.0,0.0,0.0,0.0,0.0,0.0,0.0,0.0,0.0,0.0,0.0,0.0,0.0,0.0,0.0,0.0,0.0,0.0,0.0,0.0,0.0,0.0,0.0,0.0,0.0,0.0,0.0,0.0,0.0,0.0,0.0,0.0,0.0,0.0,0.0,0.0,0.0,0.0,0.0,0.0,0.0,0.0,0.0,0.0,0.0,0.0,0.0,0.0,0.0,0.0,0.0,0.0,0.0,0.0,0.0,0.0,0.0,0.0,0.0,0.0,0.0,0.0,0.0,0.0,0.0,0.0,0.0,0.0,0.0,0.0,0.0,0.0,0.0,0.0,0.0,0.0,0.0,0.0,0.0,0.0,0.0,0.0,0.0,0.0,0.0,0.0,0.0,0.0,0.0,0.0,0.0,0.0,0.0,0.0,0.0,0.0,0.0,0.0,0.0,0.0,0.0,0.0,0.0,0.0,0.0,2.8987,2.8987,2.8987,2.8987,2.8987,2.8987,2.8987,0.0,0.0,0.0,0.0,0.0,0.0,0.0,0.0,0.0,0.0,0.0,0.0,0.0,0.0,0.0,0.0,0.0,0.0,0.0,0.0,0.0,0.0,0.0,0.0,0.0,0.0,0.0,0.0,0.0,0.0,0.0,0.0,0.0,0.0,0.0,0.0,0.0,0.0,0.0,0.0,0.0,0.0,0.0,0.0,0.0,0.0,0.0,0.0,0.0,0.0,0.0,0.0,0.0,0.0,0.0,0.0,0.0,0.0,0.0,0.0,0.0,0.0,0.0,0.0,0.0,0.0,0.0,0.0,0.0,0.0,0.0,0.0,0.0,0.0,0.0,0.0,0.0,0.0,0.0,0.0,0.0,0.0,0.0,0.0,0.0,0.0,0.0,0.0,0.0,0.0,0.0,0.0,0.0,0.0,0.0,0.0,0.0,0.0,0.0,0.0,0.0,0.0,0.0,0.0,0.0,0.0,0.0,0.0,0.0,2.8987,2.8987,2.8987,2.8987,2.8987,2.8987,0.0,0.0,0.0,0.0,0.0,0.0,0.0,0.0,0.0,0.0,0.0,0.0,0.0,0.0,0.0,0.0,0.0,0.0,0.0,0.0,0.0,0.0,0.0,0.0,0.0,0.0,0.0,0.0,0.0,0.0,0.0,0.0,0.0,0.0,0.0,0.0,0.0,0.0,0.0,0.0,0.0,0.0,0.0,0.0,0.0,0.0,0.0,0.0,0.0,0.0,0.0,0.0,0.0,0.0,0.0,0.0,0.0,0.0,0.0,0.0,0.0,0.0,0.0,0.0,0.0,0.0,0.0,0.0,0.0,0.0,0.0,0.0,0.0,0.0,0.0,0.0,0.0,0.0,0.0,0.0,0.0,0.0,0.0,0.0,0.0,0.0,0.0,0.0,0.0,0.0,0.0,0.0,0.0,0.0,0.0,0.0,0.0,0.0,0.0,0.0,0.0,0.0,0.0,0.0,0.0,0.0,0.0,0.0,0.0,2.8952,2.8994,2.8987,2.8987,2.8987,2.8987,2.8987,0.0,0.0,0.0,0.0,0.0,0.0,0.0,0.0,0.0,0.0,0.0,0.0,0.0,0.0,0.0,0.0,0.0,0.0,0.0,0.0,0.0,0.0,0.0,0.0,0.0,0.0,0.0,0.0,0.0,0.0,0.0,0.0,0.0,0.0,0.0,0.0,0.0,0.0,0.0,0.0,0.0,0.0,0.0,0.0,0.0,0.0,0.0,0.0,0.0,0.0,0.0,0.0,0.0,0.0,0.0,0.0,0.0,0.0,0.0,0.0,0.0,0.0,0.0,0.0,0.0,0.0,0.0,0.0,0.0,0.0,0.0,0.0,0.0,0.0,0.0,0.0,0.0,0.0,0.0,0.0,0.0,0.0,0.0,0.0,0.0,0.0,0.0,0.0,0.0,0.0,0.0,0.0,0.0,0.0,0.0,0.0,0.0,0.0,0.0,0.0,0.0,0.0,0.0,0.0,0.0,0.0,0.0,0.0,2.8905,2.8952,2.8994,2.8987,2.8987,2.8987,0.0,0.0,0.0,0.0,0.0,0.0,0.0,0.0,0.0,0.0,0.0,0.0,0.0,0.0,0.0,0.0,0.0,0.0,0.0,0.0,0.0,0.0,0.0,0.0,0.0,0.0,0.0,0.0,0.0,0.0,0.0,0.0,0.0,0.0,0.0,0.0,0.0,0.0,0.0,0.0,0.0,0.0,0.0,0.0,0.0,0.0,0.0,0.0,0.0,0.0,0.0,0.0,0.0,0.0,0.0,0.0,0.0,0.0,0.0,0.0,0.0,0.0,0.0,0.0,0.0,0.0,0.0,0.0,0.0,0.0,0.0,0.0,0.0,0.0,0.0,0.0,0.0,0.0,0.0,0.0,0.0,0.0,0.0,0.0,0.0,0.0,0.0,0.0,0.0,0.0,0.0,0.0,0.0,0.0,0.0,0.0,0.0,0.0,0.0,0.0,0.0,0.0,0.0,0.0,0.0,0.0,0.0,0.0,0.0,2.8834,2.8893,2.8959,2.9005,2.8987,2.8987,0.0,0.0,0.0,0.0,0.0,0.0,0.0,0.0,0.0,0.0,0.0,0.0,0.0,0.0,0.0,0.0,0.0,0.0,0.0,0.0,0.0,0.0,0.0,0.0,0.0,0.0,0.0,0.0,0.0,0.0,0.0,0.0,0.0,0.0,0.0,0.0,0.0,0.0,0.0,0.0,0.0,0.0,0.0,0.0,0.0,0.0,0.0,0.0,0.0,0.0,0.0,0.0,0.0,0.0,0.0,0.0,0.0,0.0,0.0,0.0,0.0,0.0,0.0,0.0,0.0,0.0,0.0,0.0,0.0,0.0,0.0,0.0,0.0,0.0,0.0,0.0,0.0,0.0,0.0,0.0,0.0,0.0,0.0,0.0,0.0,0.0,0.0,0.0,0.0,0.0,0.0,0.0,0.0,0.0,0.0,0.0,0.0,0.0,0.0,0.0,0.0,0.0,0.0,0.0,0.0,0.0,0.0,0.0,2.8662,2.8712,2.8749,2.8834,2.8952,2.8994,2.8987,0.0,0.0,0.0,0.0,0.0,0.0,0.0,0.0,0.0,0.0,0.0,0.0,0.0,0.0,0.0,0.0,0.0,0.0,0.0,0.0,0.0,0.0,0.0,0.0,0.0,0.0,0.0,0.0,0.0,0.0,0.0,0.0,0.0,0.0,0.0,0.0,0.0,0.0,0.0,0.0,0.0,0.0,0.0,0.0,0.0,0.0,0.0,0.0,0.0,0.0,0.0,0.0,0.0,0.0,0.0,0.0,0.0,0.0,0.0,0.0,0.0,0.0,0.0,0.0,0.0,0.0,0.0,0.0,0.0,0.0,0.0,0.0,0.0,0.0,0.0,0.0,0.0,0.0,0.0,0.0,0.0,0.0,0.0,0.0,0.0,0.0,0.0,0.0,0.0,0.0,0.0,0.0,0.0,0.0,0.0,0.0,0.0,0.0,0.0,0.0,0.0,0.0,0.0,0.0,0.0,0.0,0.0,0.0,2.8526,2.8726,2.8726,2.8863,2.9131,2.9032,2.8994,0.0,0.0,0.0,0.0,0.0,0.0,0.0,0.0,0.0,0.0,0.0,0.0,0.0,0.0,0.0,0.0,0.0,0.0,0.0,0.0,0.0,0.0,0.0,0.0,0.0,0.0,0.0,0.0,0.0,0.0,0.0,0.0,0.0,0.0,0.0,0.0,0.0,0.0,0.0,0.0,0.0,0.0,0.0,0.0,0.0,0.0,0.0,0.0,0.0,0.0,0.0,0.0,0.0,0.0,0.0,0.0,0.0,0.0,0.0,0.0,0.0,0.0,0.0,0.0,0.0,0.0,0.0,0.0,0.0,0.0,0.0,0.0,0.0,0.0,0.0,0.0,0.0,0.0,0.0,0.0,0.0,0.0,0.0,0.0,0.0,0.0,0.0,0.0,0.0,0.0,0.0,0.0,0.0,0.0,0.0,0.0,0.0,0.0,0.0,0.0,0.0,0.0,0.0,0.0,0.0,0.0,0.0,0.0,2.8882,2.9518,2.9588,2.9979,3.0701,2.9552,2.894,0.0,0.0,0.0,0.0,0.0,0.0,0.0,0.0,0.0,0.0,0.0,0.0,0.0,0.0,0.0,0.0,0.0,0.0,0.0,0.0,0.0,0.0,0.0,0.0,0.0,0.0,0.0,0.0,0.0,0.0,0.0,0.0,0.0,0.0,0.0,0.0,0.0,0.0,0.0,0.0,0.0,0.0,0.0,0.0,0.0,0.0,0.0,0.0,3.0525,0.0,0.0,0.0,0.0,0.0,0.0,0.0,0.0,0.0,0.0,0.0,0.0,0.0,0.0,0.0,0.0,0.0,0.0,0.0,0.0,0.0,0.0,0.0,0.0,0.0,0.0,0.0,0.0,0.0,0.0,0.0,0.0,0.0,0.0,0.0,0.0,0.0,0.0,0.0,0.0,0.0,0.0,0.0,0.0,0.0,0.0,0.0,0.0,0.0,0.0,0.0,0.0,0.0,0.0,0.0,0.0,0.0,0.0,0.0,2.9801,3.0256,3.0382,3.0675,3.1149,3.0423,2.9881,0.0,0.0,0.0,0.0,0.0,0.0,0.0,0.0,0.0,0.0,0.0,0.0,0.0,0.0,0.0,0.0,0.0,0.0,0.0,0.0,0.0,0.0,0.0,0.0,0.0,0.0,0.0,0.0,0.0,0.0,0.0,0.0,0.0,0.0,0.0,0.0,0.0,0.0,0.0,0.0,0.0,0.0,0.0,0.0,0.0,0.0,0.0,0.0,0.0,0.0,0.0,0.0,0.0,0.0,0.0,0.0,0.0,0.0,0.0,0.0,0.0,0.0,0.0,0.0,0.0,0.0,0.0,0.0,0.0,0.0,0.0,0.0,0.0,0.0,0.0,0.0,0.0,0.0,0.0,0.0,0.0,0.0,0.0,0.0,0.0,0.0,0.0,0.0,0.0,0.0,0.0,0.0,0.0,0.0,0.0,0.0,0.0,0.0,0.0,0.0,0.0,0.0,0.0,0.0,0.0,0.0,0.0,3.1105,3.0812,3.0981,3.1101,3.1293,3.1536,3.1506,3.1199,3.0607,0.0,0.0,0.0,0.0,0.0,0.0,0.0,0.0,0.0,0.0,0.0,0.0,0.0,0.0,0.0,0.0,0.0,0.0,0.0,0.0,0.0,0.0,0.0,0.0,0.0,0.0,0.0,0.0,0.0,0.0,0.0,0.0,0.0,0.0,0.0,0.0,0.0,0.0,3.0404,3.0404,0.0,0.0,0.0,0.0,0.0,0.0,0.0,0.0,3.0491,0.0,0.0,0.0,0.0,0.0,0.0,0.0,0.0,0.0,0.0,0.0,0.0,0.0,0.0,0.0,0.0,0.0,0.0,0.0,0.0,0.0,0.0,0.0,0.0,0.0,0.0,0.0,0.0,0.0,0.0,0.0,0.0,0.0,0.0,0.0,0.0,0.0,0.0,0.0,0.0,0.0,0.0,0.0,0.0,0.0,0.0,0.0,0.0,0.0,0.0,0.0,0.0,0.0,0.0,0.0,0.0,3.1954,3.1182,3.1124,3.1804,3.1892,3.231,3.3069,3.2593,3.2305,3.2268,0.0,0.0,0.0,0.0,0.0,0.0,0.0,0.0,0.0,0.0,0.0,0.0,0.0,0.0,0.0,0.0,0.0,0.0,0.0,0.0,0.0,0.0,0.0,0.0,0.0,0.0,0.0,0.0,0.0,0.0,0.0,0.0,0.0,0.0,0.0,0.0,0.0,0.0,0.0,3.0404,3.0404,0.0,0.0,0.0,0.0,0.0,0.0,0.0,0.0,3.0583,0.0,0.0,0.0,0.0,0.0,0.0,0.0,0.0,0.0,0.0,0.0,0.0,0.0,0.0,0.0,0.0,0.0,0.0,0.0,0.0,0.0,0.0,0.0,0.0,0.0,0.0,0.0,0.0,0.0,0.0,0.0,0.0,0.0,0.0,0.0,0.0,0.0,0.0,0.0,0.0,0.0,0.0,0.0,0.0,0.0,0.0,0.0,0.0,0.0,0.0,0.0,0.0,0.0,0.0,0.0,3.2455,3.2109,3.2143,3.2501,3.2685,3.2984,3.3415,3.3222,3.3158,0.0,0.0,0.0,0.0,0.0,0.0,0.0,0.0,0.0,0.0,0.0,0.0,0.0,0.0,0.0,0.0,0.0,0.0,0.0,0.0,0.0,0.0,0.0,0.0,0.0,0.0,0.0,0.0,0.0,0.0,0.0,0.0,0.0,0.0,0.0,0.0,0.0,0.0,0.0,0.0,3.0396,3.0402,3.0404,0.0,0.0,0.0,0.0,0.0,0.0,3.116,3.1366,0.0,0.0,0.0,0.0,0.0,0.0,0.0,0.0,0.0,0.0,0.0,0.0,0.0,0.0,0.0,0.0,0.0,0.0,0.0,0.0,0.0,0.0,0.0,0.0,0.0,0.0,0.0,0.0,0.0,0.0,0.0,0.0,0.0,0.0,0.0,0.0,0.0,0.0,0.0,0.0,0.0,0.0,0.0,0.0,0.0,0.0,0.0,0.0,0.0,0.0,0.0,0.0,0.0,0.0,0.0,3.2884,3.2916,3.2916,3.2932,3.3165,3.3319,3.3349,3.353,3.3671,0.0,0.0,0.0,0.0,0.0,0.0,0.0,0.0,0.0,0.0,0.0,0.0,0.0,0.0,0.0,0.0,0.0,0.0,0.0,0.0,0.0,0.0,0.0,0.0,0.0,0.0,0.0,0.0,0.0,0.0,0.0,0.0,0.0,0.0,0.0,0.0,0.0,0.0,0.0,0.0,0.0,3.0475,3.0658,3.0681,0.0,0.0,0.0,0.0,3.1867,3.2017,0.0,0.0,0.0,0.0,0.0,0.0,0.0,0.0,0.0,0.0,0.0,0.0,0.0,0.0,0.0,0.0,0.0,0.0,0.0,0.0,0.0,0.0,0.0,0.0,0.0,0.0,0.0,0.0,0.0,0.0,0.0,0.0,0.0,0.0,0.0,0.0,0.0,0.0,0.0,0.0,0.0,0.0,0.0,0.0,0.0,0.0,0.0,0.0,0.0,0.0,0.0,0.0,0.0,0.0,0.0,0.0,3.2805,3.2688,3.2655,3.2655,3.2852,3.3011,3.3132,3.339,3.3605,0.0,0.0,0.0,0.0,0.0,0.0,0.0,0.0,0.0,0.0,0.0,0.0,0.0,0.0,0.0,0.0,0.0,0.0,0.0,0.0,0.0,0.0,0.0,0.0,0.0,0.0,0.0,0.0,0.0,0.0,0.0,0.0,0.0,0.0,0.0,0.0,0.0,0.0,0.0,0.0,0.0,3.0769,3.1535,3.1637,3.1888,0.0,0.0,3.2731,3.2827,3.2919,0.0,0.0,0.0,0.0,0.0,0.0,0.0,0.0,0.0,0.0,0.0,0.0,0.0,0.0,0.0,0.0,0.0,0.0,0.0,0.0,0.0,0.0,0.0,0.0,0.0,0.0,0.0,0.0,0.0,0.0,0.0,0.0,0.0,0.0,0.0,0.0,0.0,0.0,0.0,0.0,0.0,0.0,0.0,0.0,0.0,0.0,0.0,0.0,0.0,0.0,0.0,0.0,0.0,0.0,0.0,3.259,3.269,3.2622,3.2588,3.2622,3.2786,3.2932,3.2995,3.3289,3.3495,0.0,0.0,0.0,0.0,0.0,0.0,0.0,0.0,0.0,0.0,0.0,0.0,0.0,0.0,0.0,0.0,0.0,0.0,0.0,0.0,0.0,0.0,0.0,0.0,0.0,0.0,0.0,0.0,0.0,0.0,0.0,0.0,0.0,0.0,0.0,0.0,0.0,0.0,0.0,0.0,0.0,0.0,3.2414,3.2527,0.0,0.0,0.0,3.3166,3.3668,0.0,0.0,0.0,0.0,0.0,0.0,0.0,0.0,0.0,0.0,0.0,0.0,0.0,0.0,0.0,0.0,0.0,0.0,0.0,0.0,0.0,0.0,0.0,0.0,0.0,0.0,0.0,0.0,0.0,0.0,0.0,0.0,0.0,0.0,0.0,0.0,0.0,0.0,0.0,0.0,0.0,0.0,0.0,0.0,0.0,0.0,0.0,0.0,0.0,0.0,0.0,0.0,0.0,0.0,0.0,0.0,0.0,3.2573,3.2574,3.2539,3.2557,3.2722,3.2838,3.2868,3.3119,0.0,0.0,0.0,0.0,0.0,0.0,0.0,0.0,0.0,0.0,0.0,0.0,0.0,0.0,0.0,0.0,0.0,0.0,0.0,0.0,0.0,0.0,0.0,0.0,0.0,0.0,0.0,3.0373,0.0,0.0,0.0,0.0,0.0,0.0,0.0,0.0,0.0,0.0,0.0,0.0,0.0,0.0,3.3095,3.3313,3.3374,3.3467,0.0,0.0,3.3903,3.456,3.4635,3.4864,0.0,0.0,0.0,0.0,0.0,0.0,0.0,0.0,0.0,0.0,0.0,0.0,0.0,0.0,0.0,0.0,0.0,0.0,0.0,0.0,0.0,0.0,0.0,0.0,0.0,0.0,0.0,0.0,0.0,0.0,0.0,0.0,0.0,0.0,0.0,0.0,0.0,0.0,0.0,0.0,0.0,0.0,0.0,0.0,0.0,0.0,0.0,0.0,0.0,0.0,0.0,0.0,0.0,0.0,0.0,3.2507,3.2457,3.2423,3.2405,3.249,3.2625,3.2807,3.2902,3.3073,0.0,0.0,0.0,0.0,0.0,0.0,0.0,0.0,0.0,0.0,0.0,0.0,0.0,0.0,0.0,0.0,0.0,0.0,0.0,0.0,0.0,0.0,0.0,0.0,0.0,0.0,0.0,0.0,0.0,0.0,0.0,0.0,0.0,0.0,0.0,0.0,0.0,0.0,0.0,0.0,0.0,3.3393,3.4113,3.4276,3.4601,0.0,0.0,3.5524,3.5607,3.5621,3.5618,3.5697,0.0,0.0,0.0,0.0,0.0,0.0,0.0,0.0,0.0,0.0,0.0,0.0,0.0,0.0,0.0,0.0,0.0,0.0,0.0,0.0,0.0,0.0,0.0,0.0,0.0,0.0,0.0,0.0,0.0,0.0,0.0,0.0,0.0,0.0,0.0,0.0,0.0,0.0,0.0,0.0,0.0,0.0,0.0,0.0,0.0,0.0,0.0,0.0,0.0,0.0,0.0,0.0,0.0,3.2319,3.244,3.2405,3.2406,3.2406,3.2474,3.2523,3.2625,3.2755,3.29,0.0,0.0,0.0,0.0,0.0,0.0,0.0,0.0,0.0,0.0,0.0,0.0,0.0,0.0,0.0,0.0,0.0,0.0,0.0,0.0,0.0,0.0,0.0,0.0,0.0,0.0,0.0,0.0,3.0398,3.059,3.1066,0.0,0.0,0.0,0.0,0.0,0.0,0.0,0.0,0.0,0.0,3.4879,3.5713,3.5867,0.0,0.0,3.7166,3.7186,3.7186,3.7204,3.7247,3.724,3.7249,0.0,0.0,0.0,0.0,0.0,0.0,0.0,0.0,0.0,0.0,0.0,0.0,0.0,0.0,0.0,0.0,0.0,0.0,0.0,0.0,0.0,0.0,0.0,0.0,0.0,0.0,0.0,0.0,0.0,0.0,0.0,0.0,0.0,0.0,0.0,0.0,0.0,0.0,0.0,0.0,0.0,0.0,0.0,0.0,0.0,0.0,0.0,0.0,0.0,0.0,0.0,0.0,3.2196,3.2336,3.2319,3.2354,3.2406,3.2457,3.2473,3.2507,3.2641,3.2773,0.0,0.0,0.0,0.0,0.0,0.0,0.0,0.0,0.0,0.0,0.0,0.0,0.0,0.0,0.0,0.0,0.0,0.0,0.0,0.0,0.0,0.0,0.0,0.0,0.0,0.0,0.0,0.0,3.0579,3.0976,3.1552,0.0,0.0,0.0,0.0,0.0,0.0,0.0,0.0,0.0,0.0,3.6078,3.6717,3.7038,3.7418,3.8009,3.8086,3.8086,3.8086,3.8132,3.817,3.817,0.0,0.0,0.0,0.0,0.0,0.0,0.0,0.0,0.0,0.0,0.0,0.0,0.0,0.0,0.0,0.0,0.0,0.0,0.0,0.0,0.0,0.0,0.0,0.0,0.0,0.0,0.0,0.0,0.0,0.0,2.981,0.0,0.0,0.0,0.0,0.0,0.0,0.0,0.0,0.0,0.0,0.0,0.0,0.0,0.0,0.0,0.0,0.0,0.0,0.0,0.0,0.0,0.0,3.2036,3.2214,3.2284,3.2302,3.2441,3.2423,3.2492,3.2542,3.2525,3.2626,3.2825,0.0,0.0,0.0,0.0,0.0,0.0,0.0,0.0,0.0,0.0,0.0,0.0,0.0,0.0,0.0,0.0,0.0,0.0,0.0,0.0,0.0,0.0,0.0,0.0,0.0,0.0,3.0374,3.1033,3.1608,0.0,0.0,0.0,0.0,0.0,0.0,0.0,0.0,0.0,0.0,3.6133,3.6706,3.6818,3.7545,3.8105,3.8144,3.8125,3.8125,3.8144,3.8144,3.8112,0.0,0.0,0.0,0.0,0.0,0.0,0.0,0.0,0.0,0.0,0.0,0.0,0.0,0.0,0.0,0.0,0.0,0.0,0.0,0.0,0.0,0.0,0.0,0.0,0.0,0.0,0.0,2.8787,2.8881,0.0,0.0,0.0,0.0,0.0,0.0,0.0,0.0,0.0,0.0,0.0,2.9837,2.9924,0.0,0.0,0.0,0.0,0.0,0.0,0.0,0.0,0.0,0.0,0.0,0.0,3.3438,3.3716,3.3735,3.3789,3.3915,3.3933,3.3933,3.3969,3.3969,3.3812,3.3489,0.0,0.0,0.0,0.0,0.0,0.0,0.0,0.0,0.0,0.0,0.0,0.0,0.0,0.0,0.0,0.0,0.0,0.0,0.0,0.0,0.0,0.0,0.0,0.0,0.0,3.2235,0.0,0.0,0.0,0.0,0.0,0.0,0.0,0.0,0.0,0.0,0.0,3.5414,3.6042,3.6383,3.6998,3.8162,3.8589,3.8962,0.0,0.0,0.0,0.0,0.0,0.0,0.0,0.0,0.0,0.0,0.0,0.0,0.0,0.0,4.091,3.8703,3.8292,3.8302,3.8302,0.0,0.0,0.0,0.0,0.0,0.0,0.0,0.0,0.0,0.0,0.0,0.0,0.0,0.0,2.8711,0.0,2.891,0.0,0.0,0.0,0.0,0.0,0.0,0.0,0.0,2.9855,2.9793,3.0005,3.0144,3.0259,0.0,3.0497,3.0766,0.0,0.0,0.0,0.0,0.0,0.0,0.0,0.0,3.3962,3.4293,3.4314,3.4409,3.4541,3.4615,3.4651,3.4688,3.4688,3.4515,3.4147,3.3557,3.3311,0.0,0.0,0.0,0.0,0.0,0.0,0.0,0.0,0.0,0.0,0.0,0.0,0.0,0.0,0.0,0.0,0.0,0.0,0.0,0.0,0.0,0.0,0.0,3.2676,0.0,0.0,0.0,0.0,0.0,0.0,0.0,0.0,0.0,3.5066,3.5313,3.572,3.6353,3.6943,3.775,3.8899,0.0,0.0,0.0,0.0,0.0,0.0,0.0,4.1308,4.1325,4.1859,4.2314,4.2404,4.2876,4.3264,4.3278,0.0,0.0,4.0432,4.0037,4.0037,4.0037,4.0029,4.0034,4.0034,4.0505,4.0918,0.0,0.0,0.0,0.0,0.0,0.0,0.0,0.0,2.9212,2.9172,0.0,2.938,0.0,0.0,0.0,0.0,0.0,2.9982,0.0,0.0,3.0079,3.0288,3.0658,3.0851,3.1124,3.1362,3.1501,3.171,3.1996,3.1634,0.0,0.0,0.0,0.0,0.0,0.0,3.3637,3.3997,3.4083,3.4189,3.4385,3.4535,3.4665,3.4793,3.4776,3.4796,3.4816,3.4182,3.3896,3.4011,3.3494,0.0,0.0,0.0,0.0,0.0,0.0,0.0,0.0,0.0,0.0,0.0,0.0,0.0,0.0,0.0,0.0,0.0,0.0,0.0,0.0,3.3109,0.0,0.0,0.0,0.0,0.0,0.0,0.0,0.0,0.0,0.0,3.5135,3.5733,3.6245,3.6368,0.0,0.0,0.0,0.0,4.054,4.1408,4.1523,4.179,4.2544,4.2727,4.2786,4.2861,0.0,0.0,4.3239,4.3273,4.3334,4.3313,4.3378,4.3296,4.333,4.315,4.3131,4.315,4.3079,4.324,4.3259,4.302,4.3168,3.0717,0.0,0.0,0.0,0.0,2.9222,2.9119,2.8941,2.9134,2.9104,2.9008,2.9297,0.0,0.0,0.0,0.0,0.0,0.0,3.0348,3.0358,2.9988,2.9921,3.0132,3.0366,3.068,3.0999,3.1223,3.1723,3.2482,3.2418,3.2727,3.3367,0.0,0.0,0.0,0.0,3.4962,3.5241,3.5369,3.5479,3.557,3.5905,3.6162,3.634,3.5794,3.5495,3.5515,3.4869,3.4553,3.4641,3.4617,0.0,0.0,0.0,0.0,0.0,0.0,0.0,0.0,0.0,0.0,0.0,0.0,0.0,0.0,0.0,0.0,0.0,0.0,0.0,3.45,3.4385,3.4298,0.0,0.0,0.0,0.0,0.0,0.0,0.0,0.0,0.0,3.6478,3.6264,3.6532,0.0,0.0,3.9128,4.0327,4.0699,4.1155,4.2036,4.2139,0.0,4.2454,4.258,4.2654,4.2694,4.3293,4.4035,4.4784,4.4922,4.4916,4.4974,4.499,4.499,4.4947,4.4063,4.3395,4.3305,4.3311,4.3299,4.3299,4.3324,4.335,3.2111,3.0814,3.0963,3.0822,3.0456,3.0456,3.0295,3.0075,3.0338,3.0309,3.0075,3.0426,3.0543,3.0573,3.0631,0.0,0.0,0.0,3.1309,3.1367,3.1055,3.1005,3.1217,3.1498,3.1833,3.2133,3.2429,3.2951,3.373,3.3782,3.4076,3.4587,0.0,0.0,3.5135,3.5171,3.5333,3.56,3.5711,3.5822,3.5898,3.6318,3.6667,3.6891,3.6453,3.6227,3.6268,3.5587,3.5256,3.533,3.5155,3.5135,0.0,0.0,0.0,0.0,0.0,0.0,0.0,0.0,0.0,0.0,0.0,3.4245,3.4335,0.0,0.0,0.0,3.458,3.4666,3.4761,3.4831,0.0,0.0,0.0,0.0,0.0,0.0,0.0,3.6379,3.6448,3.6727,3.7513,3.7517,3.7826,3.8894,3.9331,4.0034,4.1373,0.0,4.1846,4.2716,4.2848,4.2943,4.3264,4.367,4.4087,4.4517,4.5061,4.5685,4.6311,4.6503,4.653,4.6556,4.6583,4.6628,4.667,4.587,4.4981,4.4418,4.429,4.429,4.4291,4.4291,4.4291,3.3451,3.2442,3.2591,3.2558,3.2463,3.2449,3.2118,3.1625,3.222,3.2147,3.1611,3.222,3.2481,3.2513,3.2481,0.0,3.2674,3.2562,3.2547,3.2674,3.2674,3.2849,3.3161,3.3485,3.3849,3.4134,3.446,3.4836,3.5215,3.5272,3.5597,3.6125,3.5029,3.4636,3.5057,3.5057,3.52,3.5452,3.5534,3.5599,3.5684,3.6109,3.6492,3.6768,3.6788,3.6851,3.6933,3.6303,3.5955,3.6049,3.5362,3.5101,3.5348,0.0,0.0,0.0,0.0,0.0,0.0,0.0,0.0,0.0,0.0,0.0,0.0,0.0,0.0,0.0,3.4416,0.0,3.4655,3.4752,0.0,0.0,0.0,3.5258,3.6002,3.6066,3.6384,3.7167,0.0,0.0,3.837,3.917,3.9771,3.9932,4.0596,4.1367,4.2184,4.2278,4.258,4.3447,4.3648,4.395,4.4591,4.5393,4.6215,4.708,4.7577,4.7483,4.7621,4.7715,4.7807,4.7775,4.7912,4.7952,4.8124,4.7969,4.7715,4.6179,4.5978,4.5981,4.5856,4.5831,4.5793,3.3939,3.3702,3.3895,3.3157,3.1931,3.2177,3.2187,3.2072,3.2344,3.2394,3.2295,3.2454,3.2481,3.2481,3.2481,3.2513,3.2544,3.2513,3.2513,3.253,3.2544,3.2625,3.2832,3.3161,3.35,3.3849,3.4252,3.4603,3.4935,3.5191,3.5498,3.5872,3.5802,3.598,3.6396,3.6422,3.6514,3.6663,3.677,3.6729,3.6462,3.6633,3.6649,3.6423,3.6626,3.6748,3.6849,3.6773,3.6726,3.6765,3.6629,3.6563,3.6639,3.6915,0.0,0.0,0.0,0.0,0.0,0.0,0.0,0.0,0.0,3.551,3.5058,0.0,3.4808,0.0,3.4269,3.4351,3.4386,3.5027,0.0,0.0,3.6069,3.6557,3.6745,3.6669,3.6914,3.7698,3.7759,3.8311,3.9786,4.0208,4.0873,4.2139,4.2018,4.2076,4.2884,4.3034,4.3335,4.4105,4.4739,4.5247,4.5491,4.6224,4.6981,4.7299,4.7396,4.739,4.7485,4.7502,4.755,4.7644,4.7678,4.7761,4.7914,4.7947,4.7884,4.7492,4.7554,4.7491,4.6862,4.675,4.6588,3.4216,3.3987,3.4312,3.369,3.2595,3.3205,3.3551,3.3668,3.3926,3.4062,3.4062,3.4143,3.4211,3.4211,3.4163,3.4177,3.4177,3.4211,3.4196,3.4211,3.4211,3.423,3.433,3.4582,3.4682,3.469,3.5087,3.5309,3.5353,3.5666,3.6061,3.6508,3.6786,3.7215,3.7715,3.7185,3.6975,3.7119,3.7178,3.7136,3.7016,3.7094,3.6972,3.6697,3.6835,3.6832,3.6684,3.6806,3.6888,3.6891,3.695,3.7011,3.7091,3.7298,3.743,0.0,0.0,0.0,0.0,0.0,0.0,0.0,0.0,0.0,0.0,0.0,3.5385,3.5036,3.5088,3.5179,3.5224,3.5771,3.6106,3.6112,3.6522,3.6957,3.7323,3.7301,3.7662,3.8804,3.891,3.9392,4.0707,4.131,4.1936,4.294,4.3049,4.3212,4.3694,4.3839,4.4008,4.4463,4.519,4.6017,4.6655,4.7248,4.7772,4.8211,4.8329,4.8338,4.841,4.845,4.849,4.8568,4.8606,4.8656,4.8755,4.8826,4.8884,4.8933,4.9052,4.8769,4.7763,4.7282,4.6889,3.4262,3.3856,3.4219,3.4099,3.3736,3.4661,3.5143,3.53,3.5725,3.5928,3.6014,3.6194,3.6286,3.6286,3.6286,3.6286,3.6286,3.6286,3.6286,3.6286,3.6286,3.6286,3.6301,3.6493,3.6412,3.6026,3.635,3.6373,3.6157,3.6473,3.6893,3.7387,3.7725,3.8173,3.8673,3.7682,3.723,3.7384,3.7384,3.7435,3.7519,3.7527,3.742,3.7155,3.7222,3.7092,3.673,3.6731,3.6803,3.6867,3.6803,3.6851,3.7031,3.7069,3.7166,0.0,3.7485,0.0,0.0,0.0,0.0,0.0,0.0,0.0,0.0,3.5799,3.5854,3.6027,3.6117,3.6229,3.6339,3.6565,3.6689,3.6705,3.6811,3.7173,3.7933,3.8048,3.8596,4.005,4.0185,4.0529,4.1366,4.223,4.2767,4.3047,4.3659,4.4136,4.436,4.4383,4.443,4.4501,4.5284,4.6486,4.7894,4.8326,4.8619,4.9371,4.9461,4.9608,4.9554,4.9665,4.9707,4.9722,4.9702,4.9809,4.9933,4.9961,4.9987,4.9802,4.983,4.951,4.8385,4.7621,4.7086,3.3817,3.3727,3.3811,3.3913,3.4042,3.4563,3.4736,3.4691,3.5101,3.5543,3.6014,3.6194,3.6286,3.6286,3.6286,3.6286,3.6286,3.6286,3.6286,3.6286,3.6286,3.6286,3.6301,3.6493,3.6626,3.6718,3.7069,3.7064,3.6823,3.7163,3.7297,3.7254,3.7682,3.8103,3.846,0.0,0.0,0.0,3.8884,3.8602,3.8081,3.816,3.7928,3.7381,3.757,0.0,3.7849,3.7384,3.7167,3.7258,3.6814,0.0,0.0,0.0,0.0,0.0,0.0,0.0,0.0,0.0,0.0,0.0,3.7163,3.6881,3.6597,3.6017,3.5654,3.5686,3.5908,3.606,3.6072,3.6791,3.7246,3.7279,3.7831,3.8548,3.9286,3.9368,3.9726,4.0592,4.0707,4.0999,4.1834,4.2228,4.2693,4.3375,4.3802,4.4008,4.4082,4.4262,4.4426,4.4594,4.5758,4.7312,4.9002,4.9208,4.9227,4.9505,4.9505,4.9521,4.9551,4.9551,4.9578,4.96,4.9667,4.964,4.9693,4.9821,4.9554,4.8975,4.8909,4.8786,4.8107,4.7845,4.7367,3.3556,0.0,3.3641,3.3755,0.0,3.4134,3.4304,3.4485,3.5347,3.6113,3.6802,3.7002,3.7149,3.7244,3.7244,3.7244,3.7244,3.7244,3.7259,3.723,3.7244,3.7244,3.7244,3.7441,3.7425,3.7275,3.7599,3.7515,3.7154,3.7542,3.7614,3.7282,3.7847,3.8179,3.8278,3.875,3.9094,3.9315,3.9315,3.9116,3.8758,3.8788,3.8543,3.7945,3.8061,0.0,0.0,0.0,0.0,0.0,0.0,0.0,0.0,3.6876,0.0,3.6891,3.7066,3.7143,3.7163,3.7239,3.7297,3.7297,3.7241,3.7157,3.7041,3.6701,3.6522,3.6574,3.6812,3.6959,3.7073,3.7877,3.843,3.8515,3.9189,3.9849,4.0163,4.0221,4.0482,4.114,4.125,4.1578,4.2486,4.2684,4.2934,4.342,4.3597,4.3716,4.3812,4.4064,4.4404,4.4969,4.6119,4.7425,4.8607,4.9283,4.949,4.9509,4.9509,4.9509,4.9509,4.9509,4.9393,4.9025,4.8908,4.8829,4.8426,4.8423,4.831,4.7947,4.7897,4.7732,4.7184,4.7094,4.6976,3.3508,3.3495,3.3564,3.3586,3.3598,3.3628,3.3937,3.4481,0.0,0.0,0.0,3.7739,3.7953,3.8127,3.8165,3.8202,3.8202,3.8202,3.8202,3.8202,3.8202,3.8202,3.824,3.8404,3.8274,3.7886,3.8144,3.8011,3.7491,3.7903,3.7958,3.7677,3.806,3.8217,3.8148,3.865,3.9023,3.9245,3.9272,3.9315,3.9315,3.9315,3.9053,3.8559,3.8629,3.843,3.7968,3.7898,3.7969,3.8089,3.7534,3.7285,3.7453,3.6917,3.6669,3.6773,3.6838,3.6908,3.6928,3.7066,3.7235,3.7415,3.732,3.7286,3.7276,3.746,3.7642,3.7772,3.8079,3.8348,3.8468,3.9169,3.9707,3.9756,4.0355,4.0758,4.0852,4.0888,4.1143,4.1759,4.1922,4.2194,4.2922,4.3069,4.3178,4.325,4.3357,4.348,4.3562,4.3857,4.4434,4.5387,4.6188,4.7038,4.8044,4.8739,4.9283,4.9471,4.9509,4.9452,4.9321,4.9265,4.8927,4.8134,4.7988,4.7744,4.7181,4.7164,4.7,4.6883,4.6906,4.6698,4.6061,4.5968,4.6089,3.3815,3.3778,3.3356,3.3197,3.3197,3.3356,3.381,3.4481,3.5575,3.6336,3.6861,3.7419,3.7739,3.7953,3.8142,3.8202,3.8202,3.8202,3.8202,3.8202,3.8202,3.8277,3.8441,3.8478,3.8642,3.8862,3.8934,3.8808,3.8507,3.8566,3.8493,3.8304,3.7993,3.79,3.8107,3.8455,3.8777,3.9023,3.9218,3.9315,3.9315,3.9315,3.9249,3.9176,3.9186,3.9206,3.922,3.8629,3.8388,3.8497,3.7898,3.7597,3.7723,3.7274,3.706,3.7119,3.6684,3.6447,3.6582,3.6606,3.6986,3.7799,3.7933,3.7732,3.7216,3.7897,3.8383,3.8497,3.922,3.9819,3.9913,4.0095,4.0312,4.0365,4.0491,4.0799,4.1488,4.156,4.185,4.2575,4.2719,4.2719,4.2902,4.2957,4.2994,4.3105,4.316,4.3196,4.3374,4.3747,4.442,4.526,4.5664,4.6469,4.762,4.8232,4.8626,4.9396,4.9377,4.9077,4.8476,4.8382,4.8082,4.7312,4.7162,4.7087,4.6899,4.6993,4.6613,4.6083,4.5928,4.5693,4.5065,4.4944,4.4997,3.3909,3.3834,3.3307,3.3124,3.3111,3.3326,3.3641,3.405,3.4799,3.5656,3.6533,3.7056,3.7495,3.7891,3.8104,3.8202,3.8202,3.8202,3.8202,3.8202,3.8329,3.8404,3.8516,3.8738,3.8922,3.9104,3.9228,3.9188,3.9082,3.9159,3.9037,3.8595,3.8,3.7903,3.83,3.8338,3.8483,3.8777,3.9121,3.9315,3.9315,3.9315,3.9315,3.9315,3.9315,3.9325,3.9379,3.908,3.8933,3.8959,3.8354,3.8078,3.8169,3.7689,3.7407,3.7506,3.7314,3.7256,3.73,3.7416,3.7728,3.833,3.8475,3.8478,3.8292,3.8773,3.9142,3.926,3.9734,4.0066,4.0199,4.0669,4.0996,4.1125,4.1524,4.194,4.2266,4.2357,4.2502,4.2828,4.2919,4.2919,4.2919,4.2919,4.2919,4.2975,4.2994,4.3031,4.316,4.341,4.3775,4.4427,4.501,4.5689,4.66,4.7185,4.7642,4.8085,4.8138,4.7988,4.7594,4.7556,4.7199,4.6505,4.6317,4.611,4.5791,4.566,4.5439,4.5247,4.5059,4.4867,4.4631,4.4556,4.4632,3.4198,3.4035,3.3483,3.3194,3.3124,3.327,3.3441,3.367,3.4063,3.4909,3.599,3.6612,3.7173,3.7777,3.8028,3.8179,3.8202,3.8202,3.8202,3.824,3.8404,3.8516,3.8575,3.8922,3.9141,3.9177,3.9337,3.9388,3.9424,3.9553,3.9314,3.8726,3.833,3.8183,3.8292,3.8266,3.8305,3.85,3.8958,3.9218,3.9315,3.9315,3.9315,3.9315,3.9315,3.9315,3.9315,3.9315,3.9315,3.9265,3.8857,3.8635,3.8655,3.8112,3.7833,3.793,3.7891,3.7895,3.7909,3.8127,3.8408,3.8824,3.8975,3.926,3.9732,3.994,4.0038,4.0093,4.0337,4.0581,4.0825,4.1296,4.1732,4.1957,4.2501,4.2829,4.2901,4.2919,4.2919,4.2919,4.2919,4.2919,4.2919,4.2919,4.2919,4.2919,4.2919,4.2938,4.3031,4.3105,4.325,4.3622,4.4299,4.4973,4.5317,4.6007,4.6603,4.6825,4.7005,4.6963,4.6828,4.6692,4.6354,4.5679,4.5435,4.5247,4.4651,4.4557,4.4576,4.4576,4.4594,4.4552,4.4533,4.4515,4.4556,3.5044,3.4587,3.4035,3.352,3.3136,3.3124,3.324,3.3428,3.3683,3.4314,3.5263,3.6004,3.6716,3.738,3.7777,3.8028,3.8202,3.8202,3.8202,3.824,3.8404,3.859,3.8797,3.898,3.9177,3.9337,3.9388,3.9388,3.9388,3.9424,3.9187,3.8812,3.9115,3.8791,3.7981,3.8351,3.8469,3.816,3.8611,3.8969,3.9272,3.9315,3.9315,3.9315,3.9315,3.9315,3.9315,3.9315,3.9315,3.9315,3.9232,3.9209,3.9153,3.8659,3.8337,3.8329,3.7861,3.7575,3.7663,3.7868,3.8414,3.9166,3.9473,4.0049,4.1001,4.1279,4.1251,4.1061,4.1581,4.1971,4.2271,4.237,4.2451,4.2586,4.279,4.2919,4.2919,4.2919,4.2919,4.2919,4.2919,4.2919,4.2919,4.2919,4.2919,4.2919,4.2919,4.2919,4.2938,4.2957,4.2994,4.316,4.3537,4.414,4.4858,4.5231,4.5658,4.6396,4.6749,4.6458,4.5977,4.5777,4.5566,4.5059,4.4721,4.4632,4.4576,4.4482,4.4482,4.4482,4.4482,4.4482,4.4482,4.4482,4.4542,3.5169,3.4663,3.4123,3.3583,3.3149,3.3124,3.3185,3.3441,3.3628,3.4134,3.4895,3.5615,3.6468,3.7303,3.7739,3.8005,3.8202,3.8202,3.824,3.8404,3.859,3.8797,3.898,3.9192,3.9352,3.9388,3.9388,3.9388,3.9388,3.9388,3.9382,3.9259,3.9156,3.8928,3.8727,3.834,3.8212,3.8437,3.8427,3.8595,3.8969,3.9191,3.9315,3.9315,3.9315,3.9315,3.9315,3.9315,3.9315,3.9315,3.9315,3.9315,3.9315,3.907,3.893,3.8913,3.8707,3.8628,3.8722,3.8824,3.911,3.9639,3.9902,4.0306,4.0825,4.1163,4.1296,4.1258,4.1757,4.2225,4.2366,4.249,4.2649,4.2783,4.2861,4.2919,4.2919,4.2919,4.2919,4.2919,4.2919,4.2919,4.2919,4.2919,4.2919,4.2919,4.2919,4.2919,4.2919,4.2919,4.2919,4.2975,4.3123,4.3431,4.4059,4.4212,4.4529,4.4896,4.5118,4.4972,4.5032,4.4899,4.4791,4.4519,4.4501,4.4501,4.4501,4.4482,4.4482,4.4482,4.4482,4.4482,4.4482,4.4482,4.4482,3.5395,3.4843,3.4198,3.3583,3.3136,3.3124,3.321,3.3356,3.3598,3.405,3.4675,3.5386,3.627,3.7187,3.7625,3.7967,3.8179,3.8202,3.8329,3.8516,3.8686,3.8907,3.909,3.9301,3.9388,3.9388,3.9388,3.9388,3.9388,3.9388,3.9481,3.955,3.9164,3.9092,3.918,3.8477,3.8261,3.8368,3.8282,3.8366,3.8644,3.8985,3.9202,3.9299,3.9315,3.9315,3.9315,3.9315,3.9315,3.9315,3.9315,3.9315,3.9315,3.9315,3.9315,3.9315,3.9315,3.9369,3.9448,3.9432,3.9554,3.9772,4.0011,4.0213,4.0419,4.0717,4.0954,4.1076,4.1503,4.1852,4.2145,4.2389,4.257,4.2686,4.2786,4.2881,4.2919,4.2919,4.2919,4.2919,4.2919,4.2919,4.2919,4.2919,4.2919,4.2919,4.2919,4.2919,4.2919,4.2919,4.2919,4.2919,4.2919,4.3068,4.334,4.3499,4.3582,4.3751,4.3992,4.4153,4.4177,4.4281,4.4383,4.4444,4.4473,4.4501,4.4482,4.4482,4.4482,4.4482,4.4482,4.4482,4.4482,4.4482,4.4482,3.6006,3.532,3.4349,3.3583,3.3124,3.3124,3.3124,3.3167,3.3513,3.3979,3.4522,3.5345,3.6191,3.7031,3.7457,3.7825,3.8165,3.8202,3.8315,3.8516,3.8723,3.8907,3.9104,3.9301,3.9388,3.9388,3.9388,3.9388,3.9388,3.9388,3.9409,3.9409,3.9514,3.934,3.8946,3.9115,3.882,3.8089,3.8368,3.8501,3.8241,3.8628,3.8985,3.9245,3.9315,3.9315,3.9315,3.9315,3.9315,3.9315,3.9315,3.9315,3.9315,3.9315,3.9315,3.9315,3.9315,3.9315,3.9342,3.9325,3.9379,3.9528,3.9668,3.9833,4.0087,4.0288,4.0444,4.0604,4.0913,4.1277,4.1697,4.2082,4.2348,4.245,4.2649,4.2804,4.29,4.29,4.29,4.2919,4.2919,4.2919,4.2919,4.2919,4.2919,4.2919,4.2919,4.2919,4.2919,4.2919,4.2919,4.2919,4.2919,4.2957,4.3104,4.3196,4.3304,4.348,4.3615,4.3744,4.3974,4.4162,4.4266,4.4368,4.443,4.4473,4.4501,4.4482,4.4482,4.4482,4.4482,4.4482,4.4482,4.4482,4.4482,3.583,3.4919,3.4223,3.3583,3.3149,3.3124,3.3124,3.3124,3.3513,3.3979,3.4522,3.5304,3.6191,3.7017,3.7419,3.7839,3.8202,3.8202,3.8375,3.8664,3.876,3.898,3.925,3.9373,3.9388,3.9388,3.9388,3.9388,3.9388,3.9388,3.9388,3.9424,3.9481,3.9418,3.9325,3.9107,3.891,3.882,3.8481,3.8287,3.8568,3.8655,3.8805,3.9077,3.9245,3.9315,3.9315,3.9315,3.9315,3.9315,3.9315,3.9315,3.9315,3.9315,3.9315,3.9315,3.9315,3.9315,3.9315,3.9315,3.9325,3.9369,3.9484,3.9616,3.9746,3.991,4.0087,4.0196,4.0493,4.0782,4.1041,4.1613,4.2124,4.231,4.247,4.2611,4.2785,4.2823,4.2843,4.29,4.2919,4.2919,4.2919,4.2919,4.2919,4.2919,4.2919,4.2919,4.2919,4.2919,4.2919,4.2919,4.2919,4.2919,4.2957,4.2994,4.3068,4.3196,4.3322,4.3461,4.3666,4.3812,4.3939,4.4128,4.4252,4.4401,4.4397,4.4482,4.4482,4.4482,4.4482,4.4482,4.4482,4.4482,4.4482,3.573,3.4693,3.4324,3.3734,3.3162,3.3124,3.3124,3.3167,3.3513,3.3966,3.4522,3.5386,3.6244,3.6978,3.7495,3.7877,3.8165,3.8202,3.8427,3.8767,3.8782,3.9017,3.9352,3.9388,3.9388,3.9388,3.9388,3.9388,3.9388,3.9388,3.9388,3.9388,3.9388,3.9445,3.9514,3.9194,3.9137,3.9183,3.8716,3.8576,3.8748,3.8753,3.8823,3.8947,3.9191,3.9315,3.9315,3.9315,3.9315,3.9315,3.9315,3.9315,3.9315,3.9315,3.9315,3.9315,3.9315,3.9315,3.9315,3.9315,3.9315,3.9315,3.9379,3.9448,3.9432,3.959,3.972,3.9807,4.0037,4.0263,4.0493,4.1024,4.1591,4.1938,4.2145,4.2351,4.2607,4.2706,4.2785,4.2881,4.2919,4.2919,4.2919,4.2919,4.2919,4.2919,4.2919,4.2919,4.2919,4.2919,4.2919,4.2919,4.2919,4.2919,4.2919,4.2938,4.2957,4.305,4.316,4.3269,4.3357,4.3512,4.3681,4.386,4.4051,4.4237,4.4354,4.444,4.4468,4.4482,4.4482,4.4482,4.4482,4.4482,4.4482,3.573,3.4788,3.468,3.4048,3.3187,3.3124,3.3124,3.3167,3.3513,3.3979,3.4522,3.5548,3.6389,3.707,3.7649,3.8043,3.8202,3.8277,3.8449,3.8782,3.8782,3.9017,3.9373,3.9388,3.9388,3.9388,3.9388,3.9388,3.9388,3.9388,3.9388,3.9388,3.9388,3.9424,3.9409,3.9499,3.9456,3.923,3.9247,3.9113,3.8588,3.891,3.9023,3.8952,3.9154,3.9315,3.9315,3.9315,3.9315,3.9315,3.9315,3.9315,3.9315,3.9315,3.9315,3.9315,3.9315,3.9315,3.9315,3.9315,3.9315,3.9315,3.9299,3.9342,3.9342,3.9352,3.9405,3.9511,3.9651,3.9833,4.0087,4.0395,4.083,4.1323,4.1723,4.2019,4.2269,4.249,4.267,4.2844,4.2882,4.2919,4.2919,4.2919,4.2919,4.2919,4.2919,4.2919,4.2919,4.2919,4.2919,4.2919,4.2919,4.2919,4.2919,4.2919,4.2919,4.2938,4.3049,4.3142,4.3196,4.3321,4.3461,4.3649,4.391,4.4101,4.4344,4.443,4.4487,4.4501,4.4501,4.4519,4.4482,4.4482,4.4482,3.573,3.4718,3.468,3.4085,3.3187,3.3124,3.3124,3.3167,3.3513,3.4008,3.4716,3.5575,3.6508,3.7327,3.7915,3.8217,3.8404,3.8538,3.8671,3.8782,3.8782,3.9031,3.9337,3.9388,3.9388,3.9388,3.9388,3.9388,3.9388,3.9388,3.9388,3.9388,3.9388,3.9388,3.9388,3.9445,3.954,3.9677,3.955,3.9594,3.9724,3.9498,3.9401,3.9526,3.9402,3.9315,3.9315,3.9315,3.9315,3.9315,3.9315,3.9315,3.9315,3.9315,3.9315,3.9315,3.9315,3.9315,3.9315,3.9315,3.9315,3.9315,3.9315,3.9315,3.9315,3.9315,3.9325,3.9369,3.9484,3.9616,3.972,3.9926,4.037,4.1047,4.1391,4.1723,4.2103,4.247,4.2745,4.2804,4.2862,4.2882,4.29,4.2882,4.29,4.29,4.29,4.2919,4.2919,4.2919,4.2919,4.2919,4.2919,4.2919,4.2919,4.2919,4.2919,4.2919,4.2975,4.303,4.3068,4.3123,4.3268,4.3462,4.3716,4.4048,4.4278,4.4499,4.4613,4.4637,4.4726,4.467,4.4538,4.4651,4.4909,3.5717,3.4718,3.468,3.4085,3.3174,3.3124,3.3124,3.3154,3.3654,3.4134,3.4716,3.5777,3.6705,3.7495,3.8066,3.8441,3.8627,3.8745,3.8833,3.8907,3.8892,3.9104,3.9388,3.9388,3.9388,3.9388,3.9388,3.9388,3.9388,3.9388,3.9388,3.9388,3.9388,3.9388,3.9388,3.9424,3.9589,3.99,3.9829,3.9923,4.0323,4.0174,4.0092,4.0234,3.9913,3.9702,3.9696,3.9464,3.9315,3.9315,3.9315,3.9315,3.9315,3.9315,3.9315,3.9315,3.9315,3.9315,3.9315,3.9315,3.9315,3.9315,3.9315,3.9315,3.9315,3.9315,3.9315,3.9342,3.9395,3.9405,3.9458,3.9616,3.9969,4.0451,4.0836,4.13,4.1809,4.2269,4.255,4.2629,4.2709,4.2786,4.2786,4.2843,4.2843,4.2862,4.29,4.2919,4.2919,4.2919,4.29,4.29,4.2919,4.2919,4.2919,4.2919,4.2919,4.2919,4.2919,4.2938,4.2975,4.2994,4.3105,4.3322,4.3582,4.4196,4.4504,4.4853,4.5048,4.5021,4.5251,4.5585,4.5791,4.5697,4.5848,3.573,3.4731,3.468,3.4085,3.3187,3.3124,3.3124,3.3253,3.3793,3.4243,3.4771,3.5977,3.69,3.7443,3.8179,3.8575,3.8797,3.887,3.8943,3.9068,3.9104,3.9228,3.9373,3.9388,3.9388,3.9388,3.9388,3.9388,3.9388,3.9388,3.9388,3.9388,3.9388,3.9388,3.9388,3.9388,3.9604,3.9945,3.9985,4.0189,4.0575,4.0769,4.0963,4.0974,4.0661,4.0382,4.021,3.9663,3.9315,3.9315,3.9315,3.9315,3.9315,3.9315,3.9315,3.9315,3.9315,3.9315,3.9315,3.9315,3.9315,3.9315,3.9315,3.9315,3.9315,3.9315,3.9315,3.9315,3.9315,3.9299,3.9342,3.9432,3.9573,3.9755,4.0279,4.0884,4.1493,4.187,4.2145,4.2351,4.2472,4.2589,4.2571,4.2706,4.2745,4.2803,4.2842,4.2843,4.2881,4.2881,4.29,4.29,4.2919,4.2919,4.2919,4.2919,4.2919,4.2919,4.2919,4.2919,4.2919,4.2956,4.3211,4.3397,4.3702,4.4304,4.4883,4.5333,4.5814,4.6113,4.6461,4.6903,4.6861,4.658,4.6523,3.5717,3.4751,3.468,3.4085,3.3199,3.3124,3.3197,3.3356,3.3865,3.4494,3.5209,3.6044,3.6911,3.7749,3.8254,3.8627,3.8833,3.9104,3.9177,3.9141,3.9265,3.9352,3.9388,3.9388,3.9388,3.9388,3.9388,3.9388,3.9388,3.9388,3.9388,3.9388,3.9388,3.9388,3.9388,3.9388,3.9604,3.996,4.0106,4.0481,4.096,4.1008,4.1191,4.1545,4.1198,4.08,4.0398,3.9696,3.9315,3.9315,3.9315,3.9315,3.9315,3.9315,3.9315,3.9315,3.9315,3.9315,3.9315,3.9315,3.9315,3.9315,3.9381,3.9315,3.9315,3.9315,3.9315,3.9315,3.9315,3.9365,3.9332,3.9358,3.9465,3.9616,4.0138,4.0669,4.1094,4.1498,4.1805,4.198,4.2145,4.2269,4.2412,4.2492,4.2552,4.2611,4.267,4.2709,4.2767,4.2805,4.2823,4.2881,4.2919,4.2919,4.2919,4.2919,4.2919,4.2919,4.2919,4.2919,4.2937,4.2973,4.3393,4.3833,4.42,4.476,4.5499,4.6122,4.6616,4.7052,4.7181,4.7342,4.7147,4.6903,4.6997,3.5717,3.4693,3.468,3.4085,3.3174,3.3197,3.3283,3.3484,3.3979,3.4522,3.5209,3.599,3.678,3.7658,3.824,3.8664,3.8958,3.9265,3.9337,3.9265,3.9352,3.9388,3.9388,3.9388,3.9388,3.9388,3.9388,3.9388,3.9388,3.9388,3.9388,3.9388,3.9388,3.9388,3.9388,3.9424,3.9553,3.9854,4.0036,4.0455,4.1008,4.1209,4.1549,4.1873,4.1697,4.1231,4.047,3.9978,3.9647,3.9398,3.9315,3.9315,3.9315,3.9315,3.9315,3.9315,3.9315,3.9315,3.9315,3.9315,3.9464,3.9696,3.9779,3.9945,4.016,4.021,4.0183,4.0233,4.0166,4.0166,4.0144,3.9962,3.9806,3.9924,4.0043,4.0296,4.0597,4.0931,4.1255,4.1503,4.1762,4.1977,4.2187,4.2269,4.2409,4.2528,4.2589,4.2629,4.2688,4.2707,4.2727,4.2786,4.2843,4.2861,4.2862,4.2862,4.29,4.29,4.3082,4.3046,4.31,4.3154,4.3663,4.4212,4.4691,4.5297,4.612,4.6847,4.7294,4.7609,4.7679,4.7844,4.7803,4.7642,4.7699,3.5667,3.4713,3.4663,3.4079,3.323,3.3368,3.3484,3.3598,3.4105,3.4564,3.5018,3.583,3.6638,3.7341,3.8089,3.8664,3.9068,3.9265,3.9388,3.9388,3.9388,3.9388,3.9388,3.9388,3.9388,3.9388,3.9388,3.9388,3.9388,3.9388,3.9388,3.9388,3.9388,3.9388,3.9388,3.9388,3.9481,3.9696,3.9874,4.0226,4.0765,4.1178,4.1626,4.2077,4.202,4.1559,4.0915,4.0531,4.021,3.9464,3.9348,3.9315,3.9315,3.9315,3.9315,3.9315,3.9315,3.9332,3.9448,3.9547,3.9779,4.0343,4.0509,4.0729,4.1094,4.1177,4.1177,4.1143,4.138,4.1226,4.1143,4.0779,4.0558,4.0437,4.0057,3.9852,4.0087,4.0379,4.0628,4.0913,4.1295,4.1587,4.1849,4.21,4.2325,4.2427,4.2488,4.253,4.2588,4.2607,4.2627,4.2649,4.2707,4.2764,4.2785,4.2824,4.2862,4.29,4.3227,4.3336,4.3445,4.3588,4.4041,4.459,4.5361,4.6096,4.6853,4.7463,4.7848,4.8154,4.8252,4.8684,4.9041,4.8746,4.8665,3.5282,3.4688,3.4426,3.3933,3.3419,3.3569,3.3768,3.3949,3.4285,3.4729,3.5263,3.5831,3.6533,3.7341,3.7976,3.8501,3.8907,3.9228,3.9388,3.9388,3.9388,3.9388,3.9388,3.9388,3.9388,3.9388,3.9388,3.9388,3.9388,3.9388,3.9388,3.9388,3.9388,3.9388,3.9388,3.9424,3.9496,3.9661,3.9768,4.0036,4.0455,4.0833,4.1339,4.1964,4.2046,4.2026,4.1853,4.1423,4.0862,4.0243,3.9696,3.9464,3.9332,3.9348,3.9381,3.9415,3.9415,3.9597,4.0028,4.021,4.0459,4.1077,4.121,4.1243,4.1331,4.1496,4.1446,4.1397,4.1397,4.1546,4.1574,4.1342,4.121,4.1061,4.0636,4.0242,4.0277,4.0186,4.023,4.0524,4.0836,4.1146,4.1591,4.1884,4.2097,4.2284,4.2387,4.2407,4.2465,4.2542,4.2687,4.2799,4.3075,4.3222,4.3262,4.3322,4.3419,4.3458,4.3658,4.4041,4.4132,4.424,4.4765,4.5457,4.6225,4.6908,4.7408,4.7748,4.8089,4.8421,4.8695,4.8837,4.8993,4.9129,4.9295,3.5031,3.4311,3.4218,3.3862,3.3492,3.3738,3.3979,3.416,3.4452,3.4908,3.5399,3.5831,3.6508,3.7341,3.7938,3.8427,3.8833,3.9228,3.9388,3.9388,3.9388,3.9388,3.9388,3.9388,3.9388,3.9388,3.9388,3.9388,3.9388,3.9388,3.9388,3.9388,3.9388,3.9388,3.9388,3.9388,3.946,3.9553,3.9661,3.9859,4.0106,4.0489,4.1122,4.1851,4.2151,4.2334,4.2222,4.2072,4.1546,4.0978,4.0481,3.9945,3.9497,3.963,3.9796,3.9846,4.015,4.0382,4.0779,4.0912,4.1177,4.1844,4.1893,4.2142,4.2307,4.2423,4.2423,4.2423,4.2456,4.244,4.2406,4.2054,4.1943,4.1778,4.1293,4.0895,4.0768,4.0221,3.9824,4.0188,4.0493,4.0907,4.1277,4.1626,4.1923,4.2097,4.2258,4.2299,4.2481,4.2611,4.2995,4.3215,4.3584,4.3786,4.3824,4.3922,4.4133,4.4247,4.4449,4.4923,4.5307,4.5417,4.5562,4.62,4.6783,4.7182,4.7647,4.7994,4.8131,4.823,4.8383,4.855,4.8731,4.8907,4.9096,3.4876,3.4098,3.4097,3.3873,3.3607,3.3992,3.416,3.4202,3.4632,3.5003,3.544,3.5871,3.6533,3.7327,3.7976,3.8464,3.8922,3.9192,3.9388,3.9388,3.9388,3.9388,3.9388,3.9388,3.9388,3.9388,3.9388,3.9388,3.9388,3.9388,3.9388,3.9388,3.9388,3.9388,3.9388,3.9388,3.9424,3.946,3.9553,3.9681,3.9788,4.0176,4.0851,4.1688,4.2221,4.2449,4.2471,4.2479,4.2295,4.1629,4.1562,4.0862,4.0177,4.0144,4.0575,4.0575,4.0978,4.1293,4.1508,4.164,4.1889,4.2572,4.2655,4.2903,4.3333,4.34,4.3367,4.3433,4.34,4.34,4.3549,4.3035,4.2704,4.2522,4.1993,4.164,4.1342,4.0508,4.0157,4.0094,4.0382,4.0686,4.1071,4.1413,4.167,4.1937,4.2119,4.2292,4.2512,4.2892,4.338,4.3658,4.3989,4.4205,4.4244,4.4375,4.4569,4.4888,4.5091,4.5603,4.621,4.6411,4.6483,4.6721,4.7174,4.7521,4.7684,4.7827,4.7947,4.799,4.8092,4.8267,4.8476,4.8678,4.8855,3.4841,3.4838,3.4091,3.3845,3.3992,3.423,3.4356,3.441,3.4714,3.5058,3.548,3.6004,3.6769,3.7534,3.8179,3.8738,3.9156,3.9388,3.9388,3.9388,3.9388,3.9388,3.9388,3.9388,3.9388,3.9388,3.9388,3.9388,3.9388,3.9388,3.9388,3.9388,3.9388,3.9388,3.9388,3.9388,3.9388,3.9388,3.946,3.9553,3.9681,3.9895,4.0385,4.1274,4.19,4.2363,4.2767,4.3021,4.295,4.239,4.2307,4.1856,4.1309,4.1243,4.1293,4.1309,4.1491,4.1889,4.2208,4.2324,4.2688,4.3201,4.335,4.335,4.3565,4.3615,4.3615,4.3615,4.3615,4.3615,4.3598,4.3383,4.3416,4.3218,4.2787,4.2324,4.2142,4.1586,4.0945,4.0833,4.0696,4.0539,4.0995,4.1412,4.1805,4.2236,4.2626,4.2807,4.2975,4.3518,4.4134,4.4285,4.4383,4.4553,4.4685,4.4814,4.4985,4.536,4.5639,4.6026,4.6615,4.715,4.7407,4.7352,4.7409,4.7609,4.772,4.7738,4.778,4.7827,4.7927,4.7988,4.8189,4.8382,4.8513,3.4684,3.4565,3.3943,3.3839,3.4118,3.4314,3.4481,3.466,3.499,3.5318,3.579,3.6375,3.7081,3.7749,3.8254,3.8826,3.928,3.9388,3.9388,3.9388,3.9388,3.9388,3.9388,3.9388,3.9388,3.9388,3.9388,3.9388,3.9388,3.9388,3.9388,3.9388,3.9388,3.9388,3.9388,3.9388,3.9388,3.9388,3.9424,3.946,3.9553,3.9696,4.0246,4.0885,4.1573,4.219,4.2711,4.319,4.3314,4.3089,4.3052,4.2853,4.2605,4.244,4.2324,4.2092,4.2274,4.2622,4.2986,4.3069,4.3251,4.3499,4.3615,4.3615,4.3615,4.3615,4.3615,4.3615,4.3615,4.3615,4.3615,4.3615,4.3615,4.3549,4.3234,4.3085,4.2886,4.234,4.1969,4.1599,4.1124,4.0959,4.1117,4.1522,4.1955,4.2469,4.3027,4.33,4.348,4.4135,4.4845,4.5007,4.5146,4.5401,4.5499,4.5547,4.5573,4.5878,4.6148,4.6536,4.6855,4.7316,4.7563,4.7606,4.7678,4.7678,4.7699,4.7717,4.7717,4.7699,4.7783,4.7866,4.7947,4.8088,4.8247,3.4533,3.4272,3.3884,3.3852,3.4147,3.441,3.4618,3.4934,3.5277,3.571,3.6191,3.6836,3.7443,3.8014,3.8501,3.8958,3.9388,3.9388,3.9388,3.9388,3.9388,3.9388,3.9388,3.9388,3.9388,3.9388,3.9388,3.9388,3.9388,3.9388,3.9388,3.9388,3.9388,3.9388,3.9388,3.9388,3.9388,3.9388,3.9388,3.9388,3.9496,3.9747,4.0156,4.0696,4.1325,4.1916,4.2476,4.299,4.3342,4.3443,4.3532,4.3565,4.3598,4.3598,4.3317,4.2936,4.33,4.3532,4.3582,4.3549,4.3515,4.3615,4.3615,4.3615,4.3615,4.3615,4.3615,4.3615,4.3615,4.3615,4.3615,4.3615,4.3615,4.3598,4.3598,4.3549,4.3383,4.3048,4.268,4.2192,4.1555,4.1426,4.1594,4.175,4.2188,4.2679,4.3246,4.3825,4.4078,4.4888,4.5476,4.5723,4.5999,4.6335,4.6445,4.6407,4.6422,4.6472,4.6677,4.6948,4.7162,4.741,4.7551,4.7615,4.7636,4.7615,4.7657,4.7699,4.7699,4.7699,4.7699,4.7741,4.7824,4.7886,4.799,3.4622,3.4502,3.3913,3.3966,3.4356,3.4618,3.488,3.5113,3.5507,3.6031,3.6665,3.7264,3.7877,3.8441,3.901,3.9316,3.9388,3.9388,3.9388,3.9388,3.9388,3.9388,3.9388,3.9388,3.9388,3.9388,3.9388,3.9388,3.9388,3.9388,3.9388,3.9388,3.9388,3.9388,3.9388,3.9388,3.9388,3.9388,3.9388,3.9388,3.9424,3.9625,3.995,4.0335,4.087,4.1507,4.2126,4.2649,4.3084,4.3419,4.3539,4.3598,4.3615,4.3615,4.3582,4.3499,4.3549,4.3615,4.3615,4.3615,4.3615,4.3615,4.3615,4.3615,4.3615,4.3615,4.3615,4.3615,4.3615,4.3615,4.3615,4.3615,4.3615,4.3615,4.3615,4.3615,4.3532,4.3449,4.3098,4.2895,4.2297,4.2133,4.2169,4.2286,4.2465,4.2963,4.3477,4.405,4.4655,4.5366,4.5842,4.6046,4.6183,4.6501,4.6661,4.6731,4.6842,4.6888,4.7002,4.7156,4.7267,4.7356,4.7403,4.7468,4.7511,4.7572,4.7636,4.7657,4.7678,4.7699,4.7699,4.7699,4.7699,4.7762,4.7824,3.48,3.4546,3.4097,3.4105,3.4439,3.466,3.5003,3.5358,3.5817,3.6415,3.7056,3.7687,3.8277,3.8848,3.9265,3.9388,3.9388,3.9388,3.9388,3.9388,3.9388,3.9388,3.9388,3.9388,3.9388,3.9388,3.9388,3.9388,3.9388,3.9388,3.9388,3.9388,3.9388,3.9388,3.9388,3.9388,3.9388,3.9388,3.9388,3.9388,3.9445,3.9574,3.9824,4.0106,4.0627,4.1223,4.1785,4.2349,4.2821,4.3143,4.3402,4.3539,4.3585,4.3615,4.3598,4.3598,4.3598,4.3615,4.3615,4.3615,4.3615,4.3615,4.3615,4.3615,4.3615,4.3615,4.3615,4.3615,4.3615,4.3615,4.3615,4.3615,4.3615,4.3615,4.3615,4.3615,4.3598,4.3582,4.3416,4.3234,4.3052,4.2891,4.2717,4.2685,4.2918,4.3491,4.3948,4.4412,4.4941,4.5533,4.5933,4.6182,4.6304,4.6477,4.6525,4.6572,4.6708,4.6795,4.6842,4.698,4.7156,4.7267,4.7294,4.7363,4.7446,4.7511,4.7575,4.7657,4.7678,4.7699,4.7699,4.7699,4.7699,4.7699,4.7783,3.4716,3.4384,3.4172,3.4202,3.4439,3.4756,3.5113,3.5521,3.6137,3.6808,3.7481,3.8127,3.8723,3.9104,3.9301,3.9388,3.9388,3.9388,3.9388,3.9388,3.9388,3.9388,3.9388,3.9388,3.9388,3.9388,3.9388,3.9388,3.9388,3.9388,3.9388,3.9388,3.9388,3.9388,3.9388,3.9388,3.9388,3.9388,3.9388,3.9388,3.9424,3.9553,3.9732,4.0016,4.0385,4.0901,4.139,4.1964,4.2476,4.2836,4.3174,4.3372,4.3509,4.3568,4.3615,4.3615,4.3615,4.3615,4.3615,4.3615,4.3615,4.3615,4.3615,4.3615,4.3615,4.3615,4.3615,4.3615,4.3615,4.3615,4.3615,4.3615,4.3615,4.3615,4.3615,4.3615,4.3615,4.3598,4.3582,4.3466,4.3383,4.3449,4.3285,4.3128,4.3401,4.3999,4.4435,4.4752,4.5186,4.5649,4.593,4.6154,4.627,4.635,4.6398,4.6471,4.659,4.6684,4.6708,4.6819,4.6998,4.7088,4.7116,4.7209,4.7359,4.7446,4.7511,4.7615,4.7699,4.7699,4.7699,4.7699,4.7699,4.7699,4.772,3.4315,3.3777,3.4004,3.4243,3.4439,3.4908,3.5318,3.5723,3.6375,3.712,3.7938,3.8612,3.9104,3.9337,3.9373,3.9388,3.9388,3.9388,3.9388,3.9388,3.9388,3.9388,3.9388,3.9388,3.9388,3.9388,3.9388,3.9388,3.9388,3.9388,3.9388,3.9388,3.9388,3.9388,3.9388,3.9388,3.9388,3.9388,3.9388,3.9388,3.9388,3.946,3.9553,3.9753,4.0056,4.0424,4.0851,4.1538,4.2109,4.246,4.2898,4.3235,4.3402,4.3522,4.3598,4.3615,4.3615,4.3615,4.3615,4.3615,4.3615,4.3615,4.3615,4.3615,4.3615,4.3615,4.3615,4.3615,4.3615,4.3615,4.3615,4.3615,4.3615,4.3615,4.3615,4.3615,4.3615,4.3615,4.3598,4.3615,4.3615,4.3615,4.3598,4.3405,4.3352,4.3902,4.4253,4.4575,4.5133,4.5572,4.5879,4.608,4.6172,4.6246,4.6228,4.6326,4.6447,4.6518,4.6572,4.6684,4.6819,4.687,4.6962,4.7093,4.7227,4.7338,4.7446,4.7533,4.7636,4.7678,4.7699,4.7699,4.7699,4.7699,4.7699,3.4251,3.3781,3.4105,3.4314,3.4439,3.4908,3.5318,3.575,3.6429,3.7313,3.8277,3.8833,3.9213,3.9337,3.9388,3.9388,3.9388,3.9388,3.9388,3.9388,3.9388,3.9388,3.9388,3.9388,3.9388,3.9388,3.9388,3.9388,3.9388,3.9388,3.9388,3.9388,3.9388,3.9388,3.9388,3.9388,3.9388,3.9388,3.9388,3.9388,3.9388,3.9424,3.9481,3.9696,3.9788,4.0161,4.0593,4.1104,4.1654,4.219,4.2696,4.3068,4.3372,4.3522,4.3598,4.3615,4.3615,4.3615,4.3615,4.3615,4.3615,4.3615,4.3615,4.3615,4.3615,4.3615,4.3615,4.3615,4.3615,4.3615,4.3615,4.3615,4.3615,4.3615,4.3615,4.3615,4.3615,4.3615,4.3615,4.3615,4.3615,4.3615,4.3615,4.3582,4.3625,4.3747,4.4051,4.4423,4.4971,4.5468,4.5752,4.603,4.6147,4.6214,4.6196,4.627,4.6319,4.6374,4.6429,4.6542,4.6661,4.6778,4.687,4.698,4.7088,4.7223,4.7334,4.7468,4.7554,4.7636,4.7678,4.7699,4.7699,4.7699,4.7699,3.4097,3.3768,3.423,3.4397,3.4452,3.4825,3.5236,3.5669,3.6296,3.7313,3.8516,3.8922,3.9213,3.9337,3.9388,3.9388,3.9388,3.9388,3.9388,3.9388,3.9388,3.9388,3.9388,3.9388,3.9388,3.9388,3.9388,3.9388,3.9388,3.9388,3.9388,3.9388,3.9388,3.9388,3.9388,3.9388,3.9388,3.9388,3.9388,3.9388,3.9388,3.9388,3.946,3.9625,3.9768,3.998,4.0401,4.0882,4.1406,4.1964,4.246,4.2929,4.3235,4.3462,4.3568,4.3615,4.3615,4.3615,4.3615,4.3615,4.3615,4.3615,4.3615,4.3615,4.3615,4.3615,4.3615,4.3615,4.3615,4.3615,4.3615,4.3615,4.3615,4.3615,4.3615,4.3615,4.3615,4.3615,4.3615,4.3615,4.3615,4.3615,4.3615,4.3615,4.3645,4.3674,4.391,4.4281,4.478,4.5239,4.5624,4.5897,4.6122,4.6165,4.6214,4.6246,4.627,4.6253,4.6326,4.6398,4.6536,4.6637,4.6754,4.6865,4.6998,4.7106,4.7223,4.7338,4.7486,4.7615,4.7657,4.7717,4.7699,4.7699,4.7699,3.3738,3.3755,3.4176,3.4397,3.4439,3.466,3.5044,3.5521,3.6163,3.7183,3.8441,3.887,3.9177,3.9352,3.9388,3.9388,3.9388,3.9388,3.9388,3.9388,3.9388,3.9388,3.9388,3.9388,3.9388,3.9388,3.9388,3.9388,3.9388,3.9388,3.9388,3.9388,3.9388,3.9388,3.9388,3.9388,3.9388,3.9388,3.9388,3.9388,3.9388,3.9388,3.9409,3.9553,3.9732,3.9945,4.0312,4.078,4.1305,4.1768,4.2397,4.282,4.3127,4.3462,4.3598,4.3615,4.3615,4.3615,4.3615,4.3615,4.3615,4.3615,4.3615,4.3615,4.3615,4.3615,4.3615,4.3615,4.3615,4.3615,4.3615,4.3615,4.3615,4.3615,4.3615,4.3615,4.3615,4.3615,4.3615,4.3615,4.3615,4.3615,4.3615,4.3615,4.3615,4.3674,4.3809,4.4155,4.4631,4.5042,4.5415,4.577,4.6023,4.6147,4.6189,4.6214,4.6196,4.6196,4.6246,4.6319,4.6392,4.6471,4.659,4.6749,4.6865,4.6975,4.7088,4.7201,4.7377,4.7529,4.7654,4.7696,4.7717,4.7699,4.7699,3.3713,3.3755,3.423,3.4397,3.4439,3.466,3.5044,3.5548,3.6494,3.7481,3.824,3.8723,3.9104,3.9316,3.9388,3.9388,3.9388,3.9388,3.9388,3.9388,3.9388,3.9388,3.9388,3.9388,3.9388,3.9388,3.9388,3.9388,3.9388,3.9388,3.9388,3.9388,3.9388,3.9388,3.9388,3.9388,3.9388,3.9388,3.9388,3.9388,3.9388,3.9424,3.9445,3.9589,3.9768,4.0016,4.0331,4.0867,4.1355,4.1817,4.2445,4.2867,4.3113,4.3449,4.3615,4.3615,4.3615,4.3615,4.3615,4.3615,4.3615,4.3615,4.3615,4.3615,4.3615,4.3615,4.3615,4.3615,4.3615,4.3615,4.3615,4.3615,4.3615,4.3615,4.3615,4.3615,4.3615,4.3615,4.3615,4.3615,4.3615,4.3615,4.3615,4.3615,4.3615,4.3645,4.3763,4.3981,4.4406,4.4824,4.5247,4.5598,4.5897,4.6048,4.6147,4.6147,4.6189,4.6196,4.6196,4.6221,4.6295,4.635,4.6423,4.6566,4.6684,4.6842,4.698,4.7133,4.7312,4.7464,4.7572,4.7675,4.7699,4.7699,4.7699,3.3628,3.3755,3.4105,3.4356,3.4439,3.4673,3.5086,3.571,3.6744,3.7558,3.815,3.8649,3.9017,3.9301,3.9388,3.9388,3.9388,3.9388,3.9388,3.9388,3.9388,3.9388,3.9388,3.9388,3.9388,3.9388,3.9388,3.9388,3.9388,3.9388,3.9388,3.9388,3.9388,3.9388,3.9388,3.9388,3.9388,3.9388,3.9388,3.9388,3.9424,3.9496,3.9574,3.9717,3.993,4.0211,4.0578,4.1037,4.1521,4.2077,4.2556,4.2976,4.3221,4.3402,4.3598,4.3615,4.3615,4.3615,4.3615,4.3615,4.3615,4.3615,4.3615,4.3615,4.3615,4.3615,4.3615,4.3615,4.3615,4.3615,4.3615,4.3615,4.3615,4.3615,4.3615,4.3615,4.3615,4.3615,4.3615,4.3615,4.3615,4.3615,4.3615,4.3615,4.3615,4.3674,4.3734,4.4002,4.4234,4.4564,4.4951,4.531,4.5624,4.5803,4.5955,4.6073,4.6122,4.6189,4.6214,4.6214,4.6221,4.6277,4.6326,4.6405,4.659,4.6731,4.6888,4.7048,4.7245,4.7399,4.7529,4.7615,4.7678,4.7699,4.7699,3.3513,3.3725,3.3992,3.4256,3.445,3.4873,3.5397,3.6045,3.6758,3.7481,3.824,3.8649,3.9017,3.9337,3.9388,3.9388,3.9388,3.9388,3.9388,3.9388,3.9388,3.9388,3.9388,3.9388,3.9388,3.9388,3.9388,3.9388,3.9388,3.9388,3.9388,3.9388,3.9388,3.9388,3.9388,3.9388,3.9388,3.9388,3.9388,3.9388,3.9424,3.9568,3.9661,3.9839,4.0106,4.0489,4.0885,4.129,4.1818,4.2286,4.2728,4.3068,4.3312,4.3492,4.3568,4.3615,4.3615,4.3615,4.3615,4.3615,4.3615,4.3615,4.3615,4.3615,4.3615,4.3615,4.3615,4.3615,4.3615,4.3615,4.3615,4.3615,4.3615,4.3615,4.3615,4.3615,4.3615,4.3615,4.3615,4.3615,4.3615,4.3615,4.3648,4.3648,4.3962,4.4042,4.4202,4.4441,4.4549,4.4263,4.4626,4.4934,4.5239,4.5503,4.5701,4.5932,4.6073,4.6147,4.6214,4.6214,4.6196,4.6239,4.6253,4.635,4.6518,4.6684,4.6888,4.7066,4.7201,4.7316,4.7446,4.7572,4.7657,4.7678,4.7699,3.3441,3.3526,3.3907,3.4351,3.4881,3.5998,3.6414,3.6338,3.6925,3.7672,3.8427,3.8686,3.9017,3.9373,3.9388,3.9388,3.9388,3.9388,3.9388,3.9388,3.9388,3.9388,3.9388,3.9388,3.9388,3.9388,3.9388,3.9388,3.9388,3.9388,3.9388,3.9388,3.9388,3.9388,3.9388,3.9388,3.9388,3.9388,3.9388,3.9388,3.946,3.9589,3.9732,3.996,4.0191,4.0593,4.1088,4.1423,4.1916,4.2476,4.2867,4.3174,4.3372,4.3539,4.3615,4.3615,4.3615,4.3615,4.3615,4.3615,4.3615,4.3615,4.3615,4.3615,4.3615,4.3615,4.3615,4.3615,4.3615,4.3615,4.3615,4.3615,4.3615,4.3615,4.3615,4.3615,4.3615,4.3615,4.3615,4.3631,4.3631,4.3797,4.3797,4.4257,4.4556,4.4589,4.4702,4.4945,4.4986,4.4679,4.4615,4.4953,4.5227,4.5603,4.5727,4.5943,4.6025,4.6122,4.6382,4.6512,4.6477,4.6484,4.6309,4.6343,4.6518,4.6725,4.6952,4.7066,4.7156,4.7249,4.7363,4.749,4.7615,4.7657,4.7699,3.3313,3.3466,3.4037,3.4791,3.5742,3.6829,3.7276,3.7336,3.7653,3.8213,3.8867,3.8915,3.9104,3.9352,3.9388,3.9388,3.9388,3.9388,3.9388,3.9388,3.9388,3.9388,3.9388,3.9388,3.9388,3.9388,3.9388,3.9388,3.9388,3.9388,3.9388,3.9388,3.9388,3.9388,3.9388,3.9388,3.9388,3.9388,3.9388,3.9388,3.9481,3.9574,3.9818,4.0011,4.0242,4.0696,4.1223,4.1522,4.2029,4.2602,4.299,4.3235,4.3402,4.3568,4.3615,4.3615,4.3615,4.3615,4.3615,4.3615,4.3615,4.3615,4.3615,4.3615,4.3615,4.3615,4.3615,4.3615,4.3615,4.3615,4.3615,4.3615,4.3615,4.3615,4.3615,4.3615,4.3615,4.3615,4.3631,4.3664,4.3797,4.4026,4.4324,4.4804,4.5135,4.5202,4.5268,4.5415,4.5445,4.5272,4.5237,4.5408,4.56,4.5835,4.5973,4.6221,4.6613,4.6958,4.7347,4.739,4.7056,4.6843,4.6797,4.668,4.6542,4.6808,4.71,4.7038,4.7088,4.7187,4.7341,4.7468,4.7593,4.7678,4.7699,3.3197,3.3449,3.4331,3.5505,3.6814,3.745,3.8184,3.8889,3.8837,3.9015,3.9402,3.9276,3.9281,3.9418,3.9388,3.9388,3.9388,3.9388,3.9388,3.9388,3.9388,3.9388,3.9388,3.9388,3.9388,3.9388,3.9388,3.9388,3.9388,3.9388,3.9388,3.9388,3.9388,3.9388,3.9388,3.9388,3.9388,3.9388,3.9388,3.9388,3.946,3.9589,3.9803,3.9996,4.0312,4.0696,4.1205,4.167,4.2141,4.2634,4.3037,4.3221,4.3462,4.3598,4.3598,4.3615,4.3615,4.3615,4.3615,4.3615,4.3615,4.3615,4.3615,4.3615,4.3615,4.3615,4.3615,4.3615,4.3615,4.3615,4.3615,4.3615,4.3615,4.3615,4.3615,4.3615,4.3615,4.3648,4.3747,4.3876,4.4191,4.4423,4.492,4.54,4.5864,4.5897,4.6129,4.6228,4.6177,4.6076,4.5856,4.591,4.5885,4.6094,4.6516,4.6852,4.7449,4.7847,4.8164,4.8197,4.7828,4.7571,4.7347,4.7318,4.7304,4.7151,4.726,4.7181,4.7165,4.7232,4.7363,4.745,4.7554,4.7678,4.7699,3.3111,3.3298,3.4696,3.6033,3.7334,3.8418,3.9353,4.0224,4.0347,4.0099,3.9826,3.9795,3.969,3.9493,3.9403,3.9388,3.9388,3.9388,3.9388,3.9388,3.9388,3.9388,3.9388,3.9388,3.9388,3.9388,3.9388,3.9388,3.9388,3.9388,3.9388,3.9388,3.9388,3.9388,3.9388,3.9388,3.9388,3.9388,3.9388,3.9388,3.9424,3.9589,3.9753,3.991,4.0141,4.0489,4.0935,4.129,4.1851,4.2397,4.279,4.316,4.3568,4.3598,4.3615,4.3615,4.3615,4.3615,4.3615,4.3615,4.3615,4.3615,4.3615,4.3615,4.3615,4.3615,4.3615,4.3615,4.3615,4.3615,4.3615,4.3615,4.3615,4.3615,4.3615,4.3615,4.3615,4.3747,4.3893,4.4208,4.4539,4.5052,4.5549,4.6013,4.646,4.6891,4.7322,4.7487,4.7388,4.7238,4.6558,4.6452,4.6065,4.6284,4.687,4.7437,4.798,4.8293,4.8477,4.8531,4.8583,4.8422,4.826,4.824,4.8192,4.7909,4.7581,4.7357,4.7362,4.733,4.7385,4.749,4.7575,4.7678,4.7699,3.3124,3.3305,3.4717,3.6063,3.7306,3.847,3.9513,4.036,4.094,4.0945,4.0494,4.0306,4.0062,3.9732,3.9553,3.9388,3.9388,3.9388,3.9388,3.9388,3.9388,3.9388,3.9388,3.9388,3.9388,3.9388,3.9388,3.9388,3.9388,3.9388,3.9388,3.9388,3.9388,3.9388,3.9388,3.9388,3.9388,3.9388,3.9388,3.9388,3.9388,3.9517,3.961,3.9753,3.9945,4.0281,4.0662,4.1021,4.1588,4.227,4.2821,4.3221,4.3539,4.3615,4.3615,4.3615,4.3615,4.3615,4.3615,4.3615,4.3615,4.3615,4.3615,4.3615,4.3615,4.3615,4.3615,4.3615,4.3615,4.3615,4.3615,4.3615,4.3615,4.3615,4.3615,4.3615,4.3797,4.4042,4.4224,4.4473,4.5069,4.598,4.6477,4.6924,4.7289,4.7404,4.7918,4.7951,4.7984,4.8001,4.7421,4.7039,4.6719,4.6941,4.7665,4.8128,4.8485,4.8712,4.8871,4.9125,4.9293,4.9274,4.9235,4.9025,4.8784,4.8443,4.8134,4.788,4.7492,4.7348,4.7443,4.7551,4.7636,4.7699,4.7699,3.3162,3.3375,3.4565,3.5821,3.705,3.8137,3.9172,4.0083,4.093,4.1414,4.1357,4.0825,4.0554,4.0202,3.9873,3.9604,3.9439,3.9388,3.9388,3.9388,3.9388,3.9388,3.9388,3.9388,3.9388,3.9388,3.9388,3.9388,3.9388,3.9388,3.9388,3.9388,3.9388,3.9388,3.9388,3.9388,3.9388,3.9388,3.9388,3.9388,3.9388,3.9388,3.9517,3.9589,3.9732,3.9965,4.042,4.0851,4.1357,4.2013,4.2711,4.319,4.3462,4.3539,4.3598,4.3598,4.3615,4.3615,4.3615,4.3615,4.3615,4.3615,4.3615,4.3615,4.3615,4.3615,4.3615,4.3615,4.3615,4.3615,4.3615,4.3631,4.3631,4.3664,4.3664,4.3764,4.4075,4.4373,4.4605,4.4854,4.5781,4.6758,4.7255,4.7703,4.7852,4.7968,4.8001,4.8001,4.8001,4.8001,4.7736,4.7587,4.747,4.7878,4.8318,4.8529,4.871,4.9203,4.9411,4.9756,5.002,5.0048,4.9923,4.9609,4.9352,4.9137,4.8782,4.8476,4.8052,4.7585,4.7522,4.7633,4.7636,4.7699,4.7699,3.3345,3.3809,3.4743,3.5731,3.6825,3.8079,3.9127,4.0039,4.0759,4.1351,4.1657,4.1542,4.1107,4.0427,4.0322,4.0038,3.9574,3.9463,3.9388,3.9388,3.9388,3.9388,3.9388,3.9388,3.9388,3.9388,3.9388,3.9388,3.9388,3.9388,3.9388,3.9388,3.9388,3.9388,3.9388,3.9388,3.9388,3.9388,3.9388,3.9388,3.9388,3.9388,3.9409,3.9517,3.9625,3.9839,4.0121,4.042,4.0885,4.1522,4.2302,4.2929,4.3281,4.3462,4.3509,4.3598,4.3615,4.3615,4.3615,4.3615,4.3615,4.3615,4.3615,4.3615,4.3615,4.3615,4.3615,4.3631,4.3631,4.3648,4.3664,4.3714,4.3731,4.383,4.388,4.4208,4.4522,4.487,4.5185,4.5765,4.6543,4.7222,4.7686,4.7934,4.7934,4.8001,4.8001,4.8001,4.8001,4.8001,4.8001,4.8001,4.8001,4.8082,4.8194,4.8511,4.8815,4.9389,4.9924,5.0154,5.0459,5.0805,5.0682,5.0317,5.0161,5.0019,4.9638,4.9197,4.8649,4.8205,4.7821,4.7714,4.7696,4.7699,4.7699]}]]